<?xml version="1.0" encoding="utf-8"?>
<gpx xmlns:xsi="http://www.w3.org/2001/XMLSchema-instance" xmlns:xsd="http://www.w3.org/2001/XMLSchema" version="1.1" creator="Shapelink.com" xmlns="http://www.topografix.com/GPX/1/1" xmlns:gpxtpx="http://www.garmin.com/xmlschemas/TrackPointExtension/v1">
  <metadata>
    <name>Running 5.22 km, 2023-07-19</name>
    <desc></desc>
    <author><name>Carl Björnberg</name></author> 
    <time>2023-07-19T20:13:27Z</time>
  </metadata>
  <trk>
    <name>Running 5.22 km, 2023-07-19</name>
    <trkseg>
      <trkpt lat="59.515735" lon="15.99772">
        <ele>21</ele>
        <time>2023-07-19T20:13:27Z</time>
      </trkpt>
      <trkpt lat="59.515738" lon="15.997718">
        <ele>21</ele>
        <time>2023-07-19T20:13:28Z</time>
      </trkpt>
      <trkpt lat="59.515742" lon="15.997707">
        <ele>21</ele>
        <time>2023-07-19T20:13:29Z</time>
      </trkpt>
      <trkpt lat="59.515747" lon="15.997695">
        <ele>21</ele>
        <time>2023-07-19T20:13:30Z</time>
      </trkpt>
      <trkpt lat="59.515758" lon="15.997683">
        <ele>21</ele>
        <time>2023-07-19T20:13:31Z</time>
      </trkpt>
      <trkpt lat="59.515769" lon="15.997671">
        <ele>21</ele>
        <time>2023-07-19T20:13:32Z</time>
      </trkpt>
      <trkpt lat="59.515786" lon="15.99767">
        <ele>21</ele>
        <time>2023-07-19T20:13:33Z</time>
      </trkpt>
      <trkpt lat="59.515803" lon="15.997669">
        <ele>21</ele>
        <time>2023-07-19T20:13:34Z</time>
      </trkpt>
      <trkpt lat="59.515823" lon="15.997686">
        <ele>21</ele>
        <time>2023-07-19T20:13:35Z</time>
      </trkpt>
      <trkpt lat="59.515843" lon="15.997704">
        <ele>22</ele>
        <time>2023-07-19T20:13:36Z</time>
      </trkpt>
      <trkpt lat="59.515865" lon="15.997737">
        <ele>22</ele>
        <time>2023-07-19T20:13:37Z</time>
      </trkpt>
      <trkpt lat="59.515886" lon="15.997769">
        <ele>22</ele>
        <time>2023-07-19T20:13:38Z</time>
      </trkpt>
      <trkpt lat="59.515907" lon="15.997809">
        <ele>22</ele>
        <time>2023-07-19T20:13:39Z</time>
      </trkpt>
      <trkpt lat="59.515927" lon="15.99785">
        <ele>22</ele>
        <time>2023-07-19T20:13:40Z</time>
      </trkpt>
      <trkpt lat="59.515946" lon="15.997893">
        <ele>22</ele>
        <time>2023-07-19T20:13:41Z</time>
      </trkpt>
      <trkpt lat="59.515965" lon="15.997936">
        <ele>22</ele>
        <time>2023-07-19T20:13:42Z</time>
      </trkpt>
      <trkpt lat="59.515982" lon="15.997982">
        <ele>22</ele>
        <time>2023-07-19T20:13:43Z</time>
      </trkpt>
      <trkpt lat="59.515999" lon="15.998029">
        <ele>22</ele>
        <time>2023-07-19T20:13:44Z</time>
      </trkpt>
      <trkpt lat="59.516011" lon="15.998083">
        <ele>22</ele>
        <time>2023-07-19T20:13:45Z</time>
      </trkpt>
      <trkpt lat="59.516024" lon="15.998137">
        <ele>22</ele>
        <time>2023-07-19T20:13:46Z</time>
      </trkpt>
      <trkpt lat="59.516028" lon="15.998191">
        <ele>22</ele>
        <time>2023-07-19T20:13:47Z</time>
      </trkpt>
      <trkpt lat="59.516033" lon="15.998245">
        <ele>22</ele>
        <time>2023-07-19T20:13:48Z</time>
      </trkpt>
      <trkpt lat="59.516027" lon="15.9983">
        <ele>22</ele>
        <time>2023-07-19T20:13:49Z</time>
      </trkpt>
      <trkpt lat="59.516022" lon="15.998354">
        <ele>22</ele>
        <time>2023-07-19T20:13:50Z</time>
      </trkpt>
      <trkpt lat="59.516009" lon="15.998403">
        <ele>22</ele>
        <time>2023-07-19T20:13:51Z</time>
      </trkpt>
      <trkpt lat="59.515996" lon="15.998451">
        <ele>22</ele>
        <time>2023-07-19T20:13:52Z</time>
      </trkpt>
      <trkpt lat="59.515977" lon="15.998498">
        <ele>22</ele>
        <time>2023-07-19T20:13:53Z</time>
      </trkpt>
      <trkpt lat="59.515959" lon="15.998545">
        <ele>22</ele>
        <time>2023-07-19T20:13:54Z</time>
      </trkpt>
      <trkpt lat="59.515938" lon="15.998588">
        <ele>22</ele>
        <time>2023-07-19T20:13:55Z</time>
      </trkpt>
      <trkpt lat="59.515917" lon="15.998632">
        <ele>22</ele>
        <time>2023-07-19T20:13:56Z</time>
      </trkpt>
      <trkpt lat="59.515895" lon="15.998672">
        <ele>22</ele>
        <time>2023-07-19T20:13:57Z</time>
      </trkpt>
      <trkpt lat="59.515873" lon="15.998713">
        <ele>22</ele>
        <time>2023-07-19T20:13:58Z</time>
      </trkpt>
      <trkpt lat="59.51585" lon="15.998749">
        <ele>22</ele>
        <time>2023-07-19T20:13:59Z</time>
      </trkpt>
      <trkpt lat="59.515828" lon="15.998785">
        <ele>22</ele>
        <time>2023-07-19T20:14:00Z</time>
      </trkpt>
      <trkpt lat="59.515806" lon="15.998816">
        <ele>23</ele>
        <time>2023-07-19T20:14:01Z</time>
      </trkpt>
      <trkpt lat="59.515785" lon="15.998847">
        <ele>23</ele>
        <time>2023-07-19T20:14:02Z</time>
      </trkpt>
      <trkpt lat="59.515763" lon="15.998874">
        <ele>23</ele>
        <time>2023-07-19T20:14:03Z</time>
      </trkpt>
      <trkpt lat="59.515741" lon="15.998902">
        <ele>23</ele>
        <time>2023-07-19T20:14:04Z</time>
      </trkpt>
      <trkpt lat="59.515715" lon="15.998929">
        <ele>23</ele>
        <time>2023-07-19T20:14:05Z</time>
      </trkpt>
      <trkpt lat="59.515689" lon="15.998956">
        <ele>23</ele>
        <time>2023-07-19T20:14:06Z</time>
      </trkpt>
      <trkpt lat="59.515662" lon="15.998983">
        <ele>23</ele>
        <time>2023-07-19T20:14:07Z</time>
      </trkpt>
      <trkpt lat="59.515636" lon="15.999011">
        <ele>23</ele>
        <time>2023-07-19T20:14:08Z</time>
      </trkpt>
      <trkpt lat="59.515611" lon="15.999038">
        <ele>23</ele>
        <time>2023-07-19T20:14:09Z</time>
      </trkpt>
      <trkpt lat="59.515586" lon="15.999065">
        <ele>23</ele>
        <time>2023-07-19T20:14:10Z</time>
      </trkpt>
      <trkpt lat="59.515564" lon="15.999093">
        <ele>23</ele>
        <time>2023-07-19T20:14:11Z</time>
      </trkpt>
      <trkpt lat="59.515542" lon="15.99912">
        <ele>23</ele>
        <time>2023-07-19T20:14:12Z</time>
      </trkpt>
      <trkpt lat="59.515522" lon="15.999148">
        <ele>23</ele>
        <time>2023-07-19T20:14:13Z</time>
      </trkpt>
      <trkpt lat="59.515501" lon="15.999176">
        <ele>23</ele>
        <time>2023-07-19T20:14:14Z</time>
      </trkpt>
      <trkpt lat="59.515483" lon="15.999202">
        <ele>23</ele>
        <time>2023-07-19T20:14:15Z</time>
      </trkpt>
      <trkpt lat="59.515464" lon="15.999227">
        <ele>23</ele>
        <time>2023-07-19T20:14:16Z</time>
      </trkpt>
      <trkpt lat="59.515446" lon="15.999249">
        <ele>23</ele>
        <time>2023-07-19T20:14:17Z</time>
      </trkpt>
      <trkpt lat="59.515428" lon="15.999272">
        <ele>23</ele>
        <time>2023-07-19T20:14:18Z</time>
      </trkpt>
      <trkpt lat="59.51541" lon="15.999292">
        <ele>23</ele>
        <time>2023-07-19T20:14:19Z</time>
      </trkpt>
      <trkpt lat="59.515392" lon="15.999311">
        <ele>23</ele>
        <time>2023-07-19T20:14:20Z</time>
      </trkpt>
      <trkpt lat="59.51537" lon="15.999335">
        <ele>23</ele>
        <time>2023-07-19T20:14:21Z</time>
      </trkpt>
      <trkpt lat="59.515347" lon="15.999359">
        <ele>23</ele>
        <time>2023-07-19T20:14:22Z</time>
      </trkpt>
      <trkpt lat="59.515322" lon="15.999385">
        <ele>23</ele>
        <time>2023-07-19T20:14:23Z</time>
      </trkpt>
      <trkpt lat="59.515297" lon="15.999412">
        <ele>23</ele>
        <time>2023-07-19T20:14:24Z</time>
      </trkpt>
      <trkpt lat="59.51527" lon="15.999442">
        <ele>23</ele>
        <time>2023-07-19T20:14:25Z</time>
      </trkpt>
      <trkpt lat="59.515243" lon="15.999472">
        <ele>23</ele>
        <time>2023-07-19T20:14:26Z</time>
      </trkpt>
      <trkpt lat="59.515217" lon="15.999502">
        <ele>23</ele>
        <time>2023-07-19T20:14:27Z</time>
      </trkpt>
      <trkpt lat="59.515192" lon="15.999532">
        <ele>23</ele>
        <time>2023-07-19T20:14:28Z</time>
      </trkpt>
      <trkpt lat="59.515169" lon="15.99956">
        <ele>23</ele>
        <time>2023-07-19T20:14:29Z</time>
      </trkpt>
      <trkpt lat="59.515145" lon="15.999588">
        <ele>23</ele>
        <time>2023-07-19T20:14:30Z</time>
      </trkpt>
      <trkpt lat="59.515122" lon="15.999618">
        <ele>23</ele>
        <time>2023-07-19T20:14:31Z</time>
      </trkpt>
      <trkpt lat="59.5151" lon="15.999647">
        <ele>23</ele>
        <time>2023-07-19T20:14:32Z</time>
      </trkpt>
      <trkpt lat="59.515077" lon="15.999678">
        <ele>23</ele>
        <time>2023-07-19T20:14:33Z</time>
      </trkpt>
      <trkpt lat="59.515055" lon="15.999709">
        <ele>23</ele>
        <time>2023-07-19T20:14:34Z</time>
      </trkpt>
      <trkpt lat="59.515031" lon="15.999739">
        <ele>23</ele>
        <time>2023-07-19T20:14:35Z</time>
      </trkpt>
      <trkpt lat="59.515008" lon="15.99977">
        <ele>23</ele>
        <time>2023-07-19T20:14:36Z</time>
      </trkpt>
      <trkpt lat="59.514986" lon="15.999799">
        <ele>23</ele>
        <time>2023-07-19T20:14:37Z</time>
      </trkpt>
      <trkpt lat="59.514964" lon="15.999827">
        <ele>23</ele>
        <time>2023-07-19T20:14:38Z</time>
      </trkpt>
      <trkpt lat="59.514943" lon="15.999853">
        <ele>23</ele>
        <time>2023-07-19T20:14:39Z</time>
      </trkpt>
      <trkpt lat="59.514923" lon="15.999879">
        <ele>23</ele>
        <time>2023-07-19T20:14:40Z</time>
      </trkpt>
      <trkpt lat="59.514903" lon="15.999907">
        <ele>23</ele>
        <time>2023-07-19T20:14:41Z</time>
      </trkpt>
      <trkpt lat="59.514883" lon="15.999935">
        <ele>23</ele>
        <time>2023-07-19T20:14:42Z</time>
      </trkpt>
      <trkpt lat="59.514862" lon="15.999965">
        <ele>23</ele>
        <time>2023-07-19T20:14:43Z</time>
      </trkpt>
      <trkpt lat="59.514842" lon="15.999995">
        <ele>23</ele>
        <time>2023-07-19T20:14:44Z</time>
      </trkpt>
      <trkpt lat="59.514821" lon="16.000024">
        <ele>23</ele>
        <time>2023-07-19T20:14:45Z</time>
      </trkpt>
      <trkpt lat="59.5148" lon="16.000053">
        <ele>23</ele>
        <time>2023-07-19T20:14:46Z</time>
      </trkpt>
      <trkpt lat="59.514777" lon="16.000081">
        <ele>23</ele>
        <time>2023-07-19T20:14:47Z</time>
      </trkpt>
      <trkpt lat="59.514755" lon="16.000109">
        <ele>23</ele>
        <time>2023-07-19T20:14:48Z</time>
      </trkpt>
      <trkpt lat="59.514731" lon="16.000138">
        <ele>23</ele>
        <time>2023-07-19T20:14:49Z</time>
      </trkpt>
      <trkpt lat="59.514708" lon="16.000167">
        <ele>23</ele>
        <time>2023-07-19T20:14:50Z</time>
      </trkpt>
      <trkpt lat="59.514685" lon="16.000195">
        <ele>23</ele>
        <time>2023-07-19T20:14:51Z</time>
      </trkpt>
      <trkpt lat="59.514663" lon="16.000223">
        <ele>23</ele>
        <time>2023-07-19T20:14:52Z</time>
      </trkpt>
      <trkpt lat="59.514642" lon="16.00025">
        <ele>23</ele>
        <time>2023-07-19T20:14:53Z</time>
      </trkpt>
      <trkpt lat="59.514622" lon="16.000277">
        <ele>23</ele>
        <time>2023-07-19T20:14:54Z</time>
      </trkpt>
      <trkpt lat="59.514601" lon="16.000304">
        <ele>23</ele>
        <time>2023-07-19T20:14:55Z</time>
      </trkpt>
      <trkpt lat="59.514581" lon="16.000331">
        <ele>23</ele>
        <time>2023-07-19T20:14:56Z</time>
      </trkpt>
      <trkpt lat="59.51456" lon="16.000361">
        <ele>23</ele>
        <time>2023-07-19T20:14:57Z</time>
      </trkpt>
      <trkpt lat="59.51454" lon="16.000392">
        <ele>23</ele>
        <time>2023-07-19T20:14:58Z</time>
      </trkpt>
      <trkpt lat="59.514521" lon="16.000427">
        <ele>23</ele>
        <time>2023-07-19T20:14:59Z</time>
      </trkpt>
      <trkpt lat="59.514502" lon="16.000463">
        <ele>23</ele>
        <time>2023-07-19T20:15:00Z</time>
      </trkpt>
      <trkpt lat="59.514484" lon="16.000502">
        <ele>23</ele>
        <time>2023-07-19T20:15:01Z</time>
      </trkpt>
      <trkpt lat="59.514465" lon="16.000542">
        <ele>23</ele>
        <time>2023-07-19T20:15:02Z</time>
      </trkpt>
      <trkpt lat="59.514446" lon="16.000583">
        <ele>23</ele>
        <time>2023-07-19T20:15:03Z</time>
      </trkpt>
      <trkpt lat="59.514427" lon="16.000625">
        <ele>23</ele>
        <time>2023-07-19T20:15:04Z</time>
      </trkpt>
      <trkpt lat="59.514408" lon="16.000665">
        <ele>23</ele>
        <time>2023-07-19T20:15:05Z</time>
      </trkpt>
      <trkpt lat="59.51439" lon="16.000706">
        <ele>23</ele>
        <time>2023-07-19T20:15:06Z</time>
      </trkpt>
      <trkpt lat="59.514371" lon="16.000747">
        <ele>23</ele>
        <time>2023-07-19T20:15:07Z</time>
      </trkpt>
      <trkpt lat="59.514353" lon="16.000788">
        <ele>23</ele>
        <time>2023-07-19T20:15:08Z</time>
      </trkpt>
      <trkpt lat="59.514335" lon="16.000828">
        <ele>23</ele>
        <time>2023-07-19T20:15:09Z</time>
      </trkpt>
      <trkpt lat="59.514318" lon="16.000869">
        <ele>23</ele>
        <time>2023-07-19T20:15:10Z</time>
      </trkpt>
      <trkpt lat="59.514303" lon="16.00091">
        <ele>23</ele>
        <time>2023-07-19T20:15:11Z</time>
      </trkpt>
      <trkpt lat="59.514288" lon="16.000951">
        <ele>23</ele>
        <time>2023-07-19T20:15:12Z</time>
      </trkpt>
      <trkpt lat="59.514276" lon="16.000996">
        <ele>23</ele>
        <time>2023-07-19T20:15:13Z</time>
      </trkpt>
      <trkpt lat="59.514264" lon="16.001041">
        <ele>23</ele>
        <time>2023-07-19T20:15:14Z</time>
      </trkpt>
      <trkpt lat="59.514255" lon="16.001089">
        <ele>23</ele>
        <time>2023-07-19T20:15:15Z</time>
      </trkpt>
      <trkpt lat="59.514247" lon="16.001136">
        <ele>23</ele>
        <time>2023-07-19T20:15:16Z</time>
      </trkpt>
      <trkpt lat="59.514243" lon="16.001188">
        <ele>23</ele>
        <time>2023-07-19T20:15:17Z</time>
      </trkpt>
      <trkpt lat="59.514238" lon="16.001239">
        <ele>23</ele>
        <time>2023-07-19T20:15:18Z</time>
      </trkpt>
      <trkpt lat="59.514237" lon="16.001293">
        <ele>23</ele>
        <time>2023-07-19T20:15:19Z</time>
      </trkpt>
      <trkpt lat="59.514235" lon="16.001346">
        <ele>23</ele>
        <time>2023-07-19T20:15:20Z</time>
      </trkpt>
      <trkpt lat="59.514237" lon="16.0014">
        <ele>24</ele>
        <time>2023-07-19T20:15:21Z</time>
      </trkpt>
      <trkpt lat="59.514238" lon="16.001454">
        <ele>24</ele>
        <time>2023-07-19T20:15:22Z</time>
      </trkpt>
      <trkpt lat="59.514239" lon="16.001506">
        <ele>24</ele>
        <time>2023-07-19T20:15:23Z</time>
      </trkpt>
      <trkpt lat="59.514241" lon="16.001559">
        <ele>24</ele>
        <time>2023-07-19T20:15:24Z</time>
      </trkpt>
      <trkpt lat="59.514237" lon="16.001607">
        <ele>24</ele>
        <time>2023-07-19T20:15:25Z</time>
      </trkpt>
      <trkpt lat="59.514233" lon="16.001656">
        <ele>24</ele>
        <time>2023-07-19T20:15:26Z</time>
      </trkpt>
      <trkpt lat="59.514224" lon="16.0017">
        <ele>24</ele>
        <time>2023-07-19T20:15:27Z</time>
      </trkpt>
      <trkpt lat="59.514214" lon="16.001744">
        <ele>24</ele>
        <time>2023-07-19T20:15:28Z</time>
      </trkpt>
      <trkpt lat="59.5142" lon="16.001773">
        <ele>24</ele>
        <time>2023-07-19T20:15:29Z</time>
      </trkpt>
      <trkpt lat="59.514186" lon="16.001801">
        <ele>24</ele>
        <time>2023-07-19T20:15:30Z</time>
      </trkpt>
      <trkpt lat="59.514168" lon="16.001816">
        <ele>24</ele>
        <time>2023-07-19T20:15:31Z</time>
      </trkpt>
      <trkpt lat="59.514149" lon="16.001831">
        <ele>24</ele>
        <time>2023-07-19T20:15:32Z</time>
      </trkpt>
      <trkpt lat="59.514125" lon="16.00184">
        <ele>24</ele>
        <time>2023-07-19T20:15:33Z</time>
      </trkpt>
      <trkpt lat="59.514102" lon="16.001849">
        <ele>24</ele>
        <time>2023-07-19T20:15:34Z</time>
      </trkpt>
      <trkpt lat="59.514073" lon="16.001852">
        <ele>24</ele>
        <time>2023-07-19T20:15:35Z</time>
      </trkpt>
      <trkpt lat="59.514045" lon="16.001856">
        <ele>24</ele>
        <time>2023-07-19T20:15:36Z</time>
      </trkpt>
      <trkpt lat="59.514016" lon="16.001854">
        <ele>24</ele>
        <time>2023-07-19T20:15:37Z</time>
      </trkpt>
      <trkpt lat="59.513987" lon="16.001852">
        <ele>24</ele>
        <time>2023-07-19T20:15:38Z</time>
      </trkpt>
      <trkpt lat="59.513959" lon="16.001851">
        <ele>24</ele>
        <time>2023-07-19T20:15:39Z</time>
      </trkpt>
      <trkpt lat="59.513931" lon="16.001849">
        <ele>24</ele>
        <time>2023-07-19T20:15:40Z</time>
      </trkpt>
      <trkpt lat="59.513905" lon="16.001844">
        <ele>25</ele>
        <time>2023-07-19T20:15:41Z</time>
      </trkpt>
      <trkpt lat="59.513893" lon="16.001842">
        <ele>25</ele>
        <time>2023-07-19T20:15:42Z</time>
      </trkpt>
      <trkpt lat="59.51388" lon="16.001839">
        <ele>25</ele>
        <time>2023-07-19T20:15:43Z</time>
      </trkpt>
      <trkpt lat="59.513868" lon="16.001836">
        <ele>25</ele>
        <time>2023-07-19T20:15:44Z</time>
      </trkpt>
      <trkpt lat="59.513855" lon="16.001834">
        <ele>25</ele>
        <time>2023-07-19T20:15:45Z</time>
      </trkpt>
      <trkpt lat="59.51383" lon="16.001828">
        <ele>25</ele>
        <time>2023-07-19T20:15:46Z</time>
      </trkpt>
      <trkpt lat="59.513806" lon="16.001822">
        <ele>25</ele>
        <time>2023-07-19T20:15:47Z</time>
      </trkpt>
      <trkpt lat="59.513778" lon="16.001824">
        <ele>25</ele>
        <time>2023-07-19T20:15:48Z</time>
      </trkpt>
      <trkpt lat="59.513751" lon="16.001825">
        <ele>25</ele>
        <time>2023-07-19T20:15:49Z</time>
      </trkpt>
      <trkpt lat="59.513731" lon="16.001844">
        <ele>25</ele>
        <time>2023-07-19T20:15:50Z</time>
      </trkpt>
      <trkpt lat="59.51371" lon="16.001864">
        <ele>25</ele>
        <time>2023-07-19T20:15:51Z</time>
      </trkpt>
      <trkpt lat="59.513702" lon="16.0019">
        <ele>25</ele>
        <time>2023-07-19T20:15:52Z</time>
      </trkpt>
      <trkpt lat="59.513693" lon="16.001936">
        <ele>25</ele>
        <time>2023-07-19T20:15:53Z</time>
      </trkpt>
      <trkpt lat="59.513694" lon="16.001982">
        <ele>25</ele>
        <time>2023-07-19T20:15:54Z</time>
      </trkpt>
      <trkpt lat="59.513695" lon="16.002029">
        <ele>25</ele>
        <time>2023-07-19T20:15:55Z</time>
      </trkpt>
      <trkpt lat="59.513701" lon="16.002078">
        <ele>25</ele>
        <time>2023-07-19T20:15:56Z</time>
      </trkpt>
      <trkpt lat="59.513706" lon="16.002126">
        <ele>25</ele>
        <time>2023-07-19T20:15:57Z</time>
      </trkpt>
      <trkpt lat="59.513712" lon="16.002176">
        <ele>25</ele>
        <time>2023-07-19T20:15:58Z</time>
      </trkpt>
      <trkpt lat="59.513718" lon="16.002225">
        <ele>25</ele>
        <time>2023-07-19T20:15:59Z</time>
      </trkpt>
      <trkpt lat="59.513719" lon="16.002271">
        <ele>25</ele>
        <time>2023-07-19T20:16:00Z</time>
      </trkpt>
      <trkpt lat="59.51372" lon="16.002317">
        <ele>25</ele>
        <time>2023-07-19T20:16:01Z</time>
      </trkpt>
      <trkpt lat="59.513714" lon="16.002362">
        <ele>25</ele>
        <time>2023-07-19T20:16:02Z</time>
      </trkpt>
      <trkpt lat="59.513708" lon="16.002407">
        <ele>25</ele>
        <time>2023-07-19T20:16:03Z</time>
      </trkpt>
      <trkpt lat="59.513697" lon="16.002452">
        <ele>25</ele>
        <time>2023-07-19T20:16:04Z</time>
      </trkpt>
      <trkpt lat="59.513686" lon="16.002498">
        <ele>25</ele>
        <time>2023-07-19T20:16:05Z</time>
      </trkpt>
      <trkpt lat="59.513676" lon="16.002544">
        <ele>26</ele>
        <time>2023-07-19T20:16:06Z</time>
      </trkpt>
      <trkpt lat="59.513666" lon="16.002589">
        <ele>26</ele>
        <time>2023-07-19T20:16:07Z</time>
      </trkpt>
      <trkpt lat="59.513661" lon="16.002638">
        <ele>26</ele>
        <time>2023-07-19T20:16:08Z</time>
      </trkpt>
      <trkpt lat="59.513655" lon="16.002686">
        <ele>26</ele>
        <time>2023-07-19T20:16:09Z</time>
      </trkpt>
      <trkpt lat="59.513653" lon="16.002735">
        <ele>26</ele>
        <time>2023-07-19T20:16:10Z</time>
      </trkpt>
      <trkpt lat="59.51365" lon="16.002785">
        <ele>26</ele>
        <time>2023-07-19T20:16:11Z</time>
      </trkpt>
      <trkpt lat="59.513649" lon="16.002836">
        <ele>26</ele>
        <time>2023-07-19T20:16:12Z</time>
      </trkpt>
      <trkpt lat="59.513648" lon="16.002887">
        <ele>26</ele>
        <time>2023-07-19T20:16:13Z</time>
      </trkpt>
      <trkpt lat="59.513647" lon="16.002937">
        <ele>26</ele>
        <time>2023-07-19T20:16:14Z</time>
      </trkpt>
      <trkpt lat="59.513645" lon="16.002987">
        <ele>26</ele>
        <time>2023-07-19T20:16:15Z</time>
      </trkpt>
      <trkpt lat="59.513643" lon="16.003038">
        <ele>27</ele>
        <time>2023-07-19T20:16:16Z</time>
      </trkpt>
      <trkpt lat="59.51364" lon="16.003089">
        <ele>27</ele>
        <time>2023-07-19T20:16:17Z</time>
      </trkpt>
      <trkpt lat="59.513631" lon="16.003135">
        <ele>27</ele>
        <time>2023-07-19T20:16:18Z</time>
      </trkpt>
      <trkpt lat="59.513623" lon="16.003182">
        <ele>27</ele>
        <time>2023-07-19T20:16:19Z</time>
      </trkpt>
      <trkpt lat="59.513605" lon="16.003216">
        <ele>27</ele>
        <time>2023-07-19T20:16:20Z</time>
      </trkpt>
      <trkpt lat="59.513587" lon="16.00325">
        <ele>28</ele>
        <time>2023-07-19T20:16:21Z</time>
      </trkpt>
      <trkpt lat="59.513561" lon="16.003269">
        <ele>28</ele>
        <time>2023-07-19T20:16:22Z</time>
      </trkpt>
      <trkpt lat="59.513536" lon="16.003287">
        <ele>28</ele>
        <time>2023-07-19T20:16:23Z</time>
      </trkpt>
      <trkpt lat="59.513507" lon="16.003293">
        <ele>28</ele>
        <time>2023-07-19T20:16:24Z</time>
      </trkpt>
      <trkpt lat="59.513479" lon="16.003299">
        <ele>28</ele>
        <time>2023-07-19T20:16:25Z</time>
      </trkpt>
      <trkpt lat="59.513449" lon="16.003299">
        <ele>28</ele>
        <time>2023-07-19T20:16:26Z</time>
      </trkpt>
      <trkpt lat="59.513418" lon="16.003299">
        <ele>28</ele>
        <time>2023-07-19T20:16:27Z</time>
      </trkpt>
      <trkpt lat="59.513389" lon="16.003298">
        <ele>28</ele>
        <time>2023-07-19T20:16:28Z</time>
      </trkpt>
      <trkpt lat="59.513359" lon="16.003298">
        <ele>28</ele>
        <time>2023-07-19T20:16:29Z</time>
      </trkpt>
      <trkpt lat="59.51333" lon="16.003298">
        <ele>28</ele>
        <time>2023-07-19T20:16:30Z</time>
      </trkpt>
      <trkpt lat="59.513301" lon="16.003297">
        <ele>29</ele>
        <time>2023-07-19T20:16:31Z</time>
      </trkpt>
      <trkpt lat="59.513273" lon="16.003296">
        <ele>29</ele>
        <time>2023-07-19T20:16:32Z</time>
      </trkpt>
      <trkpt lat="59.513246" lon="16.003296">
        <ele>29</ele>
        <time>2023-07-19T20:16:33Z</time>
      </trkpt>
      <trkpt lat="59.513217" lon="16.003294">
        <ele>29</ele>
        <time>2023-07-19T20:16:34Z</time>
      </trkpt>
      <trkpt lat="59.513188" lon="16.003292">
        <ele>29</ele>
        <time>2023-07-19T20:16:35Z</time>
      </trkpt>
      <trkpt lat="59.513161" lon="16.00329">
        <ele>29</ele>
        <time>2023-07-19T20:16:36Z</time>
      </trkpt>
      <trkpt lat="59.513135" lon="16.003287">
        <ele>29</ele>
        <time>2023-07-19T20:16:37Z</time>
      </trkpt>
      <trkpt lat="59.513108" lon="16.003284">
        <ele>29</ele>
        <time>2023-07-19T20:16:38Z</time>
      </trkpt>
      <trkpt lat="59.513081" lon="16.003281">
        <ele>29</ele>
        <time>2023-07-19T20:16:39Z</time>
      </trkpt>
      <trkpt lat="59.513054" lon="16.003278">
        <ele>29</ele>
        <time>2023-07-19T20:16:40Z</time>
      </trkpt>
      <trkpt lat="59.513027" lon="16.003275">
        <ele>29</ele>
        <time>2023-07-19T20:16:41Z</time>
      </trkpt>
      <trkpt lat="59.513" lon="16.003272">
        <ele>29</ele>
        <time>2023-07-19T20:16:42Z</time>
      </trkpt>
      <trkpt lat="59.512973" lon="16.003269">
        <ele>29</ele>
        <time>2023-07-19T20:16:43Z</time>
      </trkpt>
      <trkpt lat="59.512944" lon="16.003267">
        <ele>29</ele>
        <time>2023-07-19T20:16:44Z</time>
      </trkpt>
      <trkpt lat="59.512915" lon="16.003265">
        <ele>29</ele>
        <time>2023-07-19T20:16:45Z</time>
      </trkpt>
      <trkpt lat="59.512886" lon="16.003263">
        <ele>30</ele>
        <time>2023-07-19T20:16:46Z</time>
      </trkpt>
      <trkpt lat="59.512856" lon="16.003261">
        <ele>30</ele>
        <time>2023-07-19T20:16:47Z</time>
      </trkpt>
      <trkpt lat="59.512827" lon="16.003257">
        <ele>30</ele>
        <time>2023-07-19T20:16:48Z</time>
      </trkpt>
      <trkpt lat="59.512797" lon="16.003254">
        <ele>30</ele>
        <time>2023-07-19T20:16:49Z</time>
      </trkpt>
      <trkpt lat="59.512768" lon="16.00325">
        <ele>30</ele>
        <time>2023-07-19T20:16:50Z</time>
      </trkpt>
      <trkpt lat="59.512739" lon="16.003246">
        <ele>30</ele>
        <time>2023-07-19T20:16:51Z</time>
      </trkpt>
      <trkpt lat="59.51271" lon="16.003242">
        <ele>30</ele>
        <time>2023-07-19T20:16:52Z</time>
      </trkpt>
      <trkpt lat="59.51268" lon="16.003238">
        <ele>30</ele>
        <time>2023-07-19T20:16:53Z</time>
      </trkpt>
      <trkpt lat="59.512651" lon="16.003236">
        <ele>30</ele>
        <time>2023-07-19T20:16:54Z</time>
      </trkpt>
      <trkpt lat="59.512621" lon="16.003235">
        <ele>30</ele>
        <time>2023-07-19T20:16:55Z</time>
      </trkpt>
      <trkpt lat="59.512593" lon="16.003234">
        <ele>30</ele>
        <time>2023-07-19T20:16:56Z</time>
      </trkpt>
      <trkpt lat="59.512565" lon="16.003233">
        <ele>30</ele>
        <time>2023-07-19T20:16:57Z</time>
      </trkpt>
      <trkpt lat="59.512537" lon="16.00323">
        <ele>30</ele>
        <time>2023-07-19T20:16:58Z</time>
      </trkpt>
      <trkpt lat="59.512509" lon="16.003228">
        <ele>30</ele>
        <time>2023-07-19T20:16:59Z</time>
      </trkpt>
      <trkpt lat="59.512482" lon="16.003224">
        <ele>30</ele>
        <time>2023-07-19T20:17:00Z</time>
      </trkpt>
      <trkpt lat="59.512454" lon="16.00322">
        <ele>30</ele>
        <time>2023-07-19T20:17:01Z</time>
      </trkpt>
      <trkpt lat="59.512427" lon="16.003215">
        <ele>30</ele>
        <time>2023-07-19T20:17:02Z</time>
      </trkpt>
      <trkpt lat="59.5124" lon="16.003211">
        <ele>30</ele>
        <time>2023-07-19T20:17:03Z</time>
      </trkpt>
      <trkpt lat="59.512373" lon="16.003208">
        <ele>30</ele>
        <time>2023-07-19T20:17:04Z</time>
      </trkpt>
      <trkpt lat="59.512345" lon="16.003204">
        <ele>30</ele>
        <time>2023-07-19T20:17:05Z</time>
      </trkpt>
      <trkpt lat="59.512318" lon="16.003204">
        <ele>30</ele>
        <time>2023-07-19T20:17:06Z</time>
      </trkpt>
      <trkpt lat="59.51229" lon="16.003204">
        <ele>29</ele>
        <time>2023-07-19T20:17:07Z</time>
      </trkpt>
      <trkpt lat="59.512262" lon="16.003206">
        <ele>29</ele>
        <time>2023-07-19T20:17:08Z</time>
      </trkpt>
      <trkpt lat="59.512233" lon="16.003208">
        <ele>29</ele>
        <time>2023-07-19T20:17:09Z</time>
      </trkpt>
      <trkpt lat="59.512205" lon="16.00321">
        <ele>29</ele>
        <time>2023-07-19T20:17:10Z</time>
      </trkpt>
      <trkpt lat="59.512177" lon="16.003213">
        <ele>29</ele>
        <time>2023-07-19T20:17:11Z</time>
      </trkpt>
      <trkpt lat="59.512149" lon="16.003219">
        <ele>29</ele>
        <time>2023-07-19T20:17:12Z</time>
      </trkpt>
      <trkpt lat="59.51212" lon="16.003225">
        <ele>29</ele>
        <time>2023-07-19T20:17:13Z</time>
      </trkpt>
      <trkpt lat="59.512093" lon="16.003238">
        <ele>29</ele>
        <time>2023-07-19T20:17:14Z</time>
      </trkpt>
      <trkpt lat="59.512065" lon="16.003251">
        <ele>29</ele>
        <time>2023-07-19T20:17:15Z</time>
      </trkpt>
      <trkpt lat="59.512039" lon="16.003271">
        <ele>29</ele>
        <time>2023-07-19T20:17:16Z</time>
      </trkpt>
      <trkpt lat="59.512013" lon="16.003292">
        <ele>29</ele>
        <time>2023-07-19T20:17:17Z</time>
      </trkpt>
      <trkpt lat="59.511989" lon="16.003317">
        <ele>29</ele>
        <time>2023-07-19T20:17:18Z</time>
      </trkpt>
      <trkpt lat="59.511964" lon="16.003342">
        <ele>29</ele>
        <time>2023-07-19T20:17:19Z</time>
      </trkpt>
      <trkpt lat="59.511943" lon="16.003371">
        <ele>29</ele>
        <time>2023-07-19T20:17:20Z</time>
      </trkpt>
      <trkpt lat="59.511921" lon="16.0034">
        <ele>29</ele>
        <time>2023-07-19T20:17:21Z</time>
      </trkpt>
      <trkpt lat="59.511905" lon="16.003431">
        <ele>29</ele>
        <time>2023-07-19T20:17:22Z</time>
      </trkpt>
      <trkpt lat="59.511889" lon="16.003462">
        <ele>29</ele>
        <time>2023-07-19T20:17:23Z</time>
      </trkpt>
      <trkpt lat="59.51188" lon="16.003498">
        <ele>29</ele>
        <time>2023-07-19T20:17:24Z</time>
      </trkpt>
      <trkpt lat="59.51187" lon="16.003533">
        <ele>29</ele>
        <time>2023-07-19T20:17:25Z</time>
      </trkpt>
      <trkpt lat="59.511867" lon="16.003575">
        <ele>30</ele>
        <time>2023-07-19T20:17:26Z</time>
      </trkpt>
      <trkpt lat="59.511864" lon="16.003618">
        <ele>30</ele>
        <time>2023-07-19T20:17:27Z</time>
      </trkpt>
      <trkpt lat="59.511865" lon="16.003663">
        <ele>30</ele>
        <time>2023-07-19T20:17:28Z</time>
      </trkpt>
      <trkpt lat="59.511866" lon="16.003709">
        <ele>30</ele>
        <time>2023-07-19T20:17:29Z</time>
      </trkpt>
      <trkpt lat="59.511869" lon="16.003759">
        <ele>30</ele>
        <time>2023-07-19T20:17:30Z</time>
      </trkpt>
      <trkpt lat="59.511872" lon="16.003809">
        <ele>30</ele>
        <time>2023-07-19T20:17:31Z</time>
      </trkpt>
      <trkpt lat="59.511875" lon="16.003861">
        <ele>30</ele>
        <time>2023-07-19T20:17:32Z</time>
      </trkpt>
      <trkpt lat="59.511877" lon="16.003913">
        <ele>30</ele>
        <time>2023-07-19T20:17:33Z</time>
      </trkpt>
      <trkpt lat="59.51188" lon="16.003967">
        <ele>30</ele>
        <time>2023-07-19T20:17:34Z</time>
      </trkpt>
      <trkpt lat="59.511883" lon="16.00402">
        <ele>30</ele>
        <time>2023-07-19T20:17:35Z</time>
      </trkpt>
      <trkpt lat="59.511887" lon="16.004073">
        <ele>30</ele>
        <time>2023-07-19T20:17:36Z</time>
      </trkpt>
      <trkpt lat="59.51189" lon="16.004125">
        <ele>30</ele>
        <time>2023-07-19T20:17:37Z</time>
      </trkpt>
      <trkpt lat="59.511893" lon="16.004176">
        <ele>30</ele>
        <time>2023-07-19T20:17:38Z</time>
      </trkpt>
      <trkpt lat="59.511895" lon="16.004227">
        <ele>30</ele>
        <time>2023-07-19T20:17:39Z</time>
      </trkpt>
      <trkpt lat="59.511894" lon="16.00428">
        <ele>30</ele>
        <time>2023-07-19T20:17:40Z</time>
      </trkpt>
      <trkpt lat="59.511892" lon="16.004332">
        <ele>31</ele>
        <time>2023-07-19T20:17:41Z</time>
      </trkpt>
      <trkpt lat="59.511886" lon="16.004384">
        <ele>31</ele>
        <time>2023-07-19T20:17:42Z</time>
      </trkpt>
      <trkpt lat="59.51188" lon="16.004435">
        <ele>31</ele>
        <time>2023-07-19T20:17:43Z</time>
      </trkpt>
      <trkpt lat="59.51187" lon="16.004485">
        <ele>31</ele>
        <time>2023-07-19T20:17:44Z</time>
      </trkpt>
      <trkpt lat="59.511861" lon="16.004534">
        <ele>31</ele>
        <time>2023-07-19T20:17:45Z</time>
      </trkpt>
      <trkpt lat="59.511849" lon="16.004586">
        <ele>31</ele>
        <time>2023-07-19T20:17:46Z</time>
      </trkpt>
      <trkpt lat="59.511838" lon="16.004637">
        <ele>31</ele>
        <time>2023-07-19T20:17:47Z</time>
      </trkpt>
      <trkpt lat="59.511827" lon="16.004689">
        <ele>31</ele>
        <time>2023-07-19T20:17:48Z</time>
      </trkpt>
      <trkpt lat="59.511815" lon="16.00474">
        <ele>31</ele>
        <time>2023-07-19T20:17:49Z</time>
      </trkpt>
      <trkpt lat="59.511806" lon="16.004791">
        <ele>31</ele>
        <time>2023-07-19T20:17:50Z</time>
      </trkpt>
      <trkpt lat="59.511797" lon="16.004843">
        <ele>31</ele>
        <time>2023-07-19T20:17:51Z</time>
      </trkpt>
      <trkpt lat="59.511789" lon="16.004896">
        <ele>31</ele>
        <time>2023-07-19T20:17:52Z</time>
      </trkpt>
      <trkpt lat="59.511781" lon="16.00495">
        <ele>31</ele>
        <time>2023-07-19T20:17:53Z</time>
      </trkpt>
      <trkpt lat="59.511774" lon="16.005004">
        <ele>31</ele>
        <time>2023-07-19T20:17:54Z</time>
      </trkpt>
      <trkpt lat="59.511766" lon="16.005057">
        <ele>31</ele>
        <time>2023-07-19T20:17:55Z</time>
      </trkpt>
      <trkpt lat="59.511758" lon="16.005109">
        <ele>31</ele>
        <time>2023-07-19T20:17:56Z</time>
      </trkpt>
      <trkpt lat="59.51175" lon="16.005161">
        <ele>31</ele>
        <time>2023-07-19T20:17:57Z</time>
      </trkpt>
      <trkpt lat="59.511742" lon="16.005214">
        <ele>31</ele>
        <time>2023-07-19T20:17:58Z</time>
      </trkpt>
      <trkpt lat="59.511733" lon="16.005267">
        <ele>31</ele>
        <time>2023-07-19T20:17:59Z</time>
      </trkpt>
      <trkpt lat="59.511724" lon="16.005318">
        <ele>31</ele>
        <time>2023-07-19T20:18:00Z</time>
      </trkpt>
      <trkpt lat="59.511715" lon="16.005368">
        <ele>31</ele>
        <time>2023-07-19T20:18:01Z</time>
      </trkpt>
      <trkpt lat="59.511703" lon="16.005413">
        <ele>31</ele>
        <time>2023-07-19T20:18:02Z</time>
      </trkpt>
      <trkpt lat="59.511692" lon="16.005457">
        <ele>31</ele>
        <time>2023-07-19T20:18:03Z</time>
      </trkpt>
      <trkpt lat="59.511676" lon="16.005492">
        <ele>31</ele>
        <time>2023-07-19T20:18:04Z</time>
      </trkpt>
      <trkpt lat="59.511661" lon="16.005526">
        <ele>31</ele>
        <time>2023-07-19T20:18:05Z</time>
      </trkpt>
      <trkpt lat="59.511644" lon="16.005554">
        <ele>31</ele>
        <time>2023-07-19T20:18:06Z</time>
      </trkpt>
      <trkpt lat="59.511626" lon="16.005581">
        <ele>31</ele>
        <time>2023-07-19T20:18:07Z</time>
      </trkpt>
      <trkpt lat="59.511603" lon="16.005606">
        <ele>31</ele>
        <time>2023-07-19T20:18:08Z</time>
      </trkpt>
      <trkpt lat="59.511581" lon="16.00563">
        <ele>31</ele>
        <time>2023-07-19T20:18:09Z</time>
      </trkpt>
      <trkpt lat="59.511555" lon="16.005652">
        <ele>31</ele>
        <time>2023-07-19T20:18:10Z</time>
      </trkpt>
      <trkpt lat="59.511528" lon="16.005674">
        <ele>31</ele>
        <time>2023-07-19T20:18:11Z</time>
      </trkpt>
      <trkpt lat="59.511502" lon="16.005693">
        <ele>31</ele>
        <time>2023-07-19T20:18:12Z</time>
      </trkpt>
      <trkpt lat="59.511476" lon="16.005712">
        <ele>31</ele>
        <time>2023-07-19T20:18:13Z</time>
      </trkpt>
      <trkpt lat="59.51145" lon="16.005729">
        <ele>31</ele>
        <time>2023-07-19T20:18:14Z</time>
      </trkpt>
      <trkpt lat="59.511425" lon="16.005747">
        <ele>31</ele>
        <time>2023-07-19T20:18:15Z</time>
      </trkpt>
      <trkpt lat="59.5114" lon="16.005762">
        <ele>31</ele>
        <time>2023-07-19T20:18:16Z</time>
      </trkpt>
      <trkpt lat="59.511375" lon="16.005778">
        <ele>31</ele>
        <time>2023-07-19T20:18:17Z</time>
      </trkpt>
      <trkpt lat="59.511353" lon="16.005794">
        <ele>31</ele>
        <time>2023-07-19T20:18:18Z</time>
      </trkpt>
      <trkpt lat="59.51133" lon="16.00581">
        <ele>31</ele>
        <time>2023-07-19T20:18:19Z</time>
      </trkpt>
      <trkpt lat="59.51131" lon="16.005826">
        <ele>31</ele>
        <time>2023-07-19T20:18:20Z</time>
      </trkpt>
      <trkpt lat="59.511289" lon="16.005841">
        <ele>31</ele>
        <time>2023-07-19T20:18:21Z</time>
      </trkpt>
      <trkpt lat="59.511269" lon="16.00586">
        <ele>31</ele>
        <time>2023-07-19T20:18:22Z</time>
      </trkpt>
      <trkpt lat="59.511249" lon="16.005878">
        <ele>31</ele>
        <time>2023-07-19T20:18:23Z</time>
      </trkpt>
      <trkpt lat="59.511229" lon="16.005899">
        <ele>31</ele>
        <time>2023-07-19T20:18:24Z</time>
      </trkpt>
      <trkpt lat="59.511209" lon="16.00592">
        <ele>31</ele>
        <time>2023-07-19T20:18:25Z</time>
      </trkpt>
      <trkpt lat="59.511189" lon="16.005942">
        <ele>31</ele>
        <time>2023-07-19T20:18:26Z</time>
      </trkpt>
      <trkpt lat="59.51117" lon="16.005965">
        <ele>31</ele>
        <time>2023-07-19T20:18:27Z</time>
      </trkpt>
      <trkpt lat="59.511151" lon="16.005985">
        <ele>31</ele>
        <time>2023-07-19T20:18:28Z</time>
      </trkpt>
      <trkpt lat="59.511132" lon="16.006005">
        <ele>31</ele>
        <time>2023-07-19T20:18:29Z</time>
      </trkpt>
      <trkpt lat="59.511107" lon="16.006024">
        <ele>31</ele>
        <time>2023-07-19T20:18:30Z</time>
      </trkpt>
      <trkpt lat="59.511083" lon="16.006043">
        <ele>31</ele>
        <time>2023-07-19T20:18:31Z</time>
      </trkpt>
      <trkpt lat="59.511055" lon="16.006063">
        <ele>31</ele>
        <time>2023-07-19T20:18:32Z</time>
      </trkpt>
      <trkpt lat="59.511028" lon="16.006082">
        <ele>31</ele>
        <time>2023-07-19T20:18:33Z</time>
      </trkpt>
      <trkpt lat="59.510998" lon="16.006105">
        <ele>31</ele>
        <time>2023-07-19T20:18:34Z</time>
      </trkpt>
      <trkpt lat="59.510967" lon="16.006128">
        <ele>31</ele>
        <time>2023-07-19T20:18:35Z</time>
      </trkpt>
      <trkpt lat="59.510938" lon="16.00615">
        <ele>32</ele>
        <time>2023-07-19T20:18:36Z</time>
      </trkpt>
      <trkpt lat="59.510909" lon="16.006173">
        <ele>32</ele>
        <time>2023-07-19T20:18:37Z</time>
      </trkpt>
      <trkpt lat="59.510886" lon="16.006189">
        <ele>32</ele>
        <time>2023-07-19T20:18:38Z</time>
      </trkpt>
      <trkpt lat="59.510864" lon="16.006206">
        <ele>32</ele>
        <time>2023-07-19T20:18:39Z</time>
      </trkpt>
      <trkpt lat="59.510848" lon="16.006219">
        <ele>32</ele>
        <time>2023-07-19T20:18:40Z</time>
      </trkpt>
      <trkpt lat="59.510831" lon="16.006233">
        <ele>32</ele>
        <time>2023-07-19T20:18:41Z</time>
      </trkpt>
      <trkpt lat="59.510815" lon="16.006249">
        <ele>32</ele>
        <time>2023-07-19T20:18:42Z</time>
      </trkpt>
      <trkpt lat="59.510799" lon="16.006265">
        <ele>32</ele>
        <time>2023-07-19T20:18:43Z</time>
      </trkpt>
      <trkpt lat="59.510783" lon="16.006289">
        <ele>32</ele>
        <time>2023-07-19T20:18:44Z</time>
      </trkpt>
      <trkpt lat="59.510767" lon="16.006312">
        <ele>32</ele>
        <time>2023-07-19T20:18:45Z</time>
      </trkpt>
      <trkpt lat="59.51075" lon="16.006342">
        <ele>32</ele>
        <time>2023-07-19T20:18:46Z</time>
      </trkpt>
      <trkpt lat="59.510732" lon="16.006373">
        <ele>32</ele>
        <time>2023-07-19T20:18:47Z</time>
      </trkpt>
      <trkpt lat="59.510714" lon="16.006405">
        <ele>32</ele>
        <time>2023-07-19T20:18:48Z</time>
      </trkpt>
      <trkpt lat="59.510697" lon="16.006438">
        <ele>32</ele>
        <time>2023-07-19T20:18:49Z</time>
      </trkpt>
      <trkpt lat="59.510679" lon="16.006469">
        <ele>32</ele>
        <time>2023-07-19T20:18:50Z</time>
      </trkpt>
      <trkpt lat="59.510662" lon="16.0065">
        <ele>33</ele>
        <time>2023-07-19T20:18:51Z</time>
      </trkpt>
      <trkpt lat="59.510642" lon="16.00653">
        <ele>33</ele>
        <time>2023-07-19T20:18:52Z</time>
      </trkpt>
      <trkpt lat="59.510621" lon="16.006561">
        <ele>33</ele>
        <time>2023-07-19T20:18:53Z</time>
      </trkpt>
      <trkpt lat="59.510599" lon="16.006591">
        <ele>33</ele>
        <time>2023-07-19T20:18:54Z</time>
      </trkpt>
      <trkpt lat="59.510576" lon="16.006622">
        <ele>33</ele>
        <time>2023-07-19T20:18:55Z</time>
      </trkpt>
      <trkpt lat="59.510546" lon="16.006657">
        <ele>34</ele>
        <time>2023-07-19T20:18:56Z</time>
      </trkpt>
      <trkpt lat="59.510516" lon="16.006691">
        <ele>34</ele>
        <time>2023-07-19T20:18:57Z</time>
      </trkpt>
      <trkpt lat="59.510485" lon="16.006724">
        <ele>34</ele>
        <time>2023-07-19T20:18:58Z</time>
      </trkpt>
      <trkpt lat="59.510454" lon="16.006756">
        <ele>34</ele>
        <time>2023-07-19T20:18:59Z</time>
      </trkpt>
      <trkpt lat="59.510424" lon="16.006777">
        <ele>34</ele>
        <time>2023-07-19T20:19:00Z</time>
      </trkpt>
      <trkpt lat="59.510394" lon="16.006798">
        <ele>35</ele>
        <time>2023-07-19T20:19:01Z</time>
      </trkpt>
      <trkpt lat="59.510367" lon="16.006812">
        <ele>35</ele>
        <time>2023-07-19T20:19:02Z</time>
      </trkpt>
      <trkpt lat="59.510339" lon="16.006827">
        <ele>35</ele>
        <time>2023-07-19T20:19:03Z</time>
      </trkpt>
      <trkpt lat="59.510315" lon="16.006841">
        <ele>35</ele>
        <time>2023-07-19T20:19:04Z</time>
      </trkpt>
      <trkpt lat="59.51029" lon="16.006856">
        <ele>35</ele>
        <time>2023-07-19T20:19:05Z</time>
      </trkpt>
      <trkpt lat="59.510272" lon="16.006875">
        <ele>36</ele>
        <time>2023-07-19T20:19:06Z</time>
      </trkpt>
      <trkpt lat="59.510253" lon="16.006895">
        <ele>36</ele>
        <time>2023-07-19T20:19:07Z</time>
      </trkpt>
      <trkpt lat="59.510239" lon="16.006919">
        <ele>36</ele>
        <time>2023-07-19T20:19:08Z</time>
      </trkpt>
      <trkpt lat="59.510225" lon="16.006943">
        <ele>36</ele>
        <time>2023-07-19T20:19:09Z</time>
      </trkpt>
      <trkpt lat="59.510214" lon="16.006968">
        <ele>36</ele>
        <time>2023-07-19T20:19:10Z</time>
      </trkpt>
      <trkpt lat="59.510203" lon="16.006993">
        <ele>36</ele>
        <time>2023-07-19T20:19:11Z</time>
      </trkpt>
      <trkpt lat="59.510192" lon="16.007025">
        <ele>36</ele>
        <time>2023-07-19T20:19:12Z</time>
      </trkpt>
      <trkpt lat="59.510181" lon="16.007057">
        <ele>36</ele>
        <time>2023-07-19T20:19:13Z</time>
      </trkpt>
      <trkpt lat="59.510169" lon="16.007091">
        <ele>36</ele>
        <time>2023-07-19T20:19:14Z</time>
      </trkpt>
      <trkpt lat="59.510158" lon="16.007126">
        <ele>36</ele>
        <time>2023-07-19T20:19:15Z</time>
      </trkpt>
      <trkpt lat="59.510147" lon="16.00716">
        <ele>37</ele>
        <time>2023-07-19T20:19:16Z</time>
      </trkpt>
      <trkpt lat="59.510137" lon="16.007194">
        <ele>37</ele>
        <time>2023-07-19T20:19:17Z</time>
      </trkpt>
      <trkpt lat="59.510126" lon="16.007224">
        <ele>37</ele>
        <time>2023-07-19T20:19:18Z</time>
      </trkpt>
      <trkpt lat="59.510116" lon="16.007255">
        <ele>37</ele>
        <time>2023-07-19T20:19:19Z</time>
      </trkpt>
      <trkpt lat="59.510104" lon="16.007285">
        <ele>37</ele>
        <time>2023-07-19T20:19:20Z</time>
      </trkpt>
      <trkpt lat="59.510092" lon="16.007315">
        <ele>37</ele>
        <time>2023-07-19T20:19:21Z</time>
      </trkpt>
      <trkpt lat="59.510081" lon="16.007347">
        <ele>37</ele>
        <time>2023-07-19T20:19:22Z</time>
      </trkpt>
      <trkpt lat="59.510069" lon="16.007379">
        <ele>37</ele>
        <time>2023-07-19T20:19:23Z</time>
      </trkpt>
      <trkpt lat="59.510056" lon="16.007418">
        <ele>37</ele>
        <time>2023-07-19T20:19:24Z</time>
      </trkpt>
      <trkpt lat="59.510042" lon="16.007457">
        <ele>37</ele>
        <time>2023-07-19T20:19:25Z</time>
      </trkpt>
      <trkpt lat="59.510024" lon="16.007501">
        <ele>37</ele>
        <time>2023-07-19T20:19:26Z</time>
      </trkpt>
      <trkpt lat="59.510006" lon="16.007545">
        <ele>37</ele>
        <time>2023-07-19T20:19:27Z</time>
      </trkpt>
      <trkpt lat="59.509987" lon="16.007583">
        <ele>37</ele>
        <time>2023-07-19T20:19:28Z</time>
      </trkpt>
      <trkpt lat="59.509967" lon="16.00762">
        <ele>37</ele>
        <time>2023-07-19T20:19:29Z</time>
      </trkpt>
      <trkpt lat="59.509947" lon="16.007649">
        <ele>37</ele>
        <time>2023-07-19T20:19:30Z</time>
      </trkpt>
      <trkpt lat="59.509927" lon="16.007677">
        <ele>38</ele>
        <time>2023-07-19T20:19:31Z</time>
      </trkpt>
      <trkpt lat="59.509905" lon="16.007699">
        <ele>38</ele>
        <time>2023-07-19T20:19:32Z</time>
      </trkpt>
      <trkpt lat="59.509883" lon="16.007722">
        <ele>38</ele>
        <time>2023-07-19T20:19:33Z</time>
      </trkpt>
      <trkpt lat="59.509856" lon="16.007742">
        <ele>38</ele>
        <time>2023-07-19T20:19:34Z</time>
      </trkpt>
      <trkpt lat="59.509829" lon="16.007763">
        <ele>38</ele>
        <time>2023-07-19T20:19:35Z</time>
      </trkpt>
      <trkpt lat="59.509798" lon="16.007784">
        <ele>38</ele>
        <time>2023-07-19T20:19:36Z</time>
      </trkpt>
      <trkpt lat="59.509767" lon="16.007806">
        <ele>38</ele>
        <time>2023-07-19T20:19:37Z</time>
      </trkpt>
      <trkpt lat="59.509732" lon="16.007832">
        <ele>38</ele>
        <time>2023-07-19T20:19:38Z</time>
      </trkpt>
      <trkpt lat="59.509698" lon="16.007858">
        <ele>38</ele>
        <time>2023-07-19T20:19:39Z</time>
      </trkpt>
      <trkpt lat="59.50966" lon="16.007891">
        <ele>38</ele>
        <time>2023-07-19T20:19:40Z</time>
      </trkpt>
      <trkpt lat="59.509622" lon="16.007923">
        <ele>39</ele>
        <time>2023-07-19T20:19:41Z</time>
      </trkpt>
      <trkpt lat="59.509587" lon="16.007958">
        <ele>38</ele>
        <time>2023-07-19T20:19:42Z</time>
      </trkpt>
      <trkpt lat="59.509552" lon="16.007994">
        <ele>38</ele>
        <time>2023-07-19T20:19:43Z</time>
      </trkpt>
      <trkpt lat="59.509525" lon="16.008021">
        <ele>38</ele>
        <time>2023-07-19T20:19:44Z</time>
      </trkpt>
      <trkpt lat="59.509497" lon="16.008049">
        <ele>38</ele>
        <time>2023-07-19T20:19:45Z</time>
      </trkpt>
      <trkpt lat="59.509475" lon="16.008068">
        <ele>38</ele>
        <time>2023-07-19T20:19:46Z</time>
      </trkpt>
      <trkpt lat="59.509454" lon="16.008087">
        <ele>38</ele>
        <time>2023-07-19T20:19:47Z</time>
      </trkpt>
      <trkpt lat="59.509432" lon="16.008101">
        <ele>38</ele>
        <time>2023-07-19T20:19:48Z</time>
      </trkpt>
      <trkpt lat="59.509411" lon="16.008116">
        <ele>38</ele>
        <time>2023-07-19T20:19:49Z</time>
      </trkpt>
      <trkpt lat="59.509387" lon="16.008129">
        <ele>38</ele>
        <time>2023-07-19T20:19:50Z</time>
      </trkpt>
      <trkpt lat="59.509363" lon="16.008142">
        <ele>38</ele>
        <time>2023-07-19T20:19:51Z</time>
      </trkpt>
      <trkpt lat="59.509339" lon="16.008154">
        <ele>38</ele>
        <time>2023-07-19T20:19:52Z</time>
      </trkpt>
      <trkpt lat="59.509314" lon="16.008166">
        <ele>38</ele>
        <time>2023-07-19T20:19:53Z</time>
      </trkpt>
      <trkpt lat="59.509291" lon="16.008176">
        <ele>38</ele>
        <time>2023-07-19T20:19:54Z</time>
      </trkpt>
      <trkpt lat="59.509268" lon="16.008186">
        <ele>38</ele>
        <time>2023-07-19T20:19:55Z</time>
      </trkpt>
      <trkpt lat="59.509246" lon="16.008201">
        <ele>38</ele>
        <time>2023-07-19T20:19:56Z</time>
      </trkpt>
      <trkpt lat="59.509223" lon="16.008215">
        <ele>38</ele>
        <time>2023-07-19T20:19:57Z</time>
      </trkpt>
      <trkpt lat="59.509201" lon="16.008232">
        <ele>38</ele>
        <time>2023-07-19T20:19:58Z</time>
      </trkpt>
      <trkpt lat="59.509179" lon="16.008248">
        <ele>38</ele>
        <time>2023-07-19T20:19:59Z</time>
      </trkpt>
      <trkpt lat="59.509156" lon="16.008264">
        <ele>38</ele>
        <time>2023-07-19T20:20:00Z</time>
      </trkpt>
      <trkpt lat="59.509133" lon="16.00828">
        <ele>38</ele>
        <time>2023-07-19T20:20:01Z</time>
      </trkpt>
      <trkpt lat="59.509112" lon="16.008296">
        <ele>38</ele>
        <time>2023-07-19T20:20:02Z</time>
      </trkpt>
      <trkpt lat="59.50909" lon="16.008312">
        <ele>38</ele>
        <time>2023-07-19T20:20:03Z</time>
      </trkpt>
      <trkpt lat="59.509071" lon="16.008326">
        <ele>38</ele>
        <time>2023-07-19T20:20:04Z</time>
      </trkpt>
      <trkpt lat="59.509051" lon="16.00834">
        <ele>38</ele>
        <time>2023-07-19T20:20:05Z</time>
      </trkpt>
      <trkpt lat="59.50903" lon="16.008355">
        <ele>38</ele>
        <time>2023-07-19T20:20:06Z</time>
      </trkpt>
      <trkpt lat="59.509009" lon="16.00837">
        <ele>38</ele>
        <time>2023-07-19T20:20:07Z</time>
      </trkpt>
      <trkpt lat="59.508982" lon="16.008387">
        <ele>38</ele>
        <time>2023-07-19T20:20:08Z</time>
      </trkpt>
      <trkpt lat="59.508956" lon="16.008404">
        <ele>38</ele>
        <time>2023-07-19T20:20:09Z</time>
      </trkpt>
      <trkpt lat="59.508927" lon="16.008423">
        <ele>38</ele>
        <time>2023-07-19T20:20:10Z</time>
      </trkpt>
      <trkpt lat="59.508898" lon="16.008442">
        <ele>38</ele>
        <time>2023-07-19T20:20:11Z</time>
      </trkpt>
      <trkpt lat="59.508871" lon="16.008462">
        <ele>37</ele>
        <time>2023-07-19T20:20:12Z</time>
      </trkpt>
      <trkpt lat="59.508844" lon="16.008482">
        <ele>37</ele>
        <time>2023-07-19T20:20:13Z</time>
      </trkpt>
      <trkpt lat="59.50882" lon="16.008498">
        <ele>37</ele>
        <time>2023-07-19T20:20:14Z</time>
      </trkpt>
      <trkpt lat="59.508796" lon="16.008515">
        <ele>37</ele>
        <time>2023-07-19T20:20:15Z</time>
      </trkpt>
      <trkpt lat="59.508771" lon="16.008528">
        <ele>37</ele>
        <time>2023-07-19T20:20:16Z</time>
      </trkpt>
      <trkpt lat="59.508746" lon="16.008541">
        <ele>37</ele>
        <time>2023-07-19T20:20:17Z</time>
      </trkpt>
      <trkpt lat="59.508714" lon="16.008558">
        <ele>37</ele>
        <time>2023-07-19T20:20:18Z</time>
      </trkpt>
      <trkpt lat="59.508683" lon="16.008574">
        <ele>37</ele>
        <time>2023-07-19T20:20:19Z</time>
      </trkpt>
      <trkpt lat="59.50865" lon="16.008591">
        <ele>37</ele>
        <time>2023-07-19T20:20:20Z</time>
      </trkpt>
      <trkpt lat="59.508618" lon="16.008608">
        <ele>37</ele>
        <time>2023-07-19T20:20:21Z</time>
      </trkpt>
      <trkpt lat="59.50859" lon="16.008625">
        <ele>36</ele>
        <time>2023-07-19T20:20:22Z</time>
      </trkpt>
      <trkpt lat="59.508562" lon="16.008641">
        <ele>36</ele>
        <time>2023-07-19T20:20:23Z</time>
      </trkpt>
      <trkpt lat="59.508538" lon="16.008666">
        <ele>35</ele>
        <time>2023-07-19T20:20:24Z</time>
      </trkpt>
      <trkpt lat="59.508514" lon="16.008691">
        <ele>35</ele>
        <time>2023-07-19T20:20:25Z</time>
      </trkpt>
      <trkpt lat="59.508491" lon="16.008726">
        <ele>35</ele>
        <time>2023-07-19T20:20:26Z</time>
      </trkpt>
      <trkpt lat="59.508467" lon="16.008761">
        <ele>34</ele>
        <time>2023-07-19T20:20:27Z</time>
      </trkpt>
      <trkpt lat="59.508444" lon="16.008801">
        <ele>34</ele>
        <time>2023-07-19T20:20:28Z</time>
      </trkpt>
      <trkpt lat="59.508421" lon="16.008842">
        <ele>34</ele>
        <time>2023-07-19T20:20:29Z</time>
      </trkpt>
      <trkpt lat="59.5084" lon="16.008881">
        <ele>34</ele>
        <time>2023-07-19T20:20:30Z</time>
      </trkpt>
      <trkpt lat="59.508378" lon="16.008921">
        <ele>34</ele>
        <time>2023-07-19T20:20:31Z</time>
      </trkpt>
      <trkpt lat="59.508363" lon="16.008964">
        <ele>33</ele>
        <time>2023-07-19T20:20:32Z</time>
      </trkpt>
      <trkpt lat="59.508347" lon="16.009007">
        <ele>33</ele>
        <time>2023-07-19T20:20:33Z</time>
      </trkpt>
      <trkpt lat="59.508335" lon="16.009054">
        <ele>33</ele>
        <time>2023-07-19T20:20:34Z</time>
      </trkpt>
      <trkpt lat="59.508322" lon="16.009101">
        <ele>33</ele>
        <time>2023-07-19T20:20:35Z</time>
      </trkpt>
      <trkpt lat="59.508306" lon="16.009148">
        <ele>33</ele>
        <time>2023-07-19T20:20:36Z</time>
      </trkpt>
      <trkpt lat="59.50829" lon="16.009196">
        <ele>33</ele>
        <time>2023-07-19T20:20:37Z</time>
      </trkpt>
      <trkpt lat="59.508269" lon="16.009237">
        <ele>33</ele>
        <time>2023-07-19T20:20:38Z</time>
      </trkpt>
      <trkpt lat="59.508249" lon="16.009279">
        <ele>33</ele>
        <time>2023-07-19T20:20:39Z</time>
      </trkpt>
      <trkpt lat="59.508227" lon="16.009314">
        <ele>33</ele>
        <time>2023-07-19T20:20:40Z</time>
      </trkpt>
      <trkpt lat="59.508206" lon="16.00935">
        <ele>33</ele>
        <time>2023-07-19T20:20:41Z</time>
      </trkpt>
      <trkpt lat="59.508185" lon="16.009382">
        <ele>33</ele>
        <time>2023-07-19T20:20:42Z</time>
      </trkpt>
      <trkpt lat="59.508164" lon="16.009413">
        <ele>33</ele>
        <time>2023-07-19T20:20:43Z</time>
      </trkpt>
      <trkpt lat="59.508145" lon="16.009445">
        <ele>33</ele>
        <time>2023-07-19T20:20:44Z</time>
      </trkpt>
      <trkpt lat="59.508125" lon="16.009477">
        <ele>33</ele>
        <time>2023-07-19T20:20:45Z</time>
      </trkpt>
      <trkpt lat="59.508107" lon="16.009512">
        <ele>33</ele>
        <time>2023-07-19T20:20:46Z</time>
      </trkpt>
      <trkpt lat="59.508089" lon="16.009547">
        <ele>33</ele>
        <time>2023-07-19T20:20:47Z</time>
      </trkpt>
      <trkpt lat="59.508073" lon="16.009589">
        <ele>33</ele>
        <time>2023-07-19T20:20:48Z</time>
      </trkpt>
      <trkpt lat="59.508058" lon="16.00963">
        <ele>33</ele>
        <time>2023-07-19T20:20:49Z</time>
      </trkpt>
      <trkpt lat="59.508046" lon="16.009683">
        <ele>33</ele>
        <time>2023-07-19T20:20:50Z</time>
      </trkpt>
      <trkpt lat="59.508034" lon="16.009736">
        <ele>33</ele>
        <time>2023-07-19T20:20:51Z</time>
      </trkpt>
      <trkpt lat="59.508021" lon="16.009797">
        <ele>32</ele>
        <time>2023-07-19T20:20:52Z</time>
      </trkpt>
      <trkpt lat="59.508008" lon="16.009858">
        <ele>32</ele>
        <time>2023-07-19T20:20:53Z</time>
      </trkpt>
      <trkpt lat="59.507997" lon="16.009928">
        <ele>32</ele>
        <time>2023-07-19T20:20:54Z</time>
      </trkpt>
      <trkpt lat="59.507985" lon="16.009998">
        <ele>32</ele>
        <time>2023-07-19T20:20:55Z</time>
      </trkpt>
      <trkpt lat="59.507976" lon="16.010069">
        <ele>32</ele>
        <time>2023-07-19T20:20:56Z</time>
      </trkpt>
      <trkpt lat="59.507967" lon="16.010139">
        <ele>32</ele>
        <time>2023-07-19T20:20:57Z</time>
      </trkpt>
      <trkpt lat="59.50796" lon="16.010201">
        <ele>32</ele>
        <time>2023-07-19T20:20:58Z</time>
      </trkpt>
      <trkpt lat="59.507952" lon="16.010263">
        <ele>32</ele>
        <time>2023-07-19T20:20:59Z</time>
      </trkpt>
      <trkpt lat="59.507946" lon="16.010314">
        <ele>32</ele>
        <time>2023-07-19T20:21:00Z</time>
      </trkpt>
      <trkpt lat="59.50794" lon="16.010365">
        <ele>32</ele>
        <time>2023-07-19T20:21:01Z</time>
      </trkpt>
      <trkpt lat="59.507938" lon="16.010412">
        <ele>32</ele>
        <time>2023-07-19T20:21:02Z</time>
      </trkpt>
      <trkpt lat="59.507936" lon="16.01046">
        <ele>32</ele>
        <time>2023-07-19T20:21:03Z</time>
      </trkpt>
      <trkpt lat="59.507936" lon="16.01051">
        <ele>32</ele>
        <time>2023-07-19T20:21:04Z</time>
      </trkpt>
      <trkpt lat="59.507935" lon="16.01056">
        <ele>32</ele>
        <time>2023-07-19T20:21:05Z</time>
      </trkpt>
      <trkpt lat="59.507931" lon="16.010623">
        <ele>32</ele>
        <time>2023-07-19T20:21:06Z</time>
      </trkpt>
      <trkpt lat="59.507927" lon="16.010685">
        <ele>32</ele>
        <time>2023-07-19T20:21:07Z</time>
      </trkpt>
      <trkpt lat="59.507922" lon="16.010754">
        <ele>32</ele>
        <time>2023-07-19T20:21:08Z</time>
      </trkpt>
      <trkpt lat="59.507918" lon="16.010823">
        <ele>32</ele>
        <time>2023-07-19T20:21:09Z</time>
      </trkpt>
      <trkpt lat="59.507915" lon="16.010888">
        <ele>32</ele>
        <time>2023-07-19T20:21:10Z</time>
      </trkpt>
      <trkpt lat="59.507913" lon="16.010954">
        <ele>32</ele>
        <time>2023-07-19T20:21:11Z</time>
      </trkpt>
      <trkpt lat="59.507915" lon="16.011011">
        <ele>32</ele>
        <time>2023-07-19T20:21:12Z</time>
      </trkpt>
      <trkpt lat="59.507917" lon="16.011068">
        <ele>32</ele>
        <time>2023-07-19T20:21:13Z</time>
      </trkpt>
      <trkpt lat="59.507922" lon="16.01112">
        <ele>32</ele>
        <time>2023-07-19T20:21:14Z</time>
      </trkpt>
      <trkpt lat="59.507926" lon="16.011172">
        <ele>32</ele>
        <time>2023-07-19T20:21:15Z</time>
      </trkpt>
      <trkpt lat="59.507932" lon="16.011228">
        <ele>32</ele>
        <time>2023-07-19T20:21:16Z</time>
      </trkpt>
      <trkpt lat="59.507939" lon="16.011284">
        <ele>32</ele>
        <time>2023-07-19T20:21:17Z</time>
      </trkpt>
      <trkpt lat="59.507942" lon="16.011334">
        <ele>32</ele>
        <time>2023-07-19T20:21:18Z</time>
      </trkpt>
      <trkpt lat="59.507945" lon="16.011384">
        <ele>32</ele>
        <time>2023-07-19T20:21:19Z</time>
      </trkpt>
      <trkpt lat="59.507943" lon="16.011431">
        <ele>32</ele>
        <time>2023-07-19T20:21:20Z</time>
      </trkpt>
      <trkpt lat="59.507942" lon="16.011477">
        <ele>32</ele>
        <time>2023-07-19T20:21:21Z</time>
      </trkpt>
      <trkpt lat="59.507937" lon="16.01152">
        <ele>32</ele>
        <time>2023-07-19T20:21:22Z</time>
      </trkpt>
      <trkpt lat="59.507933" lon="16.011562">
        <ele>32</ele>
        <time>2023-07-19T20:21:23Z</time>
      </trkpt>
      <trkpt lat="59.507928" lon="16.011601">
        <ele>32</ele>
        <time>2023-07-19T20:21:24Z</time>
      </trkpt>
      <trkpt lat="59.507922" lon="16.01164">
        <ele>32</ele>
        <time>2023-07-19T20:21:25Z</time>
      </trkpt>
      <trkpt lat="59.507916" lon="16.011678">
        <ele>32</ele>
        <time>2023-07-19T20:21:26Z</time>
      </trkpt>
      <trkpt lat="59.50791" lon="16.011715">
        <ele>32</ele>
        <time>2023-07-19T20:21:27Z</time>
      </trkpt>
      <trkpt lat="59.507902" lon="16.011753">
        <ele>32</ele>
        <time>2023-07-19T20:21:28Z</time>
      </trkpt>
      <trkpt lat="59.507893" lon="16.011792">
        <ele>32</ele>
        <time>2023-07-19T20:21:29Z</time>
      </trkpt>
      <trkpt lat="59.507883" lon="16.011834">
        <ele>32</ele>
        <time>2023-07-19T20:21:30Z</time>
      </trkpt>
      <trkpt lat="59.507873" lon="16.011877">
        <ele>32</ele>
        <time>2023-07-19T20:21:31Z</time>
      </trkpt>
      <trkpt lat="59.507864" lon="16.011938">
        <ele>32</ele>
        <time>2023-07-19T20:21:32Z</time>
      </trkpt>
      <trkpt lat="59.507856" lon="16.011999">
        <ele>32</ele>
        <time>2023-07-19T20:21:33Z</time>
      </trkpt>
      <trkpt lat="59.507845" lon="16.012069">
        <ele>32</ele>
        <time>2023-07-19T20:21:34Z</time>
      </trkpt>
      <trkpt lat="59.507834" lon="16.01214">
        <ele>32</ele>
        <time>2023-07-19T20:21:35Z</time>
      </trkpt>
      <trkpt lat="59.50782" lon="16.012201">
        <ele>33</ele>
        <time>2023-07-19T20:21:36Z</time>
      </trkpt>
      <trkpt lat="59.507805" lon="16.012262">
        <ele>33</ele>
        <time>2023-07-19T20:21:37Z</time>
      </trkpt>
      <trkpt lat="59.507789" lon="16.012305">
        <ele>33</ele>
        <time>2023-07-19T20:21:38Z</time>
      </trkpt>
      <trkpt lat="59.507773" lon="16.012348">
        <ele>33</ele>
        <time>2023-07-19T20:21:39Z</time>
      </trkpt>
      <trkpt lat="59.507756" lon="16.012386">
        <ele>33</ele>
        <time>2023-07-19T20:21:40Z</time>
      </trkpt>
      <trkpt lat="59.507738" lon="16.012425">
        <ele>33</ele>
        <time>2023-07-19T20:21:41Z</time>
      </trkpt>
      <trkpt lat="59.50772" lon="16.012471">
        <ele>33</ele>
        <time>2023-07-19T20:21:42Z</time>
      </trkpt>
      <trkpt lat="59.507702" lon="16.012518">
        <ele>33</ele>
        <time>2023-07-19T20:21:43Z</time>
      </trkpt>
      <trkpt lat="59.507687" lon="16.012571">
        <ele>33</ele>
        <time>2023-07-19T20:21:44Z</time>
      </trkpt>
      <trkpt lat="59.507672" lon="16.012624">
        <ele>33</ele>
        <time>2023-07-19T20:21:45Z</time>
      </trkpt>
      <trkpt lat="59.507659" lon="16.012678">
        <ele>33</ele>
        <time>2023-07-19T20:21:46Z</time>
      </trkpt>
      <trkpt lat="59.507646" lon="16.012731">
        <ele>32</ele>
        <time>2023-07-19T20:21:47Z</time>
      </trkpt>
      <trkpt lat="59.507632" lon="16.01278">
        <ele>32</ele>
        <time>2023-07-19T20:21:48Z</time>
      </trkpt>
      <trkpt lat="59.507619" lon="16.012829">
        <ele>32</ele>
        <time>2023-07-19T20:21:49Z</time>
      </trkpt>
      <trkpt lat="59.507603" lon="16.012873">
        <ele>32</ele>
        <time>2023-07-19T20:21:50Z</time>
      </trkpt>
      <trkpt lat="59.507587" lon="16.012917">
        <ele>32</ele>
        <time>2023-07-19T20:21:51Z</time>
      </trkpt>
      <trkpt lat="59.507571" lon="16.012957">
        <ele>32</ele>
        <time>2023-07-19T20:21:52Z</time>
      </trkpt>
      <trkpt lat="59.507555" lon="16.012996">
        <ele>32</ele>
        <time>2023-07-19T20:21:53Z</time>
      </trkpt>
      <trkpt lat="59.507539" lon="16.013038">
        <ele>32</ele>
        <time>2023-07-19T20:21:54Z</time>
      </trkpt>
      <trkpt lat="59.507523" lon="16.01308">
        <ele>32</ele>
        <time>2023-07-19T20:21:55Z</time>
      </trkpt>
      <trkpt lat="59.50751" lon="16.013124">
        <ele>32</ele>
        <time>2023-07-19T20:21:56Z</time>
      </trkpt>
      <trkpt lat="59.507497" lon="16.013168">
        <ele>32</ele>
        <time>2023-07-19T20:21:57Z</time>
      </trkpt>
      <trkpt lat="59.507488" lon="16.013209">
        <ele>32</ele>
        <time>2023-07-19T20:21:58Z</time>
      </trkpt>
      <trkpt lat="59.507479" lon="16.01325">
        <ele>32</ele>
        <time>2023-07-19T20:21:59Z</time>
      </trkpt>
      <trkpt lat="59.507472" lon="16.013291">
        <ele>32</ele>
        <time>2023-07-19T20:22:00Z</time>
      </trkpt>
      <trkpt lat="59.507464" lon="16.013332">
        <ele>32</ele>
        <time>2023-07-19T20:22:01Z</time>
      </trkpt>
      <trkpt lat="59.507457" lon="16.013377">
        <ele>32</ele>
        <time>2023-07-19T20:22:02Z</time>
      </trkpt>
      <trkpt lat="59.507449" lon="16.013422">
        <ele>32</ele>
        <time>2023-07-19T20:22:03Z</time>
      </trkpt>
      <trkpt lat="59.50744" lon="16.013479">
        <ele>32</ele>
        <time>2023-07-19T20:22:04Z</time>
      </trkpt>
      <trkpt lat="59.507432" lon="16.013535">
        <ele>32</ele>
        <time>2023-07-19T20:22:05Z</time>
      </trkpt>
      <trkpt lat="59.507422" lon="16.013604">
        <ele>32</ele>
        <time>2023-07-19T20:22:06Z</time>
      </trkpt>
      <trkpt lat="59.507413" lon="16.013673">
        <ele>31</ele>
        <time>2023-07-19T20:22:07Z</time>
      </trkpt>
      <trkpt lat="59.507403" lon="16.013736">
        <ele>31</ele>
        <time>2023-07-19T20:22:08Z</time>
      </trkpt>
      <trkpt lat="59.507393" lon="16.0138">
        <ele>31</ele>
        <time>2023-07-19T20:22:09Z</time>
      </trkpt>
      <trkpt lat="59.507385" lon="16.013851">
        <ele>31</ele>
        <time>2023-07-19T20:22:10Z</time>
      </trkpt>
      <trkpt lat="59.507377" lon="16.013901">
        <ele>31</ele>
        <time>2023-07-19T20:22:11Z</time>
      </trkpt>
      <trkpt lat="59.507369" lon="16.013944">
        <ele>31</ele>
        <time>2023-07-19T20:22:12Z</time>
      </trkpt>
      <trkpt lat="59.507361" lon="16.013986">
        <ele>31</ele>
        <time>2023-07-19T20:22:13Z</time>
      </trkpt>
      <trkpt lat="59.507354" lon="16.014025">
        <ele>31</ele>
        <time>2023-07-19T20:22:14Z</time>
      </trkpt>
      <trkpt lat="59.507347" lon="16.014064">
        <ele>31</ele>
        <time>2023-07-19T20:22:15Z</time>
      </trkpt>
      <trkpt lat="59.50734" lon="16.014109">
        <ele>31</ele>
        <time>2023-07-19T20:22:16Z</time>
      </trkpt>
      <trkpt lat="59.507332" lon="16.014155">
        <ele>30</ele>
        <time>2023-07-19T20:22:17Z</time>
      </trkpt>
      <trkpt lat="59.507324" lon="16.014218">
        <ele>30</ele>
        <time>2023-07-19T20:22:18Z</time>
      </trkpt>
      <trkpt lat="59.507316" lon="16.014281">
        <ele>30</ele>
        <time>2023-07-19T20:22:19Z</time>
      </trkpt>
      <trkpt lat="59.507312" lon="16.014346">
        <ele>30</ele>
        <time>2023-07-19T20:22:20Z</time>
      </trkpt>
      <trkpt lat="59.507309" lon="16.014411">
        <ele>30</ele>
        <time>2023-07-19T20:22:21Z</time>
      </trkpt>
      <trkpt lat="59.507313" lon="16.014471">
        <ele>30</ele>
        <time>2023-07-19T20:22:22Z</time>
      </trkpt>
      <trkpt lat="59.507318" lon="16.01453">
        <ele>30</ele>
        <time>2023-07-19T20:22:23Z</time>
      </trkpt>
      <trkpt lat="59.507326" lon="16.014577">
        <ele>30</ele>
        <time>2023-07-19T20:22:24Z</time>
      </trkpt>
      <trkpt lat="59.507333" lon="16.014623">
        <ele>30</ele>
        <time>2023-07-19T20:22:25Z</time>
      </trkpt>
      <trkpt lat="59.507338" lon="16.014666">
        <ele>31</ele>
        <time>2023-07-19T20:22:26Z</time>
      </trkpt>
      <trkpt lat="59.507342" lon="16.014709">
        <ele>31</ele>
        <time>2023-07-19T20:22:27Z</time>
      </trkpt>
      <trkpt lat="59.507341" lon="16.014757">
        <ele>31</ele>
        <time>2023-07-19T20:22:28Z</time>
      </trkpt>
      <trkpt lat="59.507341" lon="16.014806">
        <ele>31</ele>
        <time>2023-07-19T20:22:29Z</time>
      </trkpt>
      <trkpt lat="59.507336" lon="16.01486">
        <ele>31</ele>
        <time>2023-07-19T20:22:30Z</time>
      </trkpt>
      <trkpt lat="59.507331" lon="16.014913">
        <ele>31</ele>
        <time>2023-07-19T20:22:31Z</time>
      </trkpt>
      <trkpt lat="59.507326" lon="16.014964">
        <ele>31</ele>
        <time>2023-07-19T20:22:32Z</time>
      </trkpt>
      <trkpt lat="59.507322" lon="16.015016">
        <ele>31</ele>
        <time>2023-07-19T20:22:33Z</time>
      </trkpt>
      <trkpt lat="59.507321" lon="16.015065">
        <ele>31</ele>
        <time>2023-07-19T20:22:34Z</time>
      </trkpt>
      <trkpt lat="59.50732" lon="16.015115">
        <ele>31</ele>
        <time>2023-07-19T20:22:35Z</time>
      </trkpt>
      <trkpt lat="59.507326" lon="16.015161">
        <ele>31</ele>
        <time>2023-07-19T20:22:36Z</time>
      </trkpt>
      <trkpt lat="59.507333" lon="16.015208">
        <ele>31</ele>
        <time>2023-07-19T20:22:37Z</time>
      </trkpt>
      <trkpt lat="59.507349" lon="16.015247">
        <ele>31</ele>
        <time>2023-07-19T20:22:38Z</time>
      </trkpt>
      <trkpt lat="59.507365" lon="16.015287">
        <ele>31</ele>
        <time>2023-07-19T20:22:39Z</time>
      </trkpt>
      <trkpt lat="59.507382" lon="16.015321">
        <ele>31</ele>
        <time>2023-07-19T20:22:40Z</time>
      </trkpt>
      <trkpt lat="59.507399" lon="16.015355">
        <ele>32</ele>
        <time>2023-07-19T20:22:41Z</time>
      </trkpt>
      <trkpt lat="59.507411" lon="16.015387">
        <ele>32</ele>
        <time>2023-07-19T20:22:42Z</time>
      </trkpt>
      <trkpt lat="59.507423" lon="16.015419">
        <ele>32</ele>
        <time>2023-07-19T20:22:43Z</time>
      </trkpt>
      <trkpt lat="59.507431" lon="16.015456">
        <ele>32</ele>
        <time>2023-07-19T20:22:44Z</time>
      </trkpt>
      <trkpt lat="59.507438" lon="16.015492">
        <ele>32</ele>
        <time>2023-07-19T20:22:45Z</time>
      </trkpt>
      <trkpt lat="59.507444" lon="16.015536">
        <ele>32</ele>
        <time>2023-07-19T20:22:46Z</time>
      </trkpt>
      <trkpt lat="59.50745" lon="16.015579">
        <ele>32</ele>
        <time>2023-07-19T20:22:47Z</time>
      </trkpt>
      <trkpt lat="59.507458" lon="16.015625">
        <ele>32</ele>
        <time>2023-07-19T20:22:48Z</time>
      </trkpt>
      <trkpt lat="59.507466" lon="16.015672">
        <ele>32</ele>
        <time>2023-07-19T20:22:49Z</time>
      </trkpt>
      <trkpt lat="59.507475" lon="16.015719">
        <ele>32</ele>
        <time>2023-07-19T20:22:50Z</time>
      </trkpt>
      <trkpt lat="59.507485" lon="16.015765">
        <ele>33</ele>
        <time>2023-07-19T20:22:51Z</time>
      </trkpt>
      <trkpt lat="59.507498" lon="16.015816">
        <ele>33</ele>
        <time>2023-07-19T20:22:52Z</time>
      </trkpt>
      <trkpt lat="59.507511" lon="16.015866">
        <ele>33</ele>
        <time>2023-07-19T20:22:53Z</time>
      </trkpt>
      <trkpt lat="59.507525" lon="16.015918">
        <ele>33</ele>
        <time>2023-07-19T20:22:54Z</time>
      </trkpt>
      <trkpt lat="59.507538" lon="16.01597">
        <ele>33</ele>
        <time>2023-07-19T20:22:55Z</time>
      </trkpt>
      <trkpt lat="59.507551" lon="16.016028">
        <ele>34</ele>
        <time>2023-07-19T20:22:56Z</time>
      </trkpt>
      <trkpt lat="59.507564" lon="16.016086">
        <ele>34</ele>
        <time>2023-07-19T20:22:57Z</time>
      </trkpt>
      <trkpt lat="59.507572" lon="16.016147">
        <ele>34</ele>
        <time>2023-07-19T20:22:58Z</time>
      </trkpt>
      <trkpt lat="59.507579" lon="16.016208">
        <ele>34</ele>
        <time>2023-07-19T20:22:59Z</time>
      </trkpt>
      <trkpt lat="59.507581" lon="16.016261">
        <ele>34</ele>
        <time>2023-07-19T20:23:00Z</time>
      </trkpt>
      <trkpt lat="59.507583" lon="16.016315">
        <ele>35</ele>
        <time>2023-07-19T20:23:01Z</time>
      </trkpt>
      <trkpt lat="59.507578" lon="16.016366">
        <ele>35</ele>
        <time>2023-07-19T20:23:02Z</time>
      </trkpt>
      <trkpt lat="59.507574" lon="16.016416">
        <ele>35</ele>
        <time>2023-07-19T20:23:03Z</time>
      </trkpt>
      <trkpt lat="59.507562" lon="16.016477">
        <ele>35</ele>
        <time>2023-07-19T20:23:04Z</time>
      </trkpt>
      <trkpt lat="59.507551" lon="16.016538">
        <ele>35</ele>
        <time>2023-07-19T20:23:05Z</time>
      </trkpt>
      <trkpt lat="59.507536" lon="16.0166">
        <ele>36</ele>
        <time>2023-07-19T20:23:06Z</time>
      </trkpt>
      <trkpt lat="59.507522" lon="16.016661">
        <ele>36</ele>
        <time>2023-07-19T20:23:07Z</time>
      </trkpt>
      <trkpt lat="59.507511" lon="16.016718">
        <ele>36</ele>
        <time>2023-07-19T20:23:08Z</time>
      </trkpt>
      <trkpt lat="59.5075" lon="16.016774">
        <ele>36</ele>
        <time>2023-07-19T20:23:09Z</time>
      </trkpt>
      <trkpt lat="59.507496" lon="16.016826">
        <ele>36</ele>
        <time>2023-07-19T20:23:10Z</time>
      </trkpt>
      <trkpt lat="59.507491" lon="16.016878">
        <ele>36</ele>
        <time>2023-07-19T20:23:11Z</time>
      </trkpt>
      <trkpt lat="59.507487" lon="16.016924">
        <ele>36</ele>
        <time>2023-07-19T20:23:12Z</time>
      </trkpt>
      <trkpt lat="59.507484" lon="16.01697">
        <ele>36</ele>
        <time>2023-07-19T20:23:13Z</time>
      </trkpt>
      <trkpt lat="59.507478" lon="16.017009">
        <ele>36</ele>
        <time>2023-07-19T20:23:14Z</time>
      </trkpt>
      <trkpt lat="59.507472" lon="16.017048">
        <ele>36</ele>
        <time>2023-07-19T20:23:15Z</time>
      </trkpt>
      <trkpt lat="59.507464" lon="16.017087">
        <ele>37</ele>
        <time>2023-07-19T20:23:16Z</time>
      </trkpt>
      <trkpt lat="59.507456" lon="16.017126">
        <ele>37</ele>
        <time>2023-07-19T20:23:17Z</time>
      </trkpt>
      <trkpt lat="59.50745" lon="16.017169">
        <ele>37</ele>
        <time>2023-07-19T20:23:18Z</time>
      </trkpt>
      <trkpt lat="59.507445" lon="16.017211">
        <ele>37</ele>
        <time>2023-07-19T20:23:19Z</time>
      </trkpt>
      <trkpt lat="59.507446" lon="16.017259">
        <ele>37</ele>
        <time>2023-07-19T20:23:20Z</time>
      </trkpt>
      <trkpt lat="59.507447" lon="16.017307">
        <ele>37</ele>
        <time>2023-07-19T20:23:21Z</time>
      </trkpt>
      <trkpt lat="59.507457" lon="16.017352">
        <ele>37</ele>
        <time>2023-07-19T20:23:22Z</time>
      </trkpt>
      <trkpt lat="59.507466" lon="16.017398">
        <ele>37</ele>
        <time>2023-07-19T20:23:23Z</time>
      </trkpt>
      <trkpt lat="59.507483" lon="16.017433">
        <ele>37</ele>
        <time>2023-07-19T20:23:24Z</time>
      </trkpt>
      <trkpt lat="59.5075" lon="16.017468">
        <ele>37</ele>
        <time>2023-07-19T20:23:25Z</time>
      </trkpt>
      <trkpt lat="59.507519" lon="16.017491">
        <ele>37</ele>
        <time>2023-07-19T20:23:26Z</time>
      </trkpt>
      <trkpt lat="59.507539" lon="16.017515">
        <ele>37</ele>
        <time>2023-07-19T20:23:27Z</time>
      </trkpt>
      <trkpt lat="59.507559" lon="16.017533">
        <ele>37</ele>
        <time>2023-07-19T20:23:28Z</time>
      </trkpt>
      <trkpt lat="59.507579" lon="16.01755">
        <ele>37</ele>
        <time>2023-07-19T20:23:29Z</time>
      </trkpt>
      <trkpt lat="59.507598" lon="16.017563">
        <ele>37</ele>
        <time>2023-07-19T20:23:30Z</time>
      </trkpt>
      <trkpt lat="59.507618" lon="16.017576">
        <ele>38</ele>
        <time>2023-07-19T20:23:31Z</time>
      </trkpt>
      <trkpt lat="59.507637" lon="16.01759">
        <ele>38</ele>
        <time>2023-07-19T20:23:32Z</time>
      </trkpt>
      <trkpt lat="59.507657" lon="16.017605">
        <ele>38</ele>
        <time>2023-07-19T20:23:33Z</time>
      </trkpt>
      <trkpt lat="59.507678" lon="16.017625">
        <ele>38</ele>
        <time>2023-07-19T20:23:34Z</time>
      </trkpt>
      <trkpt lat="59.5077" lon="16.017645">
        <ele>38</ele>
        <time>2023-07-19T20:23:35Z</time>
      </trkpt>
      <trkpt lat="59.507723" lon="16.017671">
        <ele>38</ele>
        <time>2023-07-19T20:23:36Z</time>
      </trkpt>
      <trkpt lat="59.507746" lon="16.017697">
        <ele>38</ele>
        <time>2023-07-19T20:23:37Z</time>
      </trkpt>
      <trkpt lat="59.507769" lon="16.017727">
        <ele>38</ele>
        <time>2023-07-19T20:23:38Z</time>
      </trkpt>
      <trkpt lat="59.507792" lon="16.017757">
        <ele>38</ele>
        <time>2023-07-19T20:23:39Z</time>
      </trkpt>
      <trkpt lat="59.507819" lon="16.017783">
        <ele>38</ele>
        <time>2023-07-19T20:23:40Z</time>
      </trkpt>
      <trkpt lat="59.507845" lon="16.017809">
        <ele>39</ele>
        <time>2023-07-19T20:23:41Z</time>
      </trkpt>
      <trkpt lat="59.507872" lon="16.017829">
        <ele>39</ele>
        <time>2023-07-19T20:23:42Z</time>
      </trkpt>
      <trkpt lat="59.5079" lon="16.017849">
        <ele>39</ele>
        <time>2023-07-19T20:23:43Z</time>
      </trkpt>
      <trkpt lat="59.507925" lon="16.01787">
        <ele>39</ele>
        <time>2023-07-19T20:23:44Z</time>
      </trkpt>
      <trkpt lat="59.507951" lon="16.017891">
        <ele>39</ele>
        <time>2023-07-19T20:23:45Z</time>
      </trkpt>
      <trkpt lat="59.507978" lon="16.017916">
        <ele>39</ele>
        <time>2023-07-19T20:23:46Z</time>
      </trkpt>
      <trkpt lat="59.508005" lon="16.01794">
        <ele>39</ele>
        <time>2023-07-19T20:23:47Z</time>
      </trkpt>
      <trkpt lat="59.508034" lon="16.017966">
        <ele>39</ele>
        <time>2023-07-19T20:23:48Z</time>
      </trkpt>
      <trkpt lat="59.508062" lon="16.017992">
        <ele>39</ele>
        <time>2023-07-19T20:23:49Z</time>
      </trkpt>
      <trkpt lat="59.508091" lon="16.018019">
        <ele>39</ele>
        <time>2023-07-19T20:23:50Z</time>
      </trkpt>
      <trkpt lat="59.50812" lon="16.018047">
        <ele>39</ele>
        <time>2023-07-19T20:23:51Z</time>
      </trkpt>
      <trkpt lat="59.508145" lon="16.018073">
        <ele>39</ele>
        <time>2023-07-19T20:23:52Z</time>
      </trkpt>
      <trkpt lat="59.508171" lon="16.018099">
        <ele>39</ele>
        <time>2023-07-19T20:23:53Z</time>
      </trkpt>
      <trkpt lat="59.50819" lon="16.018117">
        <ele>39</ele>
        <time>2023-07-19T20:23:54Z</time>
      </trkpt>
      <trkpt lat="59.50821" lon="16.018136">
        <ele>39</ele>
        <time>2023-07-19T20:23:55Z</time>
      </trkpt>
      <trkpt lat="59.508227" lon="16.018151">
        <ele>40</ele>
        <time>2023-07-19T20:23:56Z</time>
      </trkpt>
      <trkpt lat="59.508244" lon="16.018166">
        <ele>40</ele>
        <time>2023-07-19T20:23:57Z</time>
      </trkpt>
      <trkpt lat="59.508267" lon="16.018181">
        <ele>40</ele>
        <time>2023-07-19T20:23:58Z</time>
      </trkpt>
      <trkpt lat="59.50829" lon="16.018196">
        <ele>40</ele>
        <time>2023-07-19T20:23:59Z</time>
      </trkpt>
      <trkpt lat="59.508316" lon="16.01821">
        <ele>40</ele>
        <time>2023-07-19T20:24:00Z</time>
      </trkpt>
      <trkpt lat="59.508341" lon="16.018224">
        <ele>40</ele>
        <time>2023-07-19T20:24:01Z</time>
      </trkpt>
      <trkpt lat="59.508366" lon="16.018236">
        <ele>40</ele>
        <time>2023-07-19T20:24:02Z</time>
      </trkpt>
      <trkpt lat="59.508391" lon="16.018248">
        <ele>40</ele>
        <time>2023-07-19T20:24:03Z</time>
      </trkpt>
      <trkpt lat="59.508414" lon="16.018257">
        <ele>40</ele>
        <time>2023-07-19T20:24:04Z</time>
      </trkpt>
      <trkpt lat="59.508437" lon="16.018265">
        <ele>40</ele>
        <time>2023-07-19T20:24:05Z</time>
      </trkpt>
      <trkpt lat="59.508457" lon="16.018269">
        <ele>41</ele>
        <time>2023-07-19T20:24:06Z</time>
      </trkpt>
      <trkpt lat="59.508478" lon="16.018274">
        <ele>41</ele>
        <time>2023-07-19T20:24:07Z</time>
      </trkpt>
      <trkpt lat="59.508499" lon="16.018276">
        <ele>41</ele>
        <time>2023-07-19T20:24:08Z</time>
      </trkpt>
      <trkpt lat="59.50852" lon="16.018279">
        <ele>41</ele>
        <time>2023-07-19T20:24:09Z</time>
      </trkpt>
      <trkpt lat="59.508545" lon="16.018283">
        <ele>41</ele>
        <time>2023-07-19T20:24:10Z</time>
      </trkpt>
      <trkpt lat="59.50857" lon="16.018288">
        <ele>41</ele>
        <time>2023-07-19T20:24:11Z</time>
      </trkpt>
      <trkpt lat="59.508598" lon="16.018295">
        <ele>41</ele>
        <time>2023-07-19T20:24:12Z</time>
      </trkpt>
      <trkpt lat="59.508626" lon="16.018302">
        <ele>41</ele>
        <time>2023-07-19T20:24:13Z</time>
      </trkpt>
      <trkpt lat="59.508655" lon="16.018307">
        <ele>41</ele>
        <time>2023-07-19T20:24:14Z</time>
      </trkpt>
      <trkpt lat="59.508684" lon="16.018312">
        <ele>41</ele>
        <time>2023-07-19T20:24:15Z</time>
      </trkpt>
      <trkpt lat="59.508714" lon="16.01831">
        <ele>41</ele>
        <time>2023-07-19T20:24:16Z</time>
      </trkpt>
      <trkpt lat="59.508744" lon="16.018309">
        <ele>41</ele>
        <time>2023-07-19T20:24:17Z</time>
      </trkpt>
      <trkpt lat="59.508772" lon="16.018297">
        <ele>41</ele>
        <time>2023-07-19T20:24:18Z</time>
      </trkpt>
      <trkpt lat="59.508801" lon="16.018286">
        <ele>41</ele>
        <time>2023-07-19T20:24:19Z</time>
      </trkpt>
      <trkpt lat="59.50883" lon="16.018264">
        <ele>41</ele>
        <time>2023-07-19T20:24:20Z</time>
      </trkpt>
      <trkpt lat="59.50886" lon="16.018243">
        <ele>41</ele>
        <time>2023-07-19T20:24:21Z</time>
      </trkpt>
      <trkpt lat="59.508888" lon="16.018216">
        <ele>41</ele>
        <time>2023-07-19T20:24:22Z</time>
      </trkpt>
      <trkpt lat="59.508917" lon="16.018189">
        <ele>41</ele>
        <time>2023-07-19T20:24:23Z</time>
      </trkpt>
      <trkpt lat="59.508942" lon="16.018159">
        <ele>41</ele>
        <time>2023-07-19T20:24:24Z</time>
      </trkpt>
      <trkpt lat="59.508968" lon="16.018129">
        <ele>41</ele>
        <time>2023-07-19T20:24:25Z</time>
      </trkpt>
      <trkpt lat="59.50899" lon="16.018094">
        <ele>41</ele>
        <time>2023-07-19T20:24:26Z</time>
      </trkpt>
      <trkpt lat="59.509012" lon="16.018059">
        <ele>41</ele>
        <time>2023-07-19T20:24:27Z</time>
      </trkpt>
      <trkpt lat="59.509035" lon="16.01802">
        <ele>41</ele>
        <time>2023-07-19T20:24:28Z</time>
      </trkpt>
      <trkpt lat="59.509057" lon="16.017981">
        <ele>41</ele>
        <time>2023-07-19T20:24:29Z</time>
      </trkpt>
      <trkpt lat="59.509078" lon="16.017938">
        <ele>41</ele>
        <time>2023-07-19T20:24:30Z</time>
      </trkpt>
      <trkpt lat="59.5091" lon="16.017894">
        <ele>41</ele>
        <time>2023-07-19T20:24:31Z</time>
      </trkpt>
      <trkpt lat="59.509119" lon="16.017853">
        <ele>41</ele>
        <time>2023-07-19T20:24:32Z</time>
      </trkpt>
      <trkpt lat="59.509139" lon="16.017812">
        <ele>41</ele>
        <time>2023-07-19T20:24:33Z</time>
      </trkpt>
      <trkpt lat="59.50916" lon="16.017779">
        <ele>41</ele>
        <time>2023-07-19T20:24:34Z</time>
      </trkpt>
      <trkpt lat="59.509181" lon="16.017747">
        <ele>41</ele>
        <time>2023-07-19T20:24:35Z</time>
      </trkpt>
      <trkpt lat="59.509202" lon="16.017719">
        <ele>41</ele>
        <time>2023-07-19T20:24:36Z</time>
      </trkpt>
      <trkpt lat="59.509223" lon="16.017692">
        <ele>41</ele>
        <time>2023-07-19T20:24:37Z</time>
      </trkpt>
      <trkpt lat="59.509248" lon="16.017664">
        <ele>41</ele>
        <time>2023-07-19T20:24:38Z</time>
      </trkpt>
      <trkpt lat="59.509273" lon="16.017636">
        <ele>41</ele>
        <time>2023-07-19T20:24:39Z</time>
      </trkpt>
      <trkpt lat="59.509298" lon="16.017608">
        <ele>41</ele>
        <time>2023-07-19T20:24:40Z</time>
      </trkpt>
      <trkpt lat="59.509327" lon="16.017579">
        <ele>41</ele>
        <time>2023-07-19T20:24:41Z</time>
      </trkpt>
      <trkpt lat="59.509355" lon="16.01755">
        <ele>41</ele>
        <time>2023-07-19T20:24:42Z</time>
      </trkpt>
      <trkpt lat="59.509382" lon="16.017518">
        <ele>41</ele>
        <time>2023-07-19T20:24:43Z</time>
      </trkpt>
      <trkpt lat="59.509408" lon="16.017487">
        <ele>41</ele>
        <time>2023-07-19T20:24:44Z</time>
      </trkpt>
      <trkpt lat="59.509431" lon="16.017455">
        <ele>41</ele>
        <time>2023-07-19T20:24:45Z</time>
      </trkpt>
      <trkpt lat="59.509455" lon="16.017423">
        <ele>42</ele>
        <time>2023-07-19T20:24:46Z</time>
      </trkpt>
      <trkpt lat="59.509477" lon="16.017388">
        <ele>42</ele>
        <time>2023-07-19T20:24:47Z</time>
      </trkpt>
      <trkpt lat="59.5095" lon="16.017354">
        <ele>42</ele>
        <time>2023-07-19T20:24:48Z</time>
      </trkpt>
      <trkpt lat="59.509526" lon="16.017314">
        <ele>42</ele>
        <time>2023-07-19T20:24:49Z</time>
      </trkpt>
      <trkpt lat="59.509552" lon="16.017274">
        <ele>42</ele>
        <time>2023-07-19T20:24:50Z</time>
      </trkpt>
      <trkpt lat="59.509581" lon="16.017228">
        <ele>43</ele>
        <time>2023-07-19T20:24:51Z</time>
      </trkpt>
      <trkpt lat="59.50961" lon="16.017182">
        <ele>43</ele>
        <time>2023-07-19T20:24:52Z</time>
      </trkpt>
      <trkpt lat="59.509635" lon="16.017131">
        <ele>43</ele>
        <time>2023-07-19T20:24:53Z</time>
      </trkpt>
      <trkpt lat="59.50966" lon="16.01708">
        <ele>43</ele>
        <time>2023-07-19T20:24:54Z</time>
      </trkpt>
      <trkpt lat="59.509681" lon="16.017026">
        <ele>43</ele>
        <time>2023-07-19T20:24:55Z</time>
      </trkpt>
      <trkpt lat="59.509702" lon="16.016973">
        <ele>43</ele>
        <time>2023-07-19T20:24:56Z</time>
      </trkpt>
      <trkpt lat="59.509719" lon="16.016924">
        <ele>43</ele>
        <time>2023-07-19T20:24:57Z</time>
      </trkpt>
      <trkpt lat="59.509737" lon="16.016875">
        <ele>43</ele>
        <time>2023-07-19T20:24:58Z</time>
      </trkpt>
      <trkpt lat="59.509751" lon="16.016839">
        <ele>43</ele>
        <time>2023-07-19T20:24:59Z</time>
      </trkpt>
      <trkpt lat="59.509766" lon="16.016803">
        <ele>43</ele>
        <time>2023-07-19T20:25:00Z</time>
      </trkpt>
      <trkpt lat="59.509779" lon="16.016774">
        <ele>44</ele>
        <time>2023-07-19T20:25:01Z</time>
      </trkpt>
      <trkpt lat="59.509792" lon="16.016744">
        <ele>44</ele>
        <time>2023-07-19T20:25:02Z</time>
      </trkpt>
      <trkpt lat="59.509806" lon="16.016713">
        <ele>44</ele>
        <time>2023-07-19T20:25:03Z</time>
      </trkpt>
      <trkpt lat="59.50982" lon="16.016681">
        <ele>44</ele>
        <time>2023-07-19T20:25:04Z</time>
      </trkpt>
      <trkpt lat="59.509834" lon="16.016641">
        <ele>44</ele>
        <time>2023-07-19T20:25:05Z</time>
      </trkpt>
      <trkpt lat="59.509848" lon="16.0166">
        <ele>44</ele>
        <time>2023-07-19T20:25:06Z</time>
      </trkpt>
      <trkpt lat="59.509862" lon="16.016553">
        <ele>44</ele>
        <time>2023-07-19T20:25:07Z</time>
      </trkpt>
      <trkpt lat="59.509876" lon="16.016505">
        <ele>44</ele>
        <time>2023-07-19T20:25:08Z</time>
      </trkpt>
      <trkpt lat="59.50989" lon="16.016454">
        <ele>44</ele>
        <time>2023-07-19T20:25:09Z</time>
      </trkpt>
      <trkpt lat="59.509904" lon="16.016403">
        <ele>44</ele>
        <time>2023-07-19T20:25:10Z</time>
      </trkpt>
      <trkpt lat="59.509916" lon="16.01635">
        <ele>44</ele>
        <time>2023-07-19T20:25:11Z</time>
      </trkpt>
      <trkpt lat="59.509929" lon="16.016298">
        <ele>44</ele>
        <time>2023-07-19T20:25:12Z</time>
      </trkpt>
      <trkpt lat="59.509941" lon="16.016247">
        <ele>44</ele>
        <time>2023-07-19T20:25:13Z</time>
      </trkpt>
      <trkpt lat="59.509953" lon="16.016197">
        <ele>44</ele>
        <time>2023-07-19T20:25:14Z</time>
      </trkpt>
      <trkpt lat="59.509968" lon="16.016148">
        <ele>44</ele>
        <time>2023-07-19T20:25:15Z</time>
      </trkpt>
      <trkpt lat="59.509983" lon="16.016099">
        <ele>44</ele>
        <time>2023-07-19T20:25:16Z</time>
      </trkpt>
      <trkpt lat="59.509998" lon="16.01605">
        <ele>44</ele>
        <time>2023-07-19T20:25:17Z</time>
      </trkpt>
      <trkpt lat="59.510014" lon="16.016002">
        <ele>44</ele>
        <time>2023-07-19T20:25:18Z</time>
      </trkpt>
      <trkpt lat="59.510029" lon="16.015952">
        <ele>44</ele>
        <time>2023-07-19T20:25:19Z</time>
      </trkpt>
      <trkpt lat="59.510044" lon="16.015902">
        <ele>44</ele>
        <time>2023-07-19T20:25:20Z</time>
      </trkpt>
      <trkpt lat="59.510058" lon="16.015851">
        <ele>44</ele>
        <time>2023-07-19T20:25:21Z</time>
      </trkpt>
      <trkpt lat="59.510073" lon="16.0158">
        <ele>44</ele>
        <time>2023-07-19T20:25:22Z</time>
      </trkpt>
      <trkpt lat="59.510085" lon="16.015751">
        <ele>44</ele>
        <time>2023-07-19T20:25:23Z</time>
      </trkpt>
      <trkpt lat="59.510098" lon="16.015703">
        <ele>44</ele>
        <time>2023-07-19T20:25:24Z</time>
      </trkpt>
      <trkpt lat="59.510109" lon="16.01566">
        <ele>44</ele>
        <time>2023-07-19T20:25:25Z</time>
      </trkpt>
      <trkpt lat="59.51012" lon="16.015617">
        <ele>44</ele>
        <time>2023-07-19T20:25:26Z</time>
      </trkpt>
      <trkpt lat="59.510132" lon="16.015574">
        <ele>44</ele>
        <time>2023-07-19T20:25:27Z</time>
      </trkpt>
      <trkpt lat="59.510143" lon="16.015531">
        <ele>44</ele>
        <time>2023-07-19T20:25:28Z</time>
      </trkpt>
      <trkpt lat="59.510155" lon="16.01548">
        <ele>44</ele>
        <time>2023-07-19T20:25:29Z</time>
      </trkpt>
      <trkpt lat="59.510167" lon="16.01543">
        <ele>44</ele>
        <time>2023-07-19T20:25:30Z</time>
      </trkpt>
      <trkpt lat="59.510178" lon="16.015367">
        <ele>44</ele>
        <time>2023-07-19T20:25:31Z</time>
      </trkpt>
      <trkpt lat="59.51019" lon="16.015304">
        <ele>43</ele>
        <time>2023-07-19T20:25:32Z</time>
      </trkpt>
      <trkpt lat="59.510202" lon="16.015237">
        <ele>43</ele>
        <time>2023-07-19T20:25:33Z</time>
      </trkpt>
      <trkpt lat="59.510214" lon="16.01517">
        <ele>43</ele>
        <time>2023-07-19T20:25:34Z</time>
      </trkpt>
      <trkpt lat="59.510226" lon="16.015112">
        <ele>43</ele>
        <time>2023-07-19T20:25:35Z</time>
      </trkpt>
      <trkpt lat="59.510238" lon="16.015054">
        <ele>43</ele>
        <time>2023-07-19T20:25:36Z</time>
      </trkpt>
      <trkpt lat="59.510253" lon="16.015006">
        <ele>43</ele>
        <time>2023-07-19T20:25:37Z</time>
      </trkpt>
      <trkpt lat="59.510268" lon="16.014957">
        <ele>43</ele>
        <time>2023-07-19T20:25:38Z</time>
      </trkpt>
      <trkpt lat="59.510284" lon="16.014913">
        <ele>43</ele>
        <time>2023-07-19T20:25:39Z</time>
      </trkpt>
      <trkpt lat="59.510301" lon="16.014869">
        <ele>43</ele>
        <time>2023-07-19T20:25:40Z</time>
      </trkpt>
      <trkpt lat="59.510316" lon="16.014827">
        <ele>43</ele>
        <time>2023-07-19T20:25:41Z</time>
      </trkpt>
      <trkpt lat="59.510332" lon="16.014784">
        <ele>43</ele>
        <time>2023-07-19T20:25:42Z</time>
      </trkpt>
      <trkpt lat="59.510345" lon="16.01474">
        <ele>43</ele>
        <time>2023-07-19T20:25:43Z</time>
      </trkpt>
      <trkpt lat="59.510358" lon="16.014696">
        <ele>43</ele>
        <time>2023-07-19T20:25:44Z</time>
      </trkpt>
      <trkpt lat="59.510369" lon="16.014654">
        <ele>43</ele>
        <time>2023-07-19T20:25:45Z</time>
      </trkpt>
      <trkpt lat="59.51038" lon="16.014613">
        <ele>43</ele>
        <time>2023-07-19T20:25:46Z</time>
      </trkpt>
      <trkpt lat="59.510391" lon="16.014571">
        <ele>43</ele>
        <time>2023-07-19T20:25:47Z</time>
      </trkpt>
      <trkpt lat="59.510402" lon="16.014529">
        <ele>43</ele>
        <time>2023-07-19T20:25:48Z</time>
      </trkpt>
      <trkpt lat="59.510415" lon="16.014489">
        <ele>43</ele>
        <time>2023-07-19T20:25:49Z</time>
      </trkpt>
      <trkpt lat="59.510429" lon="16.01445">
        <ele>43</ele>
        <time>2023-07-19T20:25:50Z</time>
      </trkpt>
      <trkpt lat="59.510444" lon="16.014412">
        <ele>43</ele>
        <time>2023-07-19T20:25:51Z</time>
      </trkpt>
      <trkpt lat="59.51046" lon="16.014375">
        <ele>43</ele>
        <time>2023-07-19T20:25:52Z</time>
      </trkpt>
      <trkpt lat="59.510474" lon="16.014334">
        <ele>43</ele>
        <time>2023-07-19T20:25:53Z</time>
      </trkpt>
      <trkpt lat="59.510487" lon="16.014293">
        <ele>43</ele>
        <time>2023-07-19T20:25:54Z</time>
      </trkpt>
      <trkpt lat="59.510497" lon="16.014245">
        <ele>43</ele>
        <time>2023-07-19T20:25:55Z</time>
      </trkpt>
      <trkpt lat="59.510506" lon="16.014197">
        <ele>43</ele>
        <time>2023-07-19T20:25:56Z</time>
      </trkpt>
      <trkpt lat="59.510514" lon="16.014142">
        <ele>43</ele>
        <time>2023-07-19T20:25:57Z</time>
      </trkpt>
      <trkpt lat="59.510521" lon="16.014086">
        <ele>43</ele>
        <time>2023-07-19T20:25:58Z</time>
      </trkpt>
      <trkpt lat="59.510529" lon="16.014031">
        <ele>43</ele>
        <time>2023-07-19T20:25:59Z</time>
      </trkpt>
      <trkpt lat="59.510538" lon="16.013976">
        <ele>43</ele>
        <time>2023-07-19T20:26:00Z</time>
      </trkpt>
      <trkpt lat="59.510547" lon="16.013923">
        <ele>43</ele>
        <time>2023-07-19T20:26:01Z</time>
      </trkpt>
      <trkpt lat="59.510557" lon="16.013871">
        <ele>43</ele>
        <time>2023-07-19T20:26:02Z</time>
      </trkpt>
      <trkpt lat="59.510567" lon="16.013825">
        <ele>43</ele>
        <time>2023-07-19T20:26:03Z</time>
      </trkpt>
      <trkpt lat="59.510578" lon="16.013779">
        <ele>43</ele>
        <time>2023-07-19T20:26:04Z</time>
      </trkpt>
      <trkpt lat="59.510589" lon="16.013737">
        <ele>43</ele>
        <time>2023-07-19T20:26:05Z</time>
      </trkpt>
      <trkpt lat="59.5106" lon="16.013694">
        <ele>43</ele>
        <time>2023-07-19T20:26:06Z</time>
      </trkpt>
      <trkpt lat="59.510611" lon="16.013653">
        <ele>43</ele>
        <time>2023-07-19T20:26:07Z</time>
      </trkpt>
      <trkpt lat="59.510623" lon="16.013612">
        <ele>43</ele>
        <time>2023-07-19T20:26:08Z</time>
      </trkpt>
      <trkpt lat="59.510633" lon="16.01357">
        <ele>43</ele>
        <time>2023-07-19T20:26:09Z</time>
      </trkpt>
      <trkpt lat="59.510644" lon="16.013528">
        <ele>43</ele>
        <time>2023-07-19T20:26:10Z</time>
      </trkpt>
      <trkpt lat="59.510654" lon="16.013483">
        <ele>43</ele>
        <time>2023-07-19T20:26:11Z</time>
      </trkpt>
      <trkpt lat="59.510665" lon="16.013438">
        <ele>43</ele>
        <time>2023-07-19T20:26:12Z</time>
      </trkpt>
      <trkpt lat="59.510678" lon="16.013391">
        <ele>43</ele>
        <time>2023-07-19T20:26:13Z</time>
      </trkpt>
      <trkpt lat="59.51069" lon="16.013344">
        <ele>43</ele>
        <time>2023-07-19T20:26:14Z</time>
      </trkpt>
      <trkpt lat="59.510703" lon="16.013295">
        <ele>43</ele>
        <time>2023-07-19T20:26:15Z</time>
      </trkpt>
      <trkpt lat="59.510716" lon="16.013247">
        <ele>43</ele>
        <time>2023-07-19T20:26:16Z</time>
      </trkpt>
      <trkpt lat="59.510727" lon="16.013198">
        <ele>42</ele>
        <time>2023-07-19T20:26:17Z</time>
      </trkpt>
      <trkpt lat="59.510739" lon="16.013149">
        <ele>42</ele>
        <time>2023-07-19T20:26:18Z</time>
      </trkpt>
      <trkpt lat="59.510749" lon="16.0131">
        <ele>42</ele>
        <time>2023-07-19T20:26:19Z</time>
      </trkpt>
      <trkpt lat="59.510759" lon="16.01305">
        <ele>42</ele>
        <time>2023-07-19T20:26:20Z</time>
      </trkpt>
      <trkpt lat="59.510768" lon="16.013004">
        <ele>42</ele>
        <time>2023-07-19T20:26:21Z</time>
      </trkpt>
      <trkpt lat="59.510777" lon="16.012958">
        <ele>42</ele>
        <time>2023-07-19T20:26:22Z</time>
      </trkpt>
      <trkpt lat="59.510785" lon="16.012914">
        <ele>42</ele>
        <time>2023-07-19T20:26:23Z</time>
      </trkpt>
      <trkpt lat="59.510793" lon="16.012871">
        <ele>42</ele>
        <time>2023-07-19T20:26:24Z</time>
      </trkpt>
      <trkpt lat="59.510798" lon="16.012828">
        <ele>42</ele>
        <time>2023-07-19T20:26:25Z</time>
      </trkpt>
      <trkpt lat="59.510802" lon="16.012786">
        <ele>42</ele>
        <time>2023-07-19T20:26:26Z</time>
      </trkpt>
      <trkpt lat="59.510803" lon="16.01274">
        <ele>42</ele>
        <time>2023-07-19T20:26:27Z</time>
      </trkpt>
      <trkpt lat="59.510805" lon="16.012694">
        <ele>42</ele>
        <time>2023-07-19T20:26:28Z</time>
      </trkpt>
      <trkpt lat="59.510803" lon="16.012644">
        <ele>42</ele>
        <time>2023-07-19T20:26:29Z</time>
      </trkpt>
      <trkpt lat="59.510802" lon="16.012593">
        <ele>42</ele>
        <time>2023-07-19T20:26:30Z</time>
      </trkpt>
      <trkpt lat="59.510798" lon="16.01254">
        <ele>42</ele>
        <time>2023-07-19T20:26:31Z</time>
      </trkpt>
      <trkpt lat="59.510794" lon="16.012487">
        <ele>42</ele>
        <time>2023-07-19T20:26:32Z</time>
      </trkpt>
      <trkpt lat="59.510789" lon="16.012431">
        <ele>42</ele>
        <time>2023-07-19T20:26:33Z</time>
      </trkpt>
      <trkpt lat="59.510784" lon="16.012375">
        <ele>42</ele>
        <time>2023-07-19T20:26:34Z</time>
      </trkpt>
      <trkpt lat="59.510779" lon="16.012317">
        <ele>42</ele>
        <time>2023-07-19T20:26:35Z</time>
      </trkpt>
      <trkpt lat="59.510775" lon="16.012259">
        <ele>42</ele>
        <time>2023-07-19T20:26:36Z</time>
      </trkpt>
      <trkpt lat="59.51077" lon="16.012202">
        <ele>42</ele>
        <time>2023-07-19T20:26:37Z</time>
      </trkpt>
      <trkpt lat="59.510766" lon="16.012145">
        <ele>42</ele>
        <time>2023-07-19T20:26:38Z</time>
      </trkpt>
      <trkpt lat="59.510762" lon="16.012088">
        <ele>42</ele>
        <time>2023-07-19T20:26:39Z</time>
      </trkpt>
      <trkpt lat="59.510758" lon="16.012031">
        <ele>42</ele>
        <time>2023-07-19T20:26:40Z</time>
      </trkpt>
      <trkpt lat="59.510755" lon="16.011974">
        <ele>42</ele>
        <time>2023-07-19T20:26:41Z</time>
      </trkpt>
      <trkpt lat="59.510752" lon="16.011916">
        <ele>42</ele>
        <time>2023-07-19T20:26:42Z</time>
      </trkpt>
      <trkpt lat="59.51075" lon="16.011857">
        <ele>42</ele>
        <time>2023-07-19T20:26:43Z</time>
      </trkpt>
      <trkpt lat="59.510748" lon="16.011798">
        <ele>42</ele>
        <time>2023-07-19T20:26:44Z</time>
      </trkpt>
      <trkpt lat="59.510743" lon="16.011736">
        <ele>42</ele>
        <time>2023-07-19T20:26:45Z</time>
      </trkpt>
      <trkpt lat="59.510738" lon="16.011673">
        <ele>42</ele>
        <time>2023-07-19T20:26:46Z</time>
      </trkpt>
      <trkpt lat="59.510724" lon="16.011601">
        <ele>41</ele>
        <time>2023-07-19T20:26:47Z</time>
      </trkpt>
      <trkpt lat="59.51071" lon="16.01153">
        <ele>41</ele>
        <time>2023-07-19T20:26:48Z</time>
      </trkpt>
      <trkpt lat="59.510693" lon="16.011459">
        <ele>41</ele>
        <time>2023-07-19T20:26:49Z</time>
      </trkpt>
      <trkpt lat="59.510676" lon="16.011389">
        <ele>41</ele>
        <time>2023-07-19T20:26:50Z</time>
      </trkpt>
      <trkpt lat="59.510662" lon="16.011326">
        <ele>41</ele>
        <time>2023-07-19T20:26:51Z</time>
      </trkpt>
      <trkpt lat="59.510648" lon="16.011263">
        <ele>41</ele>
        <time>2023-07-19T20:26:52Z</time>
      </trkpt>
      <trkpt lat="59.510638" lon="16.011207">
        <ele>41</ele>
        <time>2023-07-19T20:26:53Z</time>
      </trkpt>
      <trkpt lat="59.510628" lon="16.011151">
        <ele>41</ele>
        <time>2023-07-19T20:26:54Z</time>
      </trkpt>
      <trkpt lat="59.510619" lon="16.011093">
        <ele>41</ele>
        <time>2023-07-19T20:26:55Z</time>
      </trkpt>
      <trkpt lat="59.51061" lon="16.011036">
        <ele>41</ele>
        <time>2023-07-19T20:26:56Z</time>
      </trkpt>
      <trkpt lat="59.510603" lon="16.010979">
        <ele>41</ele>
        <time>2023-07-19T20:26:57Z</time>
      </trkpt>
      <trkpt lat="59.510596" lon="16.010922">
        <ele>41</ele>
        <time>2023-07-19T20:26:58Z</time>
      </trkpt>
      <trkpt lat="59.510588" lon="16.010867">
        <ele>41</ele>
        <time>2023-07-19T20:26:59Z</time>
      </trkpt>
      <trkpt lat="59.51058" lon="16.010812">
        <ele>41</ele>
        <time>2023-07-19T20:27:00Z</time>
      </trkpt>
      <trkpt lat="59.51057" lon="16.010755">
        <ele>41</ele>
        <time>2023-07-19T20:27:01Z</time>
      </trkpt>
      <trkpt lat="59.510559" lon="16.010698">
        <ele>41</ele>
        <time>2023-07-19T20:27:02Z</time>
      </trkpt>
      <trkpt lat="59.510551" lon="16.010639">
        <ele>41</ele>
        <time>2023-07-19T20:27:03Z</time>
      </trkpt>
      <trkpt lat="59.510543" lon="16.010581">
        <ele>41</ele>
        <time>2023-07-19T20:27:04Z</time>
      </trkpt>
      <trkpt lat="59.510537" lon="16.010518">
        <ele>41</ele>
        <time>2023-07-19T20:27:05Z</time>
      </trkpt>
      <trkpt lat="59.510531" lon="16.010455">
        <ele>41</ele>
        <time>2023-07-19T20:27:06Z</time>
      </trkpt>
      <trkpt lat="59.510526" lon="16.010393">
        <ele>41</ele>
        <time>2023-07-19T20:27:07Z</time>
      </trkpt>
      <trkpt lat="59.510521" lon="16.010331">
        <ele>41</ele>
        <time>2023-07-19T20:27:08Z</time>
      </trkpt>
      <trkpt lat="59.510518" lon="16.010277">
        <ele>41</ele>
        <time>2023-07-19T20:27:09Z</time>
      </trkpt>
      <trkpt lat="59.510515" lon="16.010223">
        <ele>41</ele>
        <time>2023-07-19T20:27:10Z</time>
      </trkpt>
      <trkpt lat="59.510515" lon="16.010176">
        <ele>41</ele>
        <time>2023-07-19T20:27:11Z</time>
      </trkpt>
      <trkpt lat="59.510514" lon="16.010129">
        <ele>41</ele>
        <time>2023-07-19T20:27:12Z</time>
      </trkpt>
      <trkpt lat="59.510512" lon="16.010084">
        <ele>41</ele>
        <time>2023-07-19T20:27:13Z</time>
      </trkpt>
      <trkpt lat="59.510511" lon="16.010039">
        <ele>41</ele>
        <time>2023-07-19T20:27:14Z</time>
      </trkpt>
      <trkpt lat="59.510508" lon="16.009992">
        <ele>41</ele>
        <time>2023-07-19T20:27:15Z</time>
      </trkpt>
      <trkpt lat="59.510505" lon="16.009945">
        <ele>41</ele>
        <time>2023-07-19T20:27:16Z</time>
      </trkpt>
      <trkpt lat="59.510501" lon="16.009896">
        <ele>41</ele>
        <time>2023-07-19T20:27:17Z</time>
      </trkpt>
      <trkpt lat="59.510496" lon="16.009848">
        <ele>41</ele>
        <time>2023-07-19T20:27:18Z</time>
      </trkpt>
      <trkpt lat="59.510491" lon="16.009797">
        <ele>41</ele>
        <time>2023-07-19T20:27:19Z</time>
      </trkpt>
      <trkpt lat="59.510485" lon="16.009747">
        <ele>41</ele>
        <time>2023-07-19T20:27:20Z</time>
      </trkpt>
      <trkpt lat="59.510477" lon="16.009696">
        <ele>41</ele>
        <time>2023-07-19T20:27:21Z</time>
      </trkpt>
      <trkpt lat="59.51047" lon="16.009645">
        <ele>41</ele>
        <time>2023-07-19T20:27:22Z</time>
      </trkpt>
      <trkpt lat="59.510462" lon="16.009593">
        <ele>41</ele>
        <time>2023-07-19T20:27:23Z</time>
      </trkpt>
      <trkpt lat="59.510454" lon="16.00954">
        <ele>41</ele>
        <time>2023-07-19T20:27:24Z</time>
      </trkpt>
      <trkpt lat="59.51045" lon="16.009482">
        <ele>41</ele>
        <time>2023-07-19T20:27:25Z</time>
      </trkpt>
      <trkpt lat="59.510445" lon="16.009423">
        <ele>41</ele>
        <time>2023-07-19T20:27:26Z</time>
      </trkpt>
      <trkpt lat="59.510441" lon="16.009357">
        <ele>41</ele>
        <time>2023-07-19T20:27:27Z</time>
      </trkpt>
      <trkpt lat="59.510437" lon="16.00929">
        <ele>41</ele>
        <time>2023-07-19T20:27:28Z</time>
      </trkpt>
      <trkpt lat="59.510434" lon="16.009223">
        <ele>41</ele>
        <time>2023-07-19T20:27:29Z</time>
      </trkpt>
      <trkpt lat="59.510431" lon="16.009156">
        <ele>41</ele>
        <time>2023-07-19T20:27:30Z</time>
      </trkpt>
      <trkpt lat="59.51043" lon="16.009091">
        <ele>41</ele>
        <time>2023-07-19T20:27:31Z</time>
      </trkpt>
      <trkpt lat="59.510429" lon="16.009027">
        <ele>41</ele>
        <time>2023-07-19T20:27:32Z</time>
      </trkpt>
      <trkpt lat="59.51043" lon="16.008965">
        <ele>41</ele>
        <time>2023-07-19T20:27:33Z</time>
      </trkpt>
      <trkpt lat="59.510432" lon="16.008903">
        <ele>41</ele>
        <time>2023-07-19T20:27:34Z</time>
      </trkpt>
      <trkpt lat="59.510434" lon="16.008844">
        <ele>41</ele>
        <time>2023-07-19T20:27:35Z</time>
      </trkpt>
      <trkpt lat="59.510437" lon="16.008785">
        <ele>41</ele>
        <time>2023-07-19T20:27:36Z</time>
      </trkpt>
      <trkpt lat="59.510439" lon="16.008727">
        <ele>41</ele>
        <time>2023-07-19T20:27:37Z</time>
      </trkpt>
      <trkpt lat="59.510441" lon="16.008669">
        <ele>41</ele>
        <time>2023-07-19T20:27:38Z</time>
      </trkpt>
      <trkpt lat="59.51044" lon="16.008616">
        <ele>41</ele>
        <time>2023-07-19T20:27:39Z</time>
      </trkpt>
      <trkpt lat="59.510439" lon="16.008564">
        <ele>41</ele>
        <time>2023-07-19T20:27:40Z</time>
      </trkpt>
      <trkpt lat="59.510431" lon="16.008518">
        <ele>41</ele>
        <time>2023-07-19T20:27:41Z</time>
      </trkpt>
      <trkpt lat="59.510423" lon="16.008472">
        <ele>41</ele>
        <time>2023-07-19T20:27:42Z</time>
      </trkpt>
      <trkpt lat="59.510408" lon="16.008431">
        <ele>41</ele>
        <time>2023-07-19T20:27:43Z</time>
      </trkpt>
      <trkpt lat="59.510394" lon="16.00839">
        <ele>41</ele>
        <time>2023-07-19T20:27:44Z</time>
      </trkpt>
      <trkpt lat="59.510373" lon="16.008356">
        <ele>41</ele>
        <time>2023-07-19T20:27:45Z</time>
      </trkpt>
      <trkpt lat="59.510352" lon="16.008322">
        <ele>41</ele>
        <time>2023-07-19T20:27:46Z</time>
      </trkpt>
      <trkpt lat="59.510324" lon="16.008291">
        <ele>41</ele>
        <time>2023-07-19T20:27:47Z</time>
      </trkpt>
      <trkpt lat="59.510296" lon="16.008259">
        <ele>41</ele>
        <time>2023-07-19T20:27:48Z</time>
      </trkpt>
      <trkpt lat="59.510265" lon="16.008228">
        <ele>41</ele>
        <time>2023-07-19T20:27:49Z</time>
      </trkpt>
      <trkpt lat="59.510233" lon="16.008197">
        <ele>41</ele>
        <time>2023-07-19T20:27:50Z</time>
      </trkpt>
      <trkpt lat="59.510204" lon="16.008161">
        <ele>41</ele>
        <time>2023-07-19T20:27:51Z</time>
      </trkpt>
      <trkpt lat="59.510174" lon="16.008125">
        <ele>41</ele>
        <time>2023-07-19T20:27:52Z</time>
      </trkpt>
      <trkpt lat="59.510152" lon="16.008085">
        <ele>41</ele>
        <time>2023-07-19T20:27:53Z</time>
      </trkpt>
      <trkpt lat="59.51013" lon="16.008044">
        <ele>41</ele>
        <time>2023-07-19T20:27:54Z</time>
      </trkpt>
      <trkpt lat="59.510111" lon="16.008011">
        <ele>41</ele>
        <time>2023-07-19T20:27:55Z</time>
      </trkpt>
      <trkpt lat="59.510093" lon="16.007977">
        <ele>41</ele>
        <time>2023-07-19T20:27:56Z</time>
      </trkpt>
      <trkpt lat="59.510073" lon="16.007961">
        <ele>40</ele>
        <time>2023-07-19T20:27:57Z</time>
      </trkpt>
      <trkpt lat="59.510053" lon="16.007945">
        <ele>40</ele>
        <time>2023-07-19T20:27:58Z</time>
      </trkpt>
      <trkpt lat="59.510025" lon="16.007947">
        <ele>40</ele>
        <time>2023-07-19T20:27:59Z</time>
      </trkpt>
      <trkpt lat="59.509998" lon="16.007948">
        <ele>40</ele>
        <time>2023-07-19T20:28:00Z</time>
      </trkpt>
      <trkpt lat="59.509968" lon="16.007947">
        <ele>40</ele>
        <time>2023-07-19T20:28:01Z</time>
      </trkpt>
      <trkpt lat="59.509938" lon="16.007946">
        <ele>40</ele>
        <time>2023-07-19T20:28:02Z</time>
      </trkpt>
      <trkpt lat="59.50991" lon="16.007935">
        <ele>40</ele>
        <time>2023-07-19T20:28:03Z</time>
      </trkpt>
      <trkpt lat="59.509881" lon="16.007925">
        <ele>40</ele>
        <time>2023-07-19T20:28:04Z</time>
      </trkpt>
      <trkpt lat="59.509857" lon="16.00791">
        <ele>40</ele>
        <time>2023-07-19T20:28:05Z</time>
      </trkpt>
      <trkpt lat="59.509832" lon="16.007896">
        <ele>40</ele>
        <time>2023-07-19T20:28:06Z</time>
      </trkpt>
      <trkpt lat="59.509811" lon="16.007884">
        <ele>40</ele>
        <time>2023-07-19T20:28:07Z</time>
      </trkpt>
      <trkpt lat="59.509791" lon="16.007872">
        <ele>40</ele>
        <time>2023-07-19T20:28:08Z</time>
      </trkpt>
      <trkpt lat="59.50977" lon="16.007866">
        <ele>40</ele>
        <time>2023-07-19T20:28:09Z</time>
      </trkpt>
      <trkpt lat="59.509749" lon="16.00786">
        <ele>40</ele>
        <time>2023-07-19T20:28:10Z</time>
      </trkpt>
      <trkpt lat="59.509726" lon="16.007864">
        <ele>40</ele>
        <time>2023-07-19T20:28:11Z</time>
      </trkpt>
      <trkpt lat="59.509703" lon="16.007868">
        <ele>39</ele>
        <time>2023-07-19T20:28:12Z</time>
      </trkpt>
      <trkpt lat="59.509678" lon="16.007878">
        <ele>39</ele>
        <time>2023-07-19T20:28:13Z</time>
      </trkpt>
      <trkpt lat="59.509652" lon="16.007889">
        <ele>39</ele>
        <time>2023-07-19T20:28:14Z</time>
      </trkpt>
      <trkpt lat="59.509623" lon="16.007907">
        <ele>39</ele>
        <time>2023-07-19T20:28:15Z</time>
      </trkpt>
      <trkpt lat="59.509594" lon="16.007925">
        <ele>39</ele>
        <time>2023-07-19T20:28:16Z</time>
      </trkpt>
      <trkpt lat="59.509566" lon="16.00795">
        <ele>39</ele>
        <time>2023-07-19T20:28:17Z</time>
      </trkpt>
      <trkpt lat="59.509539" lon="16.007974">
        <ele>39</ele>
        <time>2023-07-19T20:28:18Z</time>
      </trkpt>
      <trkpt lat="59.509513" lon="16.008001">
        <ele>39</ele>
        <time>2023-07-19T20:28:19Z</time>
      </trkpt>
      <trkpt lat="59.509488" lon="16.008027">
        <ele>39</ele>
        <time>2023-07-19T20:28:20Z</time>
      </trkpt>
      <trkpt lat="59.509464" lon="16.00805">
        <ele>39</ele>
        <time>2023-07-19T20:28:21Z</time>
      </trkpt>
      <trkpt lat="59.50944" lon="16.008074">
        <ele>39</ele>
        <time>2023-07-19T20:28:22Z</time>
      </trkpt>
      <trkpt lat="59.509417" lon="16.008094">
        <ele>39</ele>
        <time>2023-07-19T20:28:23Z</time>
      </trkpt>
      <trkpt lat="59.509395" lon="16.008113">
        <ele>39</ele>
        <time>2023-07-19T20:28:24Z</time>
      </trkpt>
      <trkpt lat="59.509371" lon="16.00813">
        <ele>39</ele>
        <time>2023-07-19T20:28:25Z</time>
      </trkpt>
      <trkpt lat="59.509348" lon="16.008147">
        <ele>39</ele>
        <time>2023-07-19T20:28:26Z</time>
      </trkpt>
      <trkpt lat="59.509324" lon="16.008161">
        <ele>39</ele>
        <time>2023-07-19T20:28:27Z</time>
      </trkpt>
      <trkpt lat="59.509299" lon="16.008175">
        <ele>39</ele>
        <time>2023-07-19T20:28:28Z</time>
      </trkpt>
      <trkpt lat="59.509273" lon="16.008187">
        <ele>39</ele>
        <time>2023-07-19T20:28:29Z</time>
      </trkpt>
      <trkpt lat="59.509247" lon="16.0082">
        <ele>39</ele>
        <time>2023-07-19T20:28:30Z</time>
      </trkpt>
      <trkpt lat="59.509224" lon="16.008209">
        <ele>39</ele>
        <time>2023-07-19T20:28:31Z</time>
      </trkpt>
      <trkpt lat="59.509201" lon="16.008219">
        <ele>38</ele>
        <time>2023-07-19T20:28:32Z</time>
      </trkpt>
      <trkpt lat="59.50918" lon="16.008229">
        <ele>38</ele>
        <time>2023-07-19T20:28:33Z</time>
      </trkpt>
      <trkpt lat="59.509159" lon="16.008239">
        <ele>38</ele>
        <time>2023-07-19T20:28:34Z</time>
      </trkpt>
      <trkpt lat="59.50914" lon="16.008248">
        <ele>38</ele>
        <time>2023-07-19T20:28:35Z</time>
      </trkpt>
      <trkpt lat="59.50912" lon="16.008258">
        <ele>38</ele>
        <time>2023-07-19T20:28:36Z</time>
      </trkpt>
      <trkpt lat="59.509101" lon="16.008269">
        <ele>38</ele>
        <time>2023-07-19T20:28:37Z</time>
      </trkpt>
      <trkpt lat="59.509081" lon="16.00828">
        <ele>38</ele>
        <time>2023-07-19T20:28:38Z</time>
      </trkpt>
      <trkpt lat="59.509061" lon="16.008291">
        <ele>38</ele>
        <time>2023-07-19T20:28:39Z</time>
      </trkpt>
      <trkpt lat="59.50904" lon="16.008302">
        <ele>38</ele>
        <time>2023-07-19T20:28:40Z</time>
      </trkpt>
      <trkpt lat="59.509016" lon="16.008317">
        <ele>38</ele>
        <time>2023-07-19T20:28:41Z</time>
      </trkpt>
      <trkpt lat="59.508992" lon="16.008332">
        <ele>38</ele>
        <time>2023-07-19T20:28:42Z</time>
      </trkpt>
      <trkpt lat="59.508962" lon="16.008348">
        <ele>38</ele>
        <time>2023-07-19T20:28:43Z</time>
      </trkpt>
      <trkpt lat="59.508933" lon="16.008365">
        <ele>38</ele>
        <time>2023-07-19T20:28:44Z</time>
      </trkpt>
      <trkpt lat="59.508905" lon="16.008381">
        <ele>38</ele>
        <time>2023-07-19T20:28:45Z</time>
      </trkpt>
      <trkpt lat="59.508876" lon="16.008398">
        <ele>38</ele>
        <time>2023-07-19T20:28:46Z</time>
      </trkpt>
      <trkpt lat="59.508854" lon="16.008415">
        <ele>37</ele>
        <time>2023-07-19T20:28:47Z</time>
      </trkpt>
      <trkpt lat="59.508831" lon="16.008432">
        <ele>37</ele>
        <time>2023-07-19T20:28:48Z</time>
      </trkpt>
      <trkpt lat="59.508811" lon="16.008451">
        <ele>37</ele>
        <time>2023-07-19T20:28:49Z</time>
      </trkpt>
      <trkpt lat="59.50879" lon="16.00847">
        <ele>37</ele>
        <time>2023-07-19T20:28:50Z</time>
      </trkpt>
      <trkpt lat="59.508764" lon="16.008496">
        <ele>37</ele>
        <time>2023-07-19T20:28:51Z</time>
      </trkpt>
      <trkpt lat="59.508737" lon="16.008522">
        <ele>37</ele>
        <time>2023-07-19T20:28:52Z</time>
      </trkpt>
      <trkpt lat="59.508707" lon="16.008552">
        <ele>37</ele>
        <time>2023-07-19T20:28:53Z</time>
      </trkpt>
      <trkpt lat="59.508676" lon="16.008583">
        <ele>37</ele>
        <time>2023-07-19T20:28:54Z</time>
      </trkpt>
      <trkpt lat="59.50864" lon="16.008611">
        <ele>37</ele>
        <time>2023-07-19T20:28:55Z</time>
      </trkpt>
      <trkpt lat="59.508605" lon="16.008639">
        <ele>37</ele>
        <time>2023-07-19T20:28:56Z</time>
      </trkpt>
      <trkpt lat="59.508573" lon="16.008662">
        <ele>36</ele>
        <time>2023-07-19T20:28:57Z</time>
      </trkpt>
      <trkpt lat="59.508542" lon="16.008686">
        <ele>36</ele>
        <time>2023-07-19T20:28:58Z</time>
      </trkpt>
      <trkpt lat="59.508517" lon="16.008705">
        <ele>35</ele>
        <time>2023-07-19T20:28:59Z</time>
      </trkpt>
      <trkpt lat="59.508493" lon="16.008724">
        <ele>35</ele>
        <time>2023-07-19T20:29:00Z</time>
      </trkpt>
      <trkpt lat="59.50847" lon="16.008744">
        <ele>35</ele>
        <time>2023-07-19T20:29:01Z</time>
      </trkpt>
      <trkpt lat="59.508447" lon="16.008764">
        <ele>34</ele>
        <time>2023-07-19T20:29:02Z</time>
      </trkpt>
      <trkpt lat="59.508427" lon="16.008792">
        <ele>34</ele>
        <time>2023-07-19T20:29:03Z</time>
      </trkpt>
      <trkpt lat="59.508408" lon="16.008819">
        <ele>34</ele>
        <time>2023-07-19T20:29:04Z</time>
      </trkpt>
      <trkpt lat="59.50839" lon="16.008857">
        <ele>34</ele>
        <time>2023-07-19T20:29:05Z</time>
      </trkpt>
      <trkpt lat="59.508373" lon="16.008895">
        <ele>34</ele>
        <time>2023-07-19T20:29:06Z</time>
      </trkpt>
      <trkpt lat="59.508356" lon="16.008946">
        <ele>33</ele>
        <time>2023-07-19T20:29:07Z</time>
      </trkpt>
      <trkpt lat="59.508339" lon="16.008996">
        <ele>33</ele>
        <time>2023-07-19T20:29:08Z</time>
      </trkpt>
      <trkpt lat="59.508319" lon="16.009058">
        <ele>33</ele>
        <time>2023-07-19T20:29:09Z</time>
      </trkpt>
      <trkpt lat="59.508298" lon="16.009119">
        <ele>33</ele>
        <time>2023-07-19T20:29:10Z</time>
      </trkpt>
      <trkpt lat="59.508276" lon="16.009182">
        <ele>33</ele>
        <time>2023-07-19T20:29:11Z</time>
      </trkpt>
      <trkpt lat="59.508253" lon="16.009245">
        <ele>33</ele>
        <time>2023-07-19T20:29:12Z</time>
      </trkpt>
      <trkpt lat="59.508232" lon="16.009297">
        <ele>33</ele>
        <time>2023-07-19T20:29:13Z</time>
      </trkpt>
      <trkpt lat="59.50821" lon="16.009349">
        <ele>33</ele>
        <time>2023-07-19T20:29:14Z</time>
      </trkpt>
      <trkpt lat="59.508191" lon="16.009392">
        <ele>33</ele>
        <time>2023-07-19T20:29:15Z</time>
      </trkpt>
      <trkpt lat="59.508172" lon="16.009436">
        <ele>33</ele>
        <time>2023-07-19T20:29:16Z</time>
      </trkpt>
      <trkpt lat="59.508155" lon="16.009476">
        <ele>32</ele>
        <time>2023-07-19T20:29:17Z</time>
      </trkpt>
      <trkpt lat="59.508138" lon="16.009516">
        <ele>32</ele>
        <time>2023-07-19T20:29:18Z</time>
      </trkpt>
      <trkpt lat="59.508113" lon="16.009572">
        <ele>32</ele>
        <time>2023-07-19T20:29:19Z</time>
      </trkpt>
      <trkpt lat="59.508088" lon="16.009628">
        <ele>32</ele>
        <time>2023-07-19T20:29:20Z</time>
      </trkpt>
      <trkpt lat="59.508062" lon="16.009695">
        <ele>32</ele>
        <time>2023-07-19T20:29:21Z</time>
      </trkpt>
      <trkpt lat="59.508036" lon="16.009762">
        <ele>32</ele>
        <time>2023-07-19T20:29:22Z</time>
      </trkpt>
      <trkpt lat="59.508016" lon="16.009826">
        <ele>32</ele>
        <time>2023-07-19T20:29:23Z</time>
      </trkpt>
      <trkpt lat="59.507997" lon="16.009891">
        <ele>32</ele>
        <time>2023-07-19T20:29:24Z</time>
      </trkpt>
      <trkpt lat="59.507983" lon="16.009949">
        <ele>32</ele>
        <time>2023-07-19T20:29:25Z</time>
      </trkpt>
      <trkpt lat="59.50797" lon="16.010007">
        <ele>32</ele>
        <time>2023-07-19T20:29:26Z</time>
      </trkpt>
      <trkpt lat="59.507958" lon="16.01005">
        <ele>32</ele>
        <time>2023-07-19T20:29:27Z</time>
      </trkpt>
      <trkpt lat="59.507947" lon="16.010094">
        <ele>32</ele>
        <time>2023-07-19T20:29:28Z</time>
      </trkpt>
      <trkpt lat="59.507937" lon="16.010132">
        <ele>32</ele>
        <time>2023-07-19T20:29:29Z</time>
      </trkpt>
      <trkpt lat="59.507927" lon="16.01017">
        <ele>32</ele>
        <time>2023-07-19T20:29:30Z</time>
      </trkpt>
      <trkpt lat="59.507922" lon="16.010212">
        <ele>32</ele>
        <time>2023-07-19T20:29:31Z</time>
      </trkpt>
      <trkpt lat="59.507917" lon="16.010255">
        <ele>31</ele>
        <time>2023-07-19T20:29:32Z</time>
      </trkpt>
      <trkpt lat="59.507915" lon="16.0103">
        <ele>31</ele>
        <time>2023-07-19T20:29:33Z</time>
      </trkpt>
      <trkpt lat="59.507912" lon="16.010345">
        <ele>31</ele>
        <time>2023-07-19T20:29:34Z</time>
      </trkpt>
      <trkpt lat="59.50791" lon="16.01039">
        <ele>31</ele>
        <time>2023-07-19T20:29:35Z</time>
      </trkpt>
      <trkpt lat="59.507908" lon="16.010436">
        <ele>31</ele>
        <time>2023-07-19T20:29:36Z</time>
      </trkpt>
      <trkpt lat="59.507904" lon="16.010483">
        <ele>31</ele>
        <time>2023-07-19T20:29:37Z</time>
      </trkpt>
      <trkpt lat="59.507901" lon="16.010531">
        <ele>31</ele>
        <time>2023-07-19T20:29:38Z</time>
      </trkpt>
      <trkpt lat="59.507897" lon="16.010584">
        <ele>31</ele>
        <time>2023-07-19T20:29:39Z</time>
      </trkpt>
      <trkpt lat="59.507894" lon="16.010637">
        <ele>31</ele>
        <time>2023-07-19T20:29:40Z</time>
      </trkpt>
      <trkpt lat="59.507891" lon="16.010696">
        <ele>31</ele>
        <time>2023-07-19T20:29:41Z</time>
      </trkpt>
      <trkpt lat="59.507888" lon="16.010755">
        <ele>31</ele>
        <time>2023-07-19T20:29:42Z</time>
      </trkpt>
      <trkpt lat="59.507887" lon="16.010815">
        <ele>31</ele>
        <time>2023-07-19T20:29:43Z</time>
      </trkpt>
      <trkpt lat="59.507886" lon="16.010876">
        <ele>31</ele>
        <time>2023-07-19T20:29:44Z</time>
      </trkpt>
      <trkpt lat="59.507886" lon="16.010933">
        <ele>31</ele>
        <time>2023-07-19T20:29:45Z</time>
      </trkpt>
      <trkpt lat="59.507887" lon="16.010991">
        <ele>32</ele>
        <time>2023-07-19T20:29:46Z</time>
      </trkpt>
      <trkpt lat="59.507888" lon="16.01104">
        <ele>32</ele>
        <time>2023-07-19T20:29:47Z</time>
      </trkpt>
      <trkpt lat="59.50789" lon="16.011089">
        <ele>32</ele>
        <time>2023-07-19T20:29:48Z</time>
      </trkpt>
      <trkpt lat="59.507893" lon="16.011143">
        <ele>32</ele>
        <time>2023-07-19T20:29:49Z</time>
      </trkpt>
      <trkpt lat="59.507896" lon="16.011197">
        <ele>32</ele>
        <time>2023-07-19T20:29:50Z</time>
      </trkpt>
      <trkpt lat="59.507898" lon="16.011274">
        <ele>32</ele>
        <time>2023-07-19T20:29:51Z</time>
      </trkpt>
      <trkpt lat="59.507899" lon="16.011351">
        <ele>32</ele>
        <time>2023-07-19T20:29:52Z</time>
      </trkpt>
      <trkpt lat="59.507896" lon="16.011428">
        <ele>32</ele>
        <time>2023-07-19T20:29:53Z</time>
      </trkpt>
      <trkpt lat="59.507894" lon="16.011505">
        <ele>32</ele>
        <time>2023-07-19T20:29:54Z</time>
      </trkpt>
      <trkpt lat="59.507891" lon="16.011566">
        <ele>32</ele>
        <time>2023-07-19T20:29:55Z</time>
      </trkpt>
      <trkpt lat="59.507888" lon="16.011627">
        <ele>32</ele>
        <time>2023-07-19T20:29:56Z</time>
      </trkpt>
      <trkpt lat="59.507886" lon="16.011674">
        <ele>32</ele>
        <time>2023-07-19T20:29:57Z</time>
      </trkpt>
      <trkpt lat="59.507884" lon="16.011721">
        <ele>32</ele>
        <time>2023-07-19T20:29:58Z</time>
      </trkpt>
      <trkpt lat="59.507881" lon="16.011763">
        <ele>32</ele>
        <time>2023-07-19T20:29:59Z</time>
      </trkpt>
      <trkpt lat="59.507879" lon="16.011805">
        <ele>32</ele>
        <time>2023-07-19T20:30:00Z</time>
      </trkpt>
      <trkpt lat="59.507876" lon="16.011844">
        <ele>32</ele>
        <time>2023-07-19T20:30:01Z</time>
      </trkpt>
      <trkpt lat="59.507873" lon="16.011883">
        <ele>32</ele>
        <time>2023-07-19T20:30:02Z</time>
      </trkpt>
      <trkpt lat="59.507866" lon="16.011922">
        <ele>32</ele>
        <time>2023-07-19T20:30:03Z</time>
      </trkpt>
      <trkpt lat="59.507859" lon="16.011962">
        <ele>32</ele>
        <time>2023-07-19T20:30:04Z</time>
      </trkpt>
      <trkpt lat="59.507846" lon="16.01201">
        <ele>32</ele>
        <time>2023-07-19T20:30:05Z</time>
      </trkpt>
      <trkpt lat="59.507833" lon="16.012058">
        <ele>32</ele>
        <time>2023-07-19T20:30:06Z</time>
      </trkpt>
      <trkpt lat="59.507816" lon="16.012121">
        <ele>32</ele>
        <time>2023-07-19T20:30:07Z</time>
      </trkpt>
      <trkpt lat="59.5078" lon="16.012185">
        <ele>32</ele>
        <time>2023-07-19T20:30:08Z</time>
      </trkpt>
      <trkpt lat="59.507778" lon="16.01225">
        <ele>32</ele>
        <time>2023-07-19T20:30:09Z</time>
      </trkpt>
      <trkpt lat="59.507757" lon="16.012315">
        <ele>32</ele>
        <time>2023-07-19T20:30:10Z</time>
      </trkpt>
      <trkpt lat="59.507734" lon="16.012363">
        <ele>32</ele>
        <time>2023-07-19T20:30:11Z</time>
      </trkpt>
      <trkpt lat="59.507712" lon="16.012412">
        <ele>32</ele>
        <time>2023-07-19T20:30:12Z</time>
      </trkpt>
      <trkpt lat="59.507692" lon="16.01245">
        <ele>32</ele>
        <time>2023-07-19T20:30:13Z</time>
      </trkpt>
      <trkpt lat="59.507672" lon="16.012488">
        <ele>32</ele>
        <time>2023-07-19T20:30:14Z</time>
      </trkpt>
      <trkpt lat="59.507659" lon="16.012528">
        <ele>32</ele>
        <time>2023-07-19T20:30:15Z</time>
      </trkpt>
      <trkpt lat="59.507645" lon="16.012568">
        <ele>32</ele>
        <time>2023-07-19T20:30:16Z</time>
      </trkpt>
      <trkpt lat="59.507635" lon="16.012622">
        <ele>32</ele>
        <time>2023-07-19T20:30:17Z</time>
      </trkpt>
      <trkpt lat="59.507624" lon="16.012677">
        <ele>32</ele>
        <time>2023-07-19T20:30:18Z</time>
      </trkpt>
      <trkpt lat="59.507611" lon="16.012733">
        <ele>32</ele>
        <time>2023-07-19T20:30:19Z</time>
      </trkpt>
      <trkpt lat="59.507599" lon="16.012789">
        <ele>32</ele>
        <time>2023-07-19T20:30:20Z</time>
      </trkpt>
      <trkpt lat="59.507585" lon="16.012838">
        <ele>32</ele>
        <time>2023-07-19T20:30:21Z</time>
      </trkpt>
      <trkpt lat="59.507571" lon="16.012887">
        <ele>32</ele>
        <time>2023-07-19T20:30:22Z</time>
      </trkpt>
      <trkpt lat="59.507557" lon="16.012936">
        <ele>32</ele>
        <time>2023-07-19T20:30:23Z</time>
      </trkpt>
      <trkpt lat="59.507538" lon="16.01298">
        <ele>32</ele>
        <time>2023-07-19T20:30:24Z</time>
      </trkpt>
      <trkpt lat="59.507518" lon="16.013025">
        <ele>32</ele>
        <time>2023-07-19T20:30:25Z</time>
      </trkpt>
      <trkpt lat="59.5075" lon="16.013058">
        <ele>32</ele>
        <time>2023-07-19T20:30:26Z</time>
      </trkpt>
      <trkpt lat="59.507482" lon="16.013091">
        <ele>32</ele>
        <time>2023-07-19T20:30:27Z</time>
      </trkpt>
      <trkpt lat="59.507469" lon="16.013126">
        <ele>32</ele>
        <time>2023-07-19T20:30:28Z</time>
      </trkpt>
      <trkpt lat="59.507456" lon="16.013162">
        <ele>32</ele>
        <time>2023-07-19T20:30:29Z</time>
      </trkpt>
      <trkpt lat="59.507446" lon="16.013212">
        <ele>32</ele>
        <time>2023-07-19T20:30:30Z</time>
      </trkpt>
      <trkpt lat="59.507436" lon="16.013262">
        <ele>32</ele>
        <time>2023-07-19T20:30:31Z</time>
      </trkpt>
      <trkpt lat="59.507427" lon="16.013323">
        <ele>31</ele>
        <time>2023-07-19T20:30:32Z</time>
      </trkpt>
      <trkpt lat="59.507418" lon="16.013384">
        <ele>31</ele>
        <time>2023-07-19T20:30:33Z</time>
      </trkpt>
      <trkpt lat="59.507412" lon="16.013446">
        <ele>31</ele>
        <time>2023-07-19T20:30:34Z</time>
      </trkpt>
      <trkpt lat="59.507406" lon="16.013507">
        <ele>31</ele>
        <time>2023-07-19T20:30:35Z</time>
      </trkpt>
      <trkpt lat="59.507402" lon="16.013553">
        <ele>31</ele>
        <time>2023-07-19T20:30:36Z</time>
      </trkpt>
      <trkpt lat="59.507399" lon="16.013599">
        <ele>31</ele>
        <time>2023-07-19T20:30:37Z</time>
      </trkpt>
      <trkpt lat="59.507393" lon="16.013647">
        <ele>31</ele>
        <time>2023-07-19T20:30:38Z</time>
      </trkpt>
      <trkpt lat="59.507388" lon="16.013694">
        <ele>31</ele>
        <time>2023-07-19T20:30:39Z</time>
      </trkpt>
      <trkpt lat="59.50738" lon="16.01375">
        <ele>31</ele>
        <time>2023-07-19T20:30:40Z</time>
      </trkpt>
      <trkpt lat="59.507371" lon="16.013807">
        <ele>31</ele>
        <time>2023-07-19T20:30:41Z</time>
      </trkpt>
      <trkpt lat="59.507361" lon="16.013865">
        <ele>31</ele>
        <time>2023-07-19T20:30:42Z</time>
      </trkpt>
      <trkpt lat="59.507351" lon="16.013923">
        <ele>31</ele>
        <time>2023-07-19T20:30:43Z</time>
      </trkpt>
      <trkpt lat="59.507341" lon="16.013976">
        <ele>31</ele>
        <time>2023-07-19T20:30:44Z</time>
      </trkpt>
      <trkpt lat="59.50733" lon="16.014028">
        <ele>31</ele>
        <time>2023-07-19T20:30:45Z</time>
      </trkpt>
      <trkpt lat="59.507319" lon="16.014073">
        <ele>31</ele>
        <time>2023-07-19T20:30:46Z</time>
      </trkpt>
      <trkpt lat="59.507309" lon="16.014119">
        <ele>31</ele>
        <time>2023-07-19T20:30:47Z</time>
      </trkpt>
      <trkpt lat="59.507299" lon="16.014161">
        <ele>31</ele>
        <time>2023-07-19T20:30:48Z</time>
      </trkpt>
      <trkpt lat="59.50729" lon="16.014203">
        <ele>31</ele>
        <time>2023-07-19T20:30:49Z</time>
      </trkpt>
      <trkpt lat="59.507281" lon="16.014241">
        <ele>31</ele>
        <time>2023-07-19T20:30:50Z</time>
      </trkpt>
      <trkpt lat="59.507273" lon="16.014279">
        <ele>31</ele>
        <time>2023-07-19T20:30:51Z</time>
      </trkpt>
      <trkpt lat="59.507269" lon="16.014313">
        <ele>31</ele>
        <time>2023-07-19T20:30:52Z</time>
      </trkpt>
      <trkpt lat="59.507265" lon="16.014347">
        <ele>31</ele>
        <time>2023-07-19T20:30:53Z</time>
      </trkpt>
      <trkpt lat="59.507265" lon="16.014384">
        <ele>31</ele>
        <time>2023-07-19T20:30:54Z</time>
      </trkpt>
      <trkpt lat="59.507266" lon="16.014422">
        <ele>31</ele>
        <time>2023-07-19T20:30:55Z</time>
      </trkpt>
      <trkpt lat="59.50727" lon="16.014466">
        <ele>31</ele>
        <time>2023-07-19T20:30:56Z</time>
      </trkpt>
      <trkpt lat="59.507275" lon="16.01451">
        <ele>31</ele>
        <time>2023-07-19T20:30:57Z</time>
      </trkpt>
      <trkpt lat="59.507279" lon="16.014559">
        <ele>31</ele>
        <time>2023-07-19T20:30:58Z</time>
      </trkpt>
      <trkpt lat="59.507283" lon="16.014608">
        <ele>31</ele>
        <time>2023-07-19T20:30:59Z</time>
      </trkpt>
      <trkpt lat="59.507283" lon="16.01467">
        <ele>31</ele>
        <time>2023-07-19T20:31:00Z</time>
      </trkpt>
      <trkpt lat="59.507283" lon="16.014733">
        <ele>31</ele>
        <time>2023-07-19T20:31:01Z</time>
      </trkpt>
      <trkpt lat="59.50728" lon="16.014807">
        <ele>31</ele>
        <time>2023-07-19T20:31:02Z</time>
      </trkpt>
      <trkpt lat="59.507278" lon="16.014882">
        <ele>31</ele>
        <time>2023-07-19T20:31:03Z</time>
      </trkpt>
      <trkpt lat="59.507274" lon="16.014957">
        <ele>31</ele>
        <time>2023-07-19T20:31:04Z</time>
      </trkpt>
      <trkpt lat="59.507271" lon="16.015032">
        <ele>31</ele>
        <time>2023-07-19T20:31:05Z</time>
      </trkpt>
      <trkpt lat="59.50727" lon="16.015095">
        <ele>31</ele>
        <time>2023-07-19T20:31:06Z</time>
      </trkpt>
      <trkpt lat="59.507269" lon="16.015157">
        <ele>31</ele>
        <time>2023-07-19T20:31:07Z</time>
      </trkpt>
      <trkpt lat="59.507279" lon="16.015201">
        <ele>31</ele>
        <time>2023-07-19T20:31:08Z</time>
      </trkpt>
      <trkpt lat="59.507288" lon="16.015244">
        <ele>31</ele>
        <time>2023-07-19T20:31:09Z</time>
      </trkpt>
      <trkpt lat="59.507303" lon="16.015278">
        <ele>31</ele>
        <time>2023-07-19T20:31:10Z</time>
      </trkpt>
      <trkpt lat="59.507319" lon="16.015312">
        <ele>31</ele>
        <time>2023-07-19T20:31:11Z</time>
      </trkpt>
      <trkpt lat="59.507331" lon="16.015341">
        <ele>31</ele>
        <time>2023-07-19T20:31:12Z</time>
      </trkpt>
      <trkpt lat="59.507343" lon="16.015371">
        <ele>31</ele>
        <time>2023-07-19T20:31:13Z</time>
      </trkpt>
      <trkpt lat="59.507351" lon="16.0154">
        <ele>31</ele>
        <time>2023-07-19T20:31:14Z</time>
      </trkpt>
      <trkpt lat="59.50736" lon="16.015429">
        <ele>31</ele>
        <time>2023-07-19T20:31:15Z</time>
      </trkpt>
      <trkpt lat="59.507367" lon="16.015463">
        <ele>31</ele>
        <time>2023-07-19T20:31:16Z</time>
      </trkpt>
      <trkpt lat="59.507373" lon="16.015497">
        <ele>31</ele>
        <time>2023-07-19T20:31:17Z</time>
      </trkpt>
      <trkpt lat="59.507377" lon="16.015534">
        <ele>31</ele>
        <time>2023-07-19T20:31:18Z</time>
      </trkpt>
      <trkpt lat="59.507382" lon="16.015571">
        <ele>31</ele>
        <time>2023-07-19T20:31:19Z</time>
      </trkpt>
      <trkpt lat="59.507386" lon="16.015608">
        <ele>31</ele>
        <time>2023-07-19T20:31:20Z</time>
      </trkpt>
      <trkpt lat="59.50739" lon="16.015645">
        <ele>32</ele>
        <time>2023-07-19T20:31:21Z</time>
      </trkpt>
      <trkpt lat="59.5074" lon="16.015685">
        <ele>32</ele>
        <time>2023-07-19T20:31:22Z</time>
      </trkpt>
      <trkpt lat="59.50741" lon="16.015724">
        <ele>32</ele>
        <time>2023-07-19T20:31:23Z</time>
      </trkpt>
      <trkpt lat="59.507427" lon="16.01577">
        <ele>32</ele>
        <time>2023-07-19T20:31:24Z</time>
      </trkpt>
      <trkpt lat="59.507444" lon="16.015815">
        <ele>32</ele>
        <time>2023-07-19T20:31:25Z</time>
      </trkpt>
      <trkpt lat="59.507461" lon="16.015857">
        <ele>32</ele>
        <time>2023-07-19T20:31:26Z</time>
      </trkpt>
      <trkpt lat="59.507479" lon="16.0159">
        <ele>32</ele>
        <time>2023-07-19T20:31:27Z</time>
      </trkpt>
      <trkpt lat="59.507493" lon="16.015943">
        <ele>32</ele>
        <time>2023-07-19T20:31:28Z</time>
      </trkpt>
      <trkpt lat="59.507507" lon="16.015987">
        <ele>32</ele>
        <time>2023-07-19T20:31:29Z</time>
      </trkpt>
      <trkpt lat="59.507514" lon="16.016043">
        <ele>32</ele>
        <time>2023-07-19T20:31:30Z</time>
      </trkpt>
      <trkpt lat="59.507522" lon="16.016099">
        <ele>33</ele>
        <time>2023-07-19T20:31:31Z</time>
      </trkpt>
      <trkpt lat="59.507521" lon="16.016158">
        <ele>33</ele>
        <time>2023-07-19T20:31:32Z</time>
      </trkpt>
      <trkpt lat="59.507521" lon="16.016217">
        <ele>33</ele>
        <time>2023-07-19T20:31:33Z</time>
      </trkpt>
      <trkpt lat="59.507518" lon="16.016268">
        <ele>33</ele>
        <time>2023-07-19T20:31:34Z</time>
      </trkpt>
      <trkpt lat="59.507514" lon="16.016318">
        <ele>33</ele>
        <time>2023-07-19T20:31:35Z</time>
      </trkpt>
      <trkpt lat="59.507508" lon="16.01636">
        <ele>34</ele>
        <time>2023-07-19T20:31:36Z</time>
      </trkpt>
      <trkpt lat="59.507503" lon="16.016402">
        <ele>34</ele>
        <time>2023-07-19T20:31:37Z</time>
      </trkpt>
      <trkpt lat="59.507492" lon="16.01644">
        <ele>34</ele>
        <time>2023-07-19T20:31:38Z</time>
      </trkpt>
      <trkpt lat="59.507482" lon="16.016478">
        <ele>34</ele>
        <time>2023-07-19T20:31:39Z</time>
      </trkpt>
      <trkpt lat="59.507469" lon="16.016521">
        <ele>34</ele>
        <time>2023-07-19T20:31:40Z</time>
      </trkpt>
      <trkpt lat="59.507456" lon="16.016564">
        <ele>35</ele>
        <time>2023-07-19T20:31:41Z</time>
      </trkpt>
      <trkpt lat="59.507447" lon="16.016615">
        <ele>35</ele>
        <time>2023-07-19T20:31:42Z</time>
      </trkpt>
      <trkpt lat="59.507438" lon="16.016665">
        <ele>35</ele>
        <time>2023-07-19T20:31:43Z</time>
      </trkpt>
      <trkpt lat="59.507436" lon="16.016719">
        <ele>35</ele>
        <time>2023-07-19T20:31:44Z</time>
      </trkpt>
      <trkpt lat="59.507433" lon="16.016772">
        <ele>35</ele>
        <time>2023-07-19T20:31:45Z</time>
      </trkpt>
      <trkpt lat="59.507433" lon="16.016825">
        <ele>36</ele>
        <time>2023-07-19T20:31:46Z</time>
      </trkpt>
      <trkpt lat="59.507434" lon="16.016877">
        <ele>36</ele>
        <time>2023-07-19T20:31:47Z</time>
      </trkpt>
      <trkpt lat="59.507434" lon="16.016926">
        <ele>36</ele>
        <time>2023-07-19T20:31:48Z</time>
      </trkpt>
      <trkpt lat="59.507434" lon="16.016975">
        <ele>36</ele>
        <time>2023-07-19T20:31:49Z</time>
      </trkpt>
      <trkpt lat="59.507434" lon="16.017021">
        <ele>36</ele>
        <time>2023-07-19T20:31:50Z</time>
      </trkpt>
      <trkpt lat="59.507434" lon="16.017067">
        <ele>36</ele>
        <time>2023-07-19T20:31:51Z</time>
      </trkpt>
      <trkpt lat="59.507436" lon="16.017115">
        <ele>36</ele>
        <time>2023-07-19T20:31:52Z</time>
      </trkpt>
      <trkpt lat="59.507437" lon="16.017163">
        <ele>36</ele>
        <time>2023-07-19T20:31:53Z</time>
      </trkpt>
      <trkpt lat="59.507444" lon="16.017211">
        <ele>36</ele>
        <time>2023-07-19T20:31:54Z</time>
      </trkpt>
      <trkpt lat="59.507451" lon="16.01726">
        <ele>36</ele>
        <time>2023-07-19T20:31:55Z</time>
      </trkpt>
      <trkpt lat="59.507461" lon="16.017304">
        <ele>37</ele>
        <time>2023-07-19T20:31:56Z</time>
      </trkpt>
      <trkpt lat="59.507471" lon="16.017348">
        <ele>37</ele>
        <time>2023-07-19T20:31:57Z</time>
      </trkpt>
      <trkpt lat="59.507484" lon="16.017384">
        <ele>37</ele>
        <time>2023-07-19T20:31:58Z</time>
      </trkpt>
      <trkpt lat="59.507497" lon="16.017419">
        <ele>37</ele>
        <time>2023-07-19T20:31:59Z</time>
      </trkpt>
      <trkpt lat="59.507512" lon="16.017445">
        <ele>37</ele>
        <time>2023-07-19T20:32:00Z</time>
      </trkpt>
      <trkpt lat="59.507528" lon="16.01747">
        <ele>37</ele>
        <time>2023-07-19T20:32:01Z</time>
      </trkpt>
      <trkpt lat="59.507546" lon="16.017489">
        <ele>37</ele>
        <time>2023-07-19T20:32:02Z</time>
      </trkpt>
      <trkpt lat="59.507564" lon="16.017509">
        <ele>37</ele>
        <time>2023-07-19T20:32:03Z</time>
      </trkpt>
      <trkpt lat="59.507584" lon="16.017525">
        <ele>37</ele>
        <time>2023-07-19T20:32:04Z</time>
      </trkpt>
      <trkpt lat="59.507604" lon="16.017541">
        <ele>37</ele>
        <time>2023-07-19T20:32:05Z</time>
      </trkpt>
      <trkpt lat="59.507626" lon="16.017556">
        <ele>37</ele>
        <time>2023-07-19T20:32:06Z</time>
      </trkpt>
      <trkpt lat="59.507647" lon="16.017571">
        <ele>37</ele>
        <time>2023-07-19T20:32:07Z</time>
      </trkpt>
      <trkpt lat="59.507671" lon="16.017589">
        <ele>37</ele>
        <time>2023-07-19T20:32:08Z</time>
      </trkpt>
      <trkpt lat="59.507694" lon="16.017607">
        <ele>37</ele>
        <time>2023-07-19T20:32:09Z</time>
      </trkpt>
      <trkpt lat="59.507719" lon="16.017628">
        <ele>37</ele>
        <time>2023-07-19T20:32:10Z</time>
      </trkpt>
      <trkpt lat="59.507743" lon="16.017649">
        <ele>38</ele>
        <time>2023-07-19T20:32:11Z</time>
      </trkpt>
      <trkpt lat="59.507769" lon="16.017668">
        <ele>38</ele>
        <time>2023-07-19T20:32:12Z</time>
      </trkpt>
      <trkpt lat="59.507795" lon="16.017688">
        <ele>38</ele>
        <time>2023-07-19T20:32:13Z</time>
      </trkpt>
      <trkpt lat="59.507822" lon="16.017713">
        <ele>38</ele>
        <time>2023-07-19T20:32:14Z</time>
      </trkpt>
      <trkpt lat="59.507849" lon="16.017738">
        <ele>38</ele>
        <time>2023-07-19T20:32:15Z</time>
      </trkpt>
      <trkpt lat="59.507875" lon="16.01777">
        <ele>38</ele>
        <time>2023-07-19T20:32:16Z</time>
      </trkpt>
      <trkpt lat="59.5079" lon="16.017802">
        <ele>38</ele>
        <time>2023-07-19T20:32:17Z</time>
      </trkpt>
      <trkpt lat="59.507921" lon="16.017834">
        <ele>38</ele>
        <time>2023-07-19T20:32:18Z</time>
      </trkpt>
      <trkpt lat="59.507942" lon="16.017865">
        <ele>38</ele>
        <time>2023-07-19T20:32:19Z</time>
      </trkpt>
      <trkpt lat="59.507962" lon="16.017895">
        <ele>38</ele>
        <time>2023-07-19T20:32:20Z</time>
      </trkpt>
      <trkpt lat="59.507981" lon="16.017924">
        <ele>38</ele>
        <time>2023-07-19T20:32:21Z</time>
      </trkpt>
      <trkpt lat="59.508" lon="16.017948">
        <ele>38</ele>
        <time>2023-07-19T20:32:22Z</time>
      </trkpt>
      <trkpt lat="59.50802" lon="16.017972">
        <ele>38</ele>
        <time>2023-07-19T20:32:23Z</time>
      </trkpt>
      <trkpt lat="59.508044" lon="16.017999">
        <ele>38</ele>
        <time>2023-07-19T20:32:24Z</time>
      </trkpt>
      <trkpt lat="59.508067" lon="16.018026">
        <ele>38</ele>
        <time>2023-07-19T20:32:25Z</time>
      </trkpt>
      <trkpt lat="59.508094" lon="16.018051">
        <ele>39</ele>
        <time>2023-07-19T20:32:26Z</time>
      </trkpt>
      <trkpt lat="59.508121" lon="16.018075">
        <ele>39</ele>
        <time>2023-07-19T20:32:27Z</time>
      </trkpt>
      <trkpt lat="59.508146" lon="16.018099">
        <ele>39</ele>
        <time>2023-07-19T20:32:28Z</time>
      </trkpt>
      <trkpt lat="59.508172" lon="16.018122">
        <ele>39</ele>
        <time>2023-07-19T20:32:29Z</time>
      </trkpt>
      <trkpt lat="59.508196" lon="16.018145">
        <ele>39</ele>
        <time>2023-07-19T20:32:30Z</time>
      </trkpt>
      <trkpt lat="59.508221" lon="16.018168">
        <ele>39</ele>
        <time>2023-07-19T20:32:31Z</time>
      </trkpt>
      <trkpt lat="59.508247" lon="16.01819">
        <ele>39</ele>
        <time>2023-07-19T20:32:32Z</time>
      </trkpt>
      <trkpt lat="59.508274" lon="16.018213">
        <ele>39</ele>
        <time>2023-07-19T20:32:33Z</time>
      </trkpt>
      <trkpt lat="59.508301" lon="16.018228">
        <ele>39</ele>
        <time>2023-07-19T20:32:34Z</time>
      </trkpt>
      <trkpt lat="59.508328" lon="16.018244">
        <ele>39</ele>
        <time>2023-07-19T20:32:35Z</time>
      </trkpt>
      <trkpt lat="59.508354" lon="16.018249">
        <ele>40</ele>
        <time>2023-07-19T20:32:36Z</time>
      </trkpt>
      <trkpt lat="59.508379" lon="16.018254">
        <ele>40</ele>
        <time>2023-07-19T20:32:37Z</time>
      </trkpt>
      <trkpt lat="59.508402" lon="16.018255">
        <ele>40</ele>
        <time>2023-07-19T20:32:38Z</time>
      </trkpt>
      <trkpt lat="59.508425" lon="16.018256">
        <ele>40</ele>
        <time>2023-07-19T20:32:39Z</time>
      </trkpt>
      <trkpt lat="59.508447" lon="16.018258">
        <ele>40</ele>
        <time>2023-07-19T20:32:40Z</time>
      </trkpt>
      <trkpt lat="59.508469" lon="16.01826">
        <ele>40</ele>
        <time>2023-07-19T20:32:41Z</time>
      </trkpt>
      <trkpt lat="59.508492" lon="16.018265">
        <ele>40</ele>
        <time>2023-07-19T20:32:42Z</time>
      </trkpt>
      <trkpt lat="59.508516" lon="16.01827">
        <ele>40</ele>
        <time>2023-07-19T20:32:43Z</time>
      </trkpt>
      <trkpt lat="59.508541" lon="16.018274">
        <ele>40</ele>
        <time>2023-07-19T20:32:44Z</time>
      </trkpt>
      <trkpt lat="59.508566" lon="16.018279">
        <ele>40</ele>
        <time>2023-07-19T20:32:45Z</time>
      </trkpt>
      <trkpt lat="59.50859" lon="16.018285">
        <ele>40</ele>
        <time>2023-07-19T20:32:46Z</time>
      </trkpt>
      <trkpt lat="59.508613" lon="16.018291">
        <ele>40</ele>
        <time>2023-07-19T20:32:47Z</time>
      </trkpt>
      <trkpt lat="59.508638" lon="16.018298">
        <ele>40</ele>
        <time>2023-07-19T20:32:48Z</time>
      </trkpt>
      <trkpt lat="59.508663" lon="16.018305">
        <ele>40</ele>
        <time>2023-07-19T20:32:49Z</time>
      </trkpt>
      <trkpt lat="59.508692" lon="16.018313">
        <ele>40</ele>
        <time>2023-07-19T20:32:50Z</time>
      </trkpt>
      <trkpt lat="59.508721" lon="16.018321">
        <ele>41</ele>
        <time>2023-07-19T20:32:51Z</time>
      </trkpt>
      <trkpt lat="59.508752" lon="16.018323">
        <ele>41</ele>
        <time>2023-07-19T20:32:52Z</time>
      </trkpt>
      <trkpt lat="59.508783" lon="16.018326">
        <ele>41</ele>
        <time>2023-07-19T20:32:53Z</time>
      </trkpt>
      <trkpt lat="59.508813" lon="16.018321">
        <ele>41</ele>
        <time>2023-07-19T20:32:54Z</time>
      </trkpt>
      <trkpt lat="59.508843" lon="16.018315">
        <ele>41</ele>
        <time>2023-07-19T20:32:55Z</time>
      </trkpt>
      <trkpt lat="59.508866" lon="16.018297">
        <ele>41</ele>
        <time>2023-07-19T20:32:56Z</time>
      </trkpt>
      <trkpt lat="59.50889" lon="16.01828">
        <ele>41</ele>
        <time>2023-07-19T20:32:57Z</time>
      </trkpt>
      <trkpt lat="59.508915" lon="16.018253">
        <ele>41</ele>
        <time>2023-07-19T20:32:58Z</time>
      </trkpt>
      <trkpt lat="59.50894" lon="16.018226">
        <ele>41</ele>
        <time>2023-07-19T20:32:59Z</time>
      </trkpt>
      <trkpt lat="59.508966" lon="16.018194">
        <ele>41</ele>
        <time>2023-07-19T20:33:00Z</time>
      </trkpt>
      <trkpt lat="59.508991" lon="16.018162">
        <ele>41</ele>
        <time>2023-07-19T20:33:01Z</time>
      </trkpt>
      <trkpt lat="59.509014" lon="16.018129">
        <ele>41</ele>
        <time>2023-07-19T20:33:02Z</time>
      </trkpt>
      <trkpt lat="59.509037" lon="16.018096">
        <ele>41</ele>
        <time>2023-07-19T20:33:03Z</time>
      </trkpt>
      <trkpt lat="59.509056" lon="16.018062">
        <ele>41</ele>
        <time>2023-07-19T20:33:04Z</time>
      </trkpt>
      <trkpt lat="59.509076" lon="16.018027">
        <ele>41</ele>
        <time>2023-07-19T20:33:05Z</time>
      </trkpt>
      <trkpt lat="59.509094" lon="16.017994">
        <ele>41</ele>
        <time>2023-07-19T20:33:06Z</time>
      </trkpt>
      <trkpt lat="59.509112" lon="16.017961">
        <ele>41</ele>
        <time>2023-07-19T20:33:07Z</time>
      </trkpt>
      <trkpt lat="59.509133" lon="16.017925">
        <ele>41</ele>
        <time>2023-07-19T20:33:08Z</time>
      </trkpt>
      <trkpt lat="59.509153" lon="16.017888">
        <ele>41</ele>
        <time>2023-07-19T20:33:09Z</time>
      </trkpt>
      <trkpt lat="59.509174" lon="16.017854">
        <ele>41</ele>
        <time>2023-07-19T20:33:10Z</time>
      </trkpt>
      <trkpt lat="59.509196" lon="16.01782">
        <ele>41</ele>
        <time>2023-07-19T20:33:11Z</time>
      </trkpt>
      <trkpt lat="59.509218" lon="16.017791">
        <ele>41</ele>
        <time>2023-07-19T20:33:12Z</time>
      </trkpt>
      <trkpt lat="59.509241" lon="16.017762">
        <ele>41</ele>
        <time>2023-07-19T20:33:13Z</time>
      </trkpt>
      <trkpt lat="59.509261" lon="16.017735">
        <ele>41</ele>
        <time>2023-07-19T20:33:14Z</time>
      </trkpt>
      <trkpt lat="59.509281" lon="16.017708">
        <ele>41</ele>
        <time>2023-07-19T20:33:15Z</time>
      </trkpt>
      <trkpt lat="59.5093" lon="16.017683">
        <ele>42</ele>
        <time>2023-07-19T20:33:16Z</time>
      </trkpt>
      <trkpt lat="59.509319" lon="16.017658">
        <ele>42</ele>
        <time>2023-07-19T20:33:17Z</time>
      </trkpt>
      <trkpt lat="59.509337" lon="16.017634">
        <ele>42</ele>
        <time>2023-07-19T20:33:18Z</time>
      </trkpt>
      <trkpt lat="59.509354" lon="16.01761">
        <ele>42</ele>
        <time>2023-07-19T20:33:19Z</time>
      </trkpt>
      <trkpt lat="59.509372" lon="16.017586">
        <ele>42</ele>
        <time>2023-07-19T20:33:20Z</time>
      </trkpt>
      <trkpt lat="59.50939" lon="16.017562">
        <ele>42</ele>
        <time>2023-07-19T20:33:21Z</time>
      </trkpt>
      <trkpt lat="59.50941" lon="16.017536">
        <ele>42</ele>
        <time>2023-07-19T20:33:22Z</time>
      </trkpt>
      <trkpt lat="59.509431" lon="16.017509">
        <ele>42</ele>
        <time>2023-07-19T20:33:23Z</time>
      </trkpt>
      <trkpt lat="59.509452" lon="16.017479">
        <ele>42</ele>
        <time>2023-07-19T20:33:24Z</time>
      </trkpt>
      <trkpt lat="59.509473" lon="16.01745">
        <ele>42</ele>
        <time>2023-07-19T20:33:25Z</time>
      </trkpt>
      <trkpt lat="59.509493" lon="16.017415">
        <ele>42</ele>
        <time>2023-07-19T20:33:26Z</time>
      </trkpt>
      <trkpt lat="59.509513" lon="16.017381">
        <ele>42</ele>
        <time>2023-07-19T20:33:27Z</time>
      </trkpt>
      <trkpt lat="59.509534" lon="16.017347">
        <ele>42</ele>
        <time>2023-07-19T20:33:28Z</time>
      </trkpt>
      <trkpt lat="59.509555" lon="16.017312">
        <ele>42</ele>
        <time>2023-07-19T20:33:29Z</time>
      </trkpt>
      <trkpt lat="59.509578" lon="16.01728">
        <ele>42</ele>
        <time>2023-07-19T20:33:30Z</time>
      </trkpt>
      <trkpt lat="59.509602" lon="16.017248">
        <ele>43</ele>
        <time>2023-07-19T20:33:31Z</time>
      </trkpt>
      <trkpt lat="59.509628" lon="16.017208">
        <ele>43</ele>
        <time>2023-07-19T20:33:32Z</time>
      </trkpt>
      <trkpt lat="59.509654" lon="16.017168">
        <ele>43</ele>
        <time>2023-07-19T20:33:33Z</time>
      </trkpt>
      <trkpt lat="59.509678" lon="16.01712">
        <ele>43</ele>
        <time>2023-07-19T20:33:34Z</time>
      </trkpt>
      <trkpt lat="59.509703" lon="16.017073">
        <ele>43</ele>
        <time>2023-07-19T20:33:35Z</time>
      </trkpt>
      <trkpt lat="59.509719" lon="16.017031">
        <ele>43</ele>
        <time>2023-07-19T20:33:36Z</time>
      </trkpt>
      <trkpt lat="59.509736" lon="16.016989">
        <ele>43</ele>
        <time>2023-07-19T20:33:37Z</time>
      </trkpt>
      <trkpt lat="59.509749" lon="16.016944">
        <ele>43</ele>
        <time>2023-07-19T20:33:38Z</time>
      </trkpt>
      <trkpt lat="59.509761" lon="16.016899">
        <ele>43</ele>
        <time>2023-07-19T20:33:39Z</time>
      </trkpt>
      <trkpt lat="59.509771" lon="16.01685">
        <ele>43</ele>
        <time>2023-07-19T20:33:40Z</time>
      </trkpt>
      <trkpt lat="59.509781" lon="16.016801">
        <ele>44</ele>
        <time>2023-07-19T20:33:41Z</time>
      </trkpt>
      <trkpt lat="59.509791" lon="16.016749">
        <ele>44</ele>
        <time>2023-07-19T20:33:42Z</time>
      </trkpt>
      <trkpt lat="59.509801" lon="16.016696">
        <ele>44</ele>
        <time>2023-07-19T20:33:43Z</time>
      </trkpt>
      <trkpt lat="59.509815" lon="16.016643">
        <ele>44</ele>
        <time>2023-07-19T20:33:44Z</time>
      </trkpt>
      <trkpt lat="59.50983" lon="16.016589">
        <ele>44</ele>
        <time>2023-07-19T20:33:45Z</time>
      </trkpt>
      <trkpt lat="59.509845" lon="16.016536">
        <ele>44</ele>
        <time>2023-07-19T20:33:46Z</time>
      </trkpt>
      <trkpt lat="59.50986" lon="16.016484">
        <ele>44</ele>
        <time>2023-07-19T20:33:47Z</time>
      </trkpt>
      <trkpt lat="59.509874" lon="16.016436">
        <ele>44</ele>
        <time>2023-07-19T20:33:48Z</time>
      </trkpt>
      <trkpt lat="59.509888" lon="16.016388">
        <ele>44</ele>
        <time>2023-07-19T20:33:49Z</time>
      </trkpt>
      <trkpt lat="59.5099" lon="16.016344">
        <ele>44</ele>
        <time>2023-07-19T20:33:50Z</time>
      </trkpt>
      <trkpt lat="59.509911" lon="16.0163">
        <ele>44</ele>
        <time>2023-07-19T20:33:51Z</time>
      </trkpt>
      <trkpt lat="59.509922" lon="16.016254">
        <ele>43</ele>
        <time>2023-07-19T20:33:52Z</time>
      </trkpt>
      <trkpt lat="59.509933" lon="16.016208">
        <ele>43</ele>
        <time>2023-07-19T20:33:53Z</time>
      </trkpt>
      <trkpt lat="59.509943" lon="16.016162">
        <ele>43</ele>
        <time>2023-07-19T20:33:54Z</time>
      </trkpt>
      <trkpt lat="59.509953" lon="16.016116">
        <ele>43</ele>
        <time>2023-07-19T20:33:55Z</time>
      </trkpt>
      <trkpt lat="59.509963" lon="16.016072">
        <ele>43</ele>
        <time>2023-07-19T20:33:56Z</time>
      </trkpt>
      <trkpt lat="59.509973" lon="16.016027">
        <ele>43</ele>
        <time>2023-07-19T20:33:57Z</time>
      </trkpt>
      <trkpt lat="59.509985" lon="16.015984">
        <ele>43</ele>
        <time>2023-07-19T20:33:58Z</time>
      </trkpt>
      <trkpt lat="59.509997" lon="16.01594">
        <ele>43</ele>
        <time>2023-07-19T20:33:59Z</time>
      </trkpt>
      <trkpt lat="59.510009" lon="16.015896">
        <ele>43</ele>
        <time>2023-07-19T20:34:00Z</time>
      </trkpt>
      <trkpt lat="59.510022" lon="16.015853">
        <ele>43</ele>
        <time>2023-07-19T20:34:01Z</time>
      </trkpt>
      <trkpt lat="59.510034" lon="16.015806">
        <ele>43</ele>
        <time>2023-07-19T20:34:02Z</time>
      </trkpt>
      <trkpt lat="59.510046" lon="16.01576">
        <ele>43</ele>
        <time>2023-07-19T20:34:03Z</time>
      </trkpt>
      <trkpt lat="59.510058" lon="16.015716">
        <ele>43</ele>
        <time>2023-07-19T20:34:04Z</time>
      </trkpt>
      <trkpt lat="59.510069" lon="16.015671">
        <ele>43</ele>
        <time>2023-07-19T20:34:05Z</time>
      </trkpt>
      <trkpt lat="59.510085" lon="16.015629">
        <ele>43</ele>
        <time>2023-07-19T20:34:06Z</time>
      </trkpt>
      <trkpt lat="59.510102" lon="16.015586">
        <ele>43</ele>
        <time>2023-07-19T20:34:07Z</time>
      </trkpt>
      <trkpt lat="59.510119" lon="16.015544">
        <ele>43</ele>
        <time>2023-07-19T20:34:08Z</time>
      </trkpt>
      <trkpt lat="59.510137" lon="16.015503">
        <ele>43</ele>
        <time>2023-07-19T20:34:09Z</time>
      </trkpt>
      <trkpt lat="59.510152" lon="16.015461">
        <ele>43</ele>
        <time>2023-07-19T20:34:10Z</time>
      </trkpt>
      <trkpt lat="59.510168" lon="16.015418">
        <ele>43</ele>
        <time>2023-07-19T20:34:11Z</time>
      </trkpt>
      <trkpt lat="59.51018" lon="16.015368">
        <ele>43</ele>
        <time>2023-07-19T20:34:12Z</time>
      </trkpt>
      <trkpt lat="59.510192" lon="16.015318">
        <ele>43</ele>
        <time>2023-07-19T20:34:13Z</time>
      </trkpt>
      <trkpt lat="59.510201" lon="16.015266">
        <ele>43</ele>
        <time>2023-07-19T20:34:14Z</time>
      </trkpt>
      <trkpt lat="59.510211" lon="16.015214">
        <ele>43</ele>
        <time>2023-07-19T20:34:15Z</time>
      </trkpt>
      <trkpt lat="59.510222" lon="16.015164">
        <ele>43</ele>
        <time>2023-07-19T20:34:16Z</time>
      </trkpt>
      <trkpt lat="59.510233" lon="16.015113">
        <ele>43</ele>
        <time>2023-07-19T20:34:17Z</time>
      </trkpt>
      <trkpt lat="59.510247" lon="16.015065">
        <ele>43</ele>
        <time>2023-07-19T20:34:18Z</time>
      </trkpt>
      <trkpt lat="59.510262" lon="16.015016">
        <ele>43</ele>
        <time>2023-07-19T20:34:19Z</time>
      </trkpt>
      <trkpt lat="59.510279" lon="16.014966">
        <ele>43</ele>
        <time>2023-07-19T20:34:20Z</time>
      </trkpt>
      <trkpt lat="59.510296" lon="16.014916">
        <ele>43</ele>
        <time>2023-07-19T20:34:21Z</time>
      </trkpt>
      <trkpt lat="59.510312" lon="16.014864">
        <ele>43</ele>
        <time>2023-07-19T20:34:22Z</time>
      </trkpt>
      <trkpt lat="59.510329" lon="16.014813">
        <ele>43</ele>
        <time>2023-07-19T20:34:23Z</time>
      </trkpt>
      <trkpt lat="59.510345" lon="16.014764">
        <ele>43</ele>
        <time>2023-07-19T20:34:24Z</time>
      </trkpt>
      <trkpt lat="59.51036" lon="16.014714">
        <ele>43</ele>
        <time>2023-07-19T20:34:25Z</time>
      </trkpt>
      <trkpt lat="59.510375" lon="16.014668">
        <ele>43</ele>
        <time>2023-07-19T20:34:26Z</time>
      </trkpt>
      <trkpt lat="59.51039" lon="16.014622">
        <ele>42</ele>
        <time>2023-07-19T20:34:27Z</time>
      </trkpt>
      <trkpt lat="59.510403" lon="16.014576">
        <ele>42</ele>
        <time>2023-07-19T20:34:28Z</time>
      </trkpt>
      <trkpt lat="59.510416" lon="16.014531">
        <ele>42</ele>
        <time>2023-07-19T20:34:29Z</time>
      </trkpt>
      <trkpt lat="59.510427" lon="16.01449">
        <ele>42</ele>
        <time>2023-07-19T20:34:30Z</time>
      </trkpt>
      <trkpt lat="59.510439" lon="16.014449">
        <ele>42</ele>
        <time>2023-07-19T20:34:31Z</time>
      </trkpt>
      <trkpt lat="59.510451" lon="16.014412">
        <ele>42</ele>
        <time>2023-07-19T20:34:32Z</time>
      </trkpt>
      <trkpt lat="59.510463" lon="16.014375">
        <ele>42</ele>
        <time>2023-07-19T20:34:33Z</time>
      </trkpt>
      <trkpt lat="59.510476" lon="16.014333">
        <ele>42</ele>
        <time>2023-07-19T20:34:34Z</time>
      </trkpt>
      <trkpt lat="59.510489" lon="16.014292">
        <ele>42</ele>
        <time>2023-07-19T20:34:35Z</time>
      </trkpt>
      <trkpt lat="59.510502" lon="16.014247">
        <ele>42</ele>
        <time>2023-07-19T20:34:36Z</time>
      </trkpt>
      <trkpt lat="59.510514" lon="16.014201">
        <ele>42</ele>
        <time>2023-07-19T20:34:37Z</time>
      </trkpt>
      <trkpt lat="59.510525" lon="16.01415">
        <ele>42</ele>
        <time>2023-07-19T20:34:38Z</time>
      </trkpt>
      <trkpt lat="59.510536" lon="16.014099">
        <ele>42</ele>
        <time>2023-07-19T20:34:39Z</time>
      </trkpt>
      <trkpt lat="59.510543" lon="16.014041">
        <ele>42</ele>
        <time>2023-07-19T20:34:40Z</time>
      </trkpt>
      <trkpt lat="59.51055" lon="16.013984">
        <ele>42</ele>
        <time>2023-07-19T20:34:41Z</time>
      </trkpt>
      <trkpt lat="59.510559" lon="16.013928">
        <ele>42</ele>
        <time>2023-07-19T20:34:42Z</time>
      </trkpt>
      <trkpt lat="59.510568" lon="16.013873">
        <ele>42</ele>
        <time>2023-07-19T20:34:43Z</time>
      </trkpt>
      <trkpt lat="59.510578" lon="16.01382">
        <ele>42</ele>
        <time>2023-07-19T20:34:44Z</time>
      </trkpt>
      <trkpt lat="59.510588" lon="16.013767">
        <ele>42</ele>
        <time>2023-07-19T20:34:45Z</time>
      </trkpt>
      <trkpt lat="59.510598" lon="16.013717">
        <ele>42</ele>
        <time>2023-07-19T20:34:46Z</time>
      </trkpt>
      <trkpt lat="59.510608" lon="16.013666">
        <ele>42</ele>
        <time>2023-07-19T20:34:47Z</time>
      </trkpt>
      <trkpt lat="59.51062" lon="16.013615">
        <ele>42</ele>
        <time>2023-07-19T20:34:48Z</time>
      </trkpt>
      <trkpt lat="59.510632" lon="16.013565">
        <ele>42</ele>
        <time>2023-07-19T20:34:49Z</time>
      </trkpt>
      <trkpt lat="59.510645" lon="16.013524">
        <ele>42</ele>
        <time>2023-07-19T20:34:50Z</time>
      </trkpt>
      <trkpt lat="59.510658" lon="16.013483">
        <ele>42</ele>
        <time>2023-07-19T20:34:51Z</time>
      </trkpt>
      <trkpt lat="59.510669" lon="16.013449">
        <ele>42</ele>
        <time>2023-07-19T20:34:52Z</time>
      </trkpt>
      <trkpt lat="59.510682" lon="16.013415">
        <ele>42</ele>
        <time>2023-07-19T20:34:53Z</time>
      </trkpt>
      <trkpt lat="59.510692" lon="16.013377">
        <ele>42</ele>
        <time>2023-07-19T20:34:54Z</time>
      </trkpt>
      <trkpt lat="59.510703" lon="16.013339">
        <ele>42</ele>
        <time>2023-07-19T20:34:55Z</time>
      </trkpt>
      <trkpt lat="59.510713" lon="16.013295">
        <ele>42</ele>
        <time>2023-07-19T20:34:56Z</time>
      </trkpt>
      <trkpt lat="59.510723" lon="16.013251">
        <ele>41</ele>
        <time>2023-07-19T20:34:57Z</time>
      </trkpt>
      <trkpt lat="59.510734" lon="16.013201">
        <ele>41</ele>
        <time>2023-07-19T20:34:58Z</time>
      </trkpt>
      <trkpt lat="59.510744" lon="16.013151">
        <ele>41</ele>
        <time>2023-07-19T20:34:59Z</time>
      </trkpt>
      <trkpt lat="59.510752" lon="16.0131">
        <ele>41</ele>
        <time>2023-07-19T20:35:00Z</time>
      </trkpt>
      <trkpt lat="59.510761" lon="16.013048">
        <ele>41</ele>
        <time>2023-07-19T20:35:01Z</time>
      </trkpt>
      <trkpt lat="59.510768" lon="16.012994">
        <ele>41</ele>
        <time>2023-07-19T20:35:02Z</time>
      </trkpt>
      <trkpt lat="59.510775" lon="16.01294">
        <ele>41</ele>
        <time>2023-07-19T20:35:03Z</time>
      </trkpt>
      <trkpt lat="59.510783" lon="16.01289">
        <ele>41</ele>
        <time>2023-07-19T20:35:04Z</time>
      </trkpt>
      <trkpt lat="59.51079" lon="16.012839">
        <ele>41</ele>
        <time>2023-07-19T20:35:05Z</time>
      </trkpt>
      <trkpt lat="59.510793" lon="16.012791">
        <ele>41</ele>
        <time>2023-07-19T20:35:06Z</time>
      </trkpt>
      <trkpt lat="59.510796" lon="16.012742">
        <ele>41</ele>
        <time>2023-07-19T20:35:07Z</time>
      </trkpt>
      <trkpt lat="59.510797" lon="16.012697">
        <ele>41</ele>
        <time>2023-07-19T20:35:08Z</time>
      </trkpt>
      <trkpt lat="59.510797" lon="16.012652">
        <ele>41</ele>
        <time>2023-07-19T20:35:09Z</time>
      </trkpt>
      <trkpt lat="59.510795" lon="16.012609">
        <ele>41</ele>
        <time>2023-07-19T20:35:10Z</time>
      </trkpt>
      <trkpt lat="59.510794" lon="16.012566">
        <ele>41</ele>
        <time>2023-07-19T20:35:11Z</time>
      </trkpt>
      <trkpt lat="59.510792" lon="16.012515">
        <ele>41</ele>
        <time>2023-07-19T20:35:12Z</time>
      </trkpt>
      <trkpt lat="59.51079" lon="16.012465">
        <ele>41</ele>
        <time>2023-07-19T20:35:13Z</time>
      </trkpt>
      <trkpt lat="59.510787" lon="16.012409">
        <ele>41</ele>
        <time>2023-07-19T20:35:14Z</time>
      </trkpt>
      <trkpt lat="59.510785" lon="16.012353">
        <ele>41</ele>
        <time>2023-07-19T20:35:15Z</time>
      </trkpt>
      <trkpt lat="59.510783" lon="16.012295">
        <ele>41</ele>
        <time>2023-07-19T20:35:16Z</time>
      </trkpt>
      <trkpt lat="59.510781" lon="16.012236">
        <ele>41</ele>
        <time>2023-07-19T20:35:17Z</time>
      </trkpt>
      <trkpt lat="59.510778" lon="16.012179">
        <ele>41</ele>
        <time>2023-07-19T20:35:18Z</time>
      </trkpt>
      <trkpt lat="59.510775" lon="16.012121">
        <ele>41</ele>
        <time>2023-07-19T20:35:19Z</time>
      </trkpt>
      <trkpt lat="59.510771" lon="16.012062">
        <ele>41</ele>
        <time>2023-07-19T20:35:20Z</time>
      </trkpt>
      <trkpt lat="59.510767" lon="16.012003">
        <ele>41</ele>
        <time>2023-07-19T20:35:21Z</time>
      </trkpt>
      <trkpt lat="59.510763" lon="16.011949">
        <ele>41</ele>
        <time>2023-07-19T20:35:22Z</time>
      </trkpt>
      <trkpt lat="59.510758" lon="16.011896">
        <ele>41</ele>
        <time>2023-07-19T20:35:23Z</time>
      </trkpt>
      <trkpt lat="59.51075" lon="16.011844">
        <ele>41</ele>
        <time>2023-07-19T20:35:24Z</time>
      </trkpt>
      <trkpt lat="59.510742" lon="16.011791">
        <ele>41</ele>
        <time>2023-07-19T20:35:25Z</time>
      </trkpt>
      <trkpt lat="59.510731" lon="16.011734">
        <ele>41</ele>
        <time>2023-07-19T20:35:26Z</time>
      </trkpt>
      <trkpt lat="59.510719" lon="16.011676">
        <ele>41</ele>
        <time>2023-07-19T20:35:27Z</time>
      </trkpt>
      <trkpt lat="59.510707" lon="16.011614">
        <ele>41</ele>
        <time>2023-07-19T20:35:28Z</time>
      </trkpt>
      <trkpt lat="59.510694" lon="16.011552">
        <ele>41</ele>
        <time>2023-07-19T20:35:29Z</time>
      </trkpt>
      <trkpt lat="59.51068" lon="16.011486">
        <ele>41</ele>
        <time>2023-07-19T20:35:30Z</time>
      </trkpt>
      <trkpt lat="59.510667" lon="16.011421">
        <ele>41</ele>
        <time>2023-07-19T20:35:31Z</time>
      </trkpt>
      <trkpt lat="59.510654" lon="16.011357">
        <ele>41</ele>
        <time>2023-07-19T20:35:32Z</time>
      </trkpt>
      <trkpt lat="59.510642" lon="16.011294">
        <ele>41</ele>
        <time>2023-07-19T20:35:33Z</time>
      </trkpt>
      <trkpt lat="59.510628" lon="16.011235">
        <ele>41</ele>
        <time>2023-07-19T20:35:34Z</time>
      </trkpt>
      <trkpt lat="59.510615" lon="16.011176">
        <ele>41</ele>
        <time>2023-07-19T20:35:35Z</time>
      </trkpt>
      <trkpt lat="59.510606" lon="16.011121">
        <ele>41</ele>
        <time>2023-07-19T20:35:36Z</time>
      </trkpt>
      <trkpt lat="59.510596" lon="16.011066">
        <ele>41</ele>
        <time>2023-07-19T20:35:37Z</time>
      </trkpt>
      <trkpt lat="59.510589" lon="16.011013">
        <ele>41</ele>
        <time>2023-07-19T20:35:38Z</time>
      </trkpt>
      <trkpt lat="59.510581" lon="16.010961">
        <ele>41</ele>
        <time>2023-07-19T20:35:39Z</time>
      </trkpt>
      <trkpt lat="59.510574" lon="16.010906">
        <ele>41</ele>
        <time>2023-07-19T20:35:40Z</time>
      </trkpt>
      <trkpt lat="59.510566" lon="16.010851">
        <ele>41</ele>
        <time>2023-07-19T20:35:41Z</time>
      </trkpt>
      <trkpt lat="59.510556" lon="16.01079">
        <ele>41</ele>
        <time>2023-07-19T20:35:42Z</time>
      </trkpt>
      <trkpt lat="59.510546" lon="16.01073">
        <ele>41</ele>
        <time>2023-07-19T20:35:43Z</time>
      </trkpt>
      <trkpt lat="59.510535" lon="16.01067">
        <ele>41</ele>
        <time>2023-07-19T20:35:44Z</time>
      </trkpt>
      <trkpt lat="59.510524" lon="16.01061">
        <ele>41</ele>
        <time>2023-07-19T20:35:45Z</time>
      </trkpt>
      <trkpt lat="59.510516" lon="16.010559">
        <ele>41</ele>
        <time>2023-07-19T20:35:46Z</time>
      </trkpt>
      <trkpt lat="59.510509" lon="16.010507">
        <ele>40</ele>
        <time>2023-07-19T20:35:47Z</time>
      </trkpt>
      <trkpt lat="59.510504" lon="16.010457">
        <ele>40</ele>
        <time>2023-07-19T20:35:48Z</time>
      </trkpt>
      <trkpt lat="59.510499" lon="16.010407">
        <ele>40</ele>
        <time>2023-07-19T20:35:49Z</time>
      </trkpt>
      <trkpt lat="59.510497" lon="16.010359">
        <ele>40</ele>
        <time>2023-07-19T20:35:50Z</time>
      </trkpt>
      <trkpt lat="59.510495" lon="16.010311">
        <ele>40</ele>
        <time>2023-07-19T20:35:51Z</time>
      </trkpt>
      <trkpt lat="59.510494" lon="16.010262">
        <ele>40</ele>
        <time>2023-07-19T20:35:52Z</time>
      </trkpt>
      <trkpt lat="59.510494" lon="16.010213">
        <ele>40</ele>
        <time>2023-07-19T20:35:53Z</time>
      </trkpt>
      <trkpt lat="59.510492" lon="16.010159">
        <ele>40</ele>
        <time>2023-07-19T20:35:54Z</time>
      </trkpt>
      <trkpt lat="59.510491" lon="16.010105">
        <ele>40</ele>
        <time>2023-07-19T20:35:55Z</time>
      </trkpt>
      <trkpt lat="59.51049" lon="16.010049">
        <ele>40</ele>
        <time>2023-07-19T20:35:56Z</time>
      </trkpt>
      <trkpt lat="59.510489" lon="16.009992">
        <ele>40</ele>
        <time>2023-07-19T20:35:57Z</time>
      </trkpt>
      <trkpt lat="59.510485" lon="16.009932">
        <ele>40</ele>
        <time>2023-07-19T20:35:58Z</time>
      </trkpt>
      <trkpt lat="59.510482" lon="16.009872">
        <ele>40</ele>
        <time>2023-07-19T20:35:59Z</time>
      </trkpt>
      <trkpt lat="59.510477" lon="16.009813">
        <ele>40</ele>
        <time>2023-07-19T20:36:00Z</time>
      </trkpt>
      <trkpt lat="59.510473" lon="16.009754">
        <ele>40</ele>
        <time>2023-07-19T20:36:01Z</time>
      </trkpt>
      <trkpt lat="59.510466" lon="16.009697">
        <ele>40</ele>
        <time>2023-07-19T20:36:02Z</time>
      </trkpt>
      <trkpt lat="59.51046" lon="16.009639">
        <ele>40</ele>
        <time>2023-07-19T20:36:03Z</time>
      </trkpt>
      <trkpt lat="59.510456" lon="16.009585">
        <ele>40</ele>
        <time>2023-07-19T20:36:04Z</time>
      </trkpt>
      <trkpt lat="59.510452" lon="16.009531">
        <ele>40</ele>
        <time>2023-07-19T20:36:05Z</time>
      </trkpt>
      <trkpt lat="59.510448" lon="16.009479">
        <ele>40</ele>
        <time>2023-07-19T20:36:06Z</time>
      </trkpt>
      <trkpt lat="59.510443" lon="16.009427">
        <ele>40</ele>
        <time>2023-07-19T20:36:07Z</time>
      </trkpt>
      <trkpt lat="59.510439" lon="16.009373">
        <ele>40</ele>
        <time>2023-07-19T20:36:08Z</time>
      </trkpt>
      <trkpt lat="59.510436" lon="16.00932">
        <ele>40</ele>
        <time>2023-07-19T20:36:09Z</time>
      </trkpt>
      <trkpt lat="59.510436" lon="16.009268">
        <ele>40</ele>
        <time>2023-07-19T20:36:10Z</time>
      </trkpt>
      <trkpt lat="59.510437" lon="16.009216">
        <ele>40</ele>
        <time>2023-07-19T20:36:11Z</time>
      </trkpt>
      <trkpt lat="59.510438" lon="16.009167">
        <ele>40</ele>
        <time>2023-07-19T20:36:12Z</time>
      </trkpt>
      <trkpt lat="59.51044" lon="16.009119">
        <ele>40</ele>
        <time>2023-07-19T20:36:13Z</time>
      </trkpt>
      <trkpt lat="59.51044" lon="16.009067">
        <ele>40</ele>
        <time>2023-07-19T20:36:14Z</time>
      </trkpt>
      <trkpt lat="59.51044" lon="16.009016">
        <ele>40</ele>
        <time>2023-07-19T20:36:15Z</time>
      </trkpt>
      <trkpt lat="59.51044" lon="16.008961">
        <ele>40</ele>
        <time>2023-07-19T20:36:16Z</time>
      </trkpt>
      <trkpt lat="59.510441" lon="16.008906">
        <ele>40</ele>
        <time>2023-07-19T20:36:17Z</time>
      </trkpt>
      <trkpt lat="59.510441" lon="16.008848">
        <ele>40</ele>
        <time>2023-07-19T20:36:18Z</time>
      </trkpt>
      <trkpt lat="59.510441" lon="16.008791">
        <ele>40</ele>
        <time>2023-07-19T20:36:19Z</time>
      </trkpt>
      <trkpt lat="59.510441" lon="16.008734">
        <ele>40</ele>
        <time>2023-07-19T20:36:20Z</time>
      </trkpt>
      <trkpt lat="59.51044" lon="16.008677">
        <ele>41</ele>
        <time>2023-07-19T20:36:21Z</time>
      </trkpt>
      <trkpt lat="59.510437" lon="16.008622">
        <ele>40</ele>
        <time>2023-07-19T20:36:22Z</time>
      </trkpt>
      <trkpt lat="59.510434" lon="16.008567">
        <ele>40</ele>
        <time>2023-07-19T20:36:23Z</time>
      </trkpt>
      <trkpt lat="59.510426" lon="16.008522">
        <ele>40</ele>
        <time>2023-07-19T20:36:24Z</time>
      </trkpt>
      <trkpt lat="59.510419" lon="16.008477">
        <ele>40</ele>
        <time>2023-07-19T20:36:25Z</time>
      </trkpt>
      <trkpt lat="59.510404" lon="16.008443">
        <ele>40</ele>
        <time>2023-07-19T20:36:26Z</time>
      </trkpt>
      <trkpt lat="59.51039" lon="16.00841">
        <ele>40</ele>
        <time>2023-07-19T20:36:27Z</time>
      </trkpt>
      <trkpt lat="59.510369" lon="16.00838">
        <ele>40</ele>
        <time>2023-07-19T20:36:28Z</time>
      </trkpt>
      <trkpt lat="59.510348" lon="16.00835">
        <ele>40</ele>
        <time>2023-07-19T20:36:29Z</time>
      </trkpt>
      <trkpt lat="59.510326" lon="16.00831">
        <ele>40</ele>
        <time>2023-07-19T20:36:30Z</time>
      </trkpt>
      <trkpt lat="59.510304" lon="16.008271">
        <ele>41</ele>
        <time>2023-07-19T20:36:31Z</time>
      </trkpt>
      <trkpt lat="59.510286" lon="16.008222">
        <ele>40</ele>
        <time>2023-07-19T20:36:32Z</time>
      </trkpt>
      <trkpt lat="59.510268" lon="16.008173">
        <ele>40</ele>
        <time>2023-07-19T20:36:33Z</time>
      </trkpt>
      <trkpt lat="59.510253" lon="16.008123">
        <ele>40</ele>
        <time>2023-07-19T20:36:34Z</time>
      </trkpt>
      <trkpt lat="59.510238" lon="16.008073">
        <ele>40</ele>
        <time>2023-07-19T20:36:35Z</time>
      </trkpt>
      <trkpt lat="59.510226" lon="16.008025">
        <ele>40</ele>
        <time>2023-07-19T20:36:36Z</time>
      </trkpt>
      <trkpt lat="59.510213" lon="16.007977">
        <ele>40</ele>
        <time>2023-07-19T20:36:37Z</time>
      </trkpt>
      <trkpt lat="59.510202" lon="16.00793">
        <ele>40</ele>
        <time>2023-07-19T20:36:38Z</time>
      </trkpt>
      <trkpt lat="59.510191" lon="16.007882">
        <ele>40</ele>
        <time>2023-07-19T20:36:39Z</time>
      </trkpt>
      <trkpt lat="59.510182" lon="16.007826">
        <ele>40</ele>
        <time>2023-07-19T20:36:40Z</time>
      </trkpt>
      <trkpt lat="59.510173" lon="16.007771">
        <ele>40</ele>
        <time>2023-07-19T20:36:41Z</time>
      </trkpt>
      <trkpt lat="59.510168" lon="16.007708">
        <ele>40</ele>
        <time>2023-07-19T20:36:42Z</time>
      </trkpt>
      <trkpt lat="59.510163" lon="16.007645">
        <ele>40</ele>
        <time>2023-07-19T20:36:43Z</time>
      </trkpt>
      <trkpt lat="59.510167" lon="16.007582">
        <ele>40</ele>
        <time>2023-07-19T20:36:44Z</time>
      </trkpt>
      <trkpt lat="59.510171" lon="16.00752">
        <ele>40</ele>
        <time>2023-07-19T20:36:45Z</time>
      </trkpt>
      <trkpt lat="59.510182" lon="16.007462">
        <ele>40</ele>
        <time>2023-07-19T20:36:46Z</time>
      </trkpt>
      <trkpt lat="59.510193" lon="16.007405">
        <ele>39</ele>
        <time>2023-07-19T20:36:47Z</time>
      </trkpt>
      <trkpt lat="59.510209" lon="16.007345">
        <ele>39</ele>
        <time>2023-07-19T20:36:48Z</time>
      </trkpt>
      <trkpt lat="59.510225" lon="16.007284">
        <ele>39</ele>
        <time>2023-07-19T20:36:49Z</time>
      </trkpt>
      <trkpt lat="59.510241" lon="16.00722">
        <ele>39</ele>
        <time>2023-07-19T20:36:50Z</time>
      </trkpt>
      <trkpt lat="59.510258" lon="16.007156">
        <ele>39</ele>
        <time>2023-07-19T20:36:51Z</time>
      </trkpt>
      <trkpt lat="59.510269" lon="16.007092">
        <ele>39</ele>
        <time>2023-07-19T20:36:52Z</time>
      </trkpt>
      <trkpt lat="59.51028" lon="16.007029">
        <ele>39</ele>
        <time>2023-07-19T20:36:53Z</time>
      </trkpt>
      <trkpt lat="59.51029" lon="16.006972">
        <ele>39</ele>
        <time>2023-07-19T20:36:54Z</time>
      </trkpt>
      <trkpt lat="59.510299" lon="16.006916">
        <ele>39</ele>
        <time>2023-07-19T20:36:55Z</time>
      </trkpt>
      <trkpt lat="59.510313" lon="16.006864">
        <ele>39</ele>
        <time>2023-07-19T20:36:56Z</time>
      </trkpt>
      <trkpt lat="59.510327" lon="16.006813">
        <ele>38</ele>
        <time>2023-07-19T20:36:57Z</time>
      </trkpt>
      <trkpt lat="59.510345" lon="16.006768">
        <ele>38</ele>
        <time>2023-07-19T20:36:58Z</time>
      </trkpt>
      <trkpt lat="59.510364" lon="16.006723">
        <ele>38</ele>
        <time>2023-07-19T20:36:59Z</time>
      </trkpt>
      <trkpt lat="59.510386" lon="16.006691">
        <ele>38</ele>
        <time>2023-07-19T20:37:00Z</time>
      </trkpt>
      <trkpt lat="59.510408" lon="16.006659">
        <ele>38</ele>
        <time>2023-07-19T20:37:01Z</time>
      </trkpt>
      <trkpt lat="59.510432" lon="16.006635">
        <ele>37</ele>
        <time>2023-07-19T20:37:02Z</time>
      </trkpt>
      <trkpt lat="59.510456" lon="16.006612">
        <ele>37</ele>
        <time>2023-07-19T20:37:03Z</time>
      </trkpt>
      <trkpt lat="59.510482" lon="16.006589">
        <ele>37</ele>
        <time>2023-07-19T20:37:04Z</time>
      </trkpt>
      <trkpt lat="59.510507" lon="16.006567">
        <ele>37</ele>
        <time>2023-07-19T20:37:05Z</time>
      </trkpt>
      <trkpt lat="59.510533" lon="16.006544">
        <ele>37</ele>
        <time>2023-07-19T20:37:06Z</time>
      </trkpt>
      <trkpt lat="59.510558" lon="16.006522">
        <ele>36</ele>
        <time>2023-07-19T20:37:07Z</time>
      </trkpt>
      <trkpt lat="59.510583" lon="16.006499">
        <ele>36</ele>
        <time>2023-07-19T20:37:08Z</time>
      </trkpt>
      <trkpt lat="59.510608" lon="16.006476">
        <ele>36</ele>
        <time>2023-07-19T20:37:09Z</time>
      </trkpt>
      <trkpt lat="59.510633" lon="16.006448">
        <ele>36</ele>
        <time>2023-07-19T20:37:10Z</time>
      </trkpt>
      <trkpt lat="59.510657" lon="16.00642">
        <ele>36</ele>
        <time>2023-07-19T20:37:11Z</time>
      </trkpt>
      <trkpt lat="59.510679" lon="16.006386">
        <ele>36</ele>
        <time>2023-07-19T20:37:12Z</time>
      </trkpt>
      <trkpt lat="59.5107" lon="16.006351">
        <ele>36</ele>
        <time>2023-07-19T20:37:13Z</time>
      </trkpt>
      <trkpt lat="59.510723" lon="16.006314">
        <ele>36</ele>
        <time>2023-07-19T20:37:14Z</time>
      </trkpt>
      <trkpt lat="59.510746" lon="16.006277">
        <ele>36</ele>
        <time>2023-07-19T20:37:15Z</time>
      </trkpt>
      <trkpt lat="59.510767" lon="16.006233">
        <ele>36</ele>
        <time>2023-07-19T20:37:16Z</time>
      </trkpt>
      <trkpt lat="59.510788" lon="16.00619">
        <ele>35</ele>
        <time>2023-07-19T20:37:17Z</time>
      </trkpt>
      <trkpt lat="59.510808" lon="16.006154">
        <ele>35</ele>
        <time>2023-07-19T20:37:18Z</time>
      </trkpt>
      <trkpt lat="59.510828" lon="16.006118">
        <ele>35</ele>
        <time>2023-07-19T20:37:19Z</time>
      </trkpt>
      <trkpt lat="59.510852" lon="16.006093">
        <ele>35</ele>
        <time>2023-07-19T20:37:20Z</time>
      </trkpt>
      <trkpt lat="59.510875" lon="16.006069">
        <ele>35</ele>
        <time>2023-07-19T20:37:21Z</time>
      </trkpt>
      <trkpt lat="59.510904" lon="16.006054">
        <ele>34</ele>
        <time>2023-07-19T20:37:22Z</time>
      </trkpt>
      <trkpt lat="59.510932" lon="16.006039">
        <ele>34</ele>
        <time>2023-07-19T20:37:23Z</time>
      </trkpt>
      <trkpt lat="59.510963" lon="16.006022">
        <ele>34</ele>
        <time>2023-07-19T20:37:24Z</time>
      </trkpt>
      <trkpt lat="59.510993" lon="16.006005">
        <ele>34</ele>
        <time>2023-07-19T20:37:25Z</time>
      </trkpt>
      <trkpt lat="59.511024" lon="16.005979">
        <ele>34</ele>
        <time>2023-07-19T20:37:26Z</time>
      </trkpt>
      <trkpt lat="59.511056" lon="16.005953">
        <ele>33</ele>
        <time>2023-07-19T20:37:27Z</time>
      </trkpt>
      <trkpt lat="59.511083" lon="16.005916">
        <ele>33</ele>
        <time>2023-07-19T20:37:28Z</time>
      </trkpt>
      <trkpt lat="59.51111" lon="16.005879">
        <ele>33</ele>
        <time>2023-07-19T20:37:29Z</time>
      </trkpt>
      <trkpt lat="59.511134" lon="16.005834">
        <ele>33</ele>
        <time>2023-07-19T20:37:30Z</time>
      </trkpt>
      <trkpt lat="59.511158" lon="16.00579">
        <ele>33</ele>
        <time>2023-07-19T20:37:31Z</time>
      </trkpt>
      <trkpt lat="59.511182" lon="16.005748">
        <ele>33</ele>
        <time>2023-07-19T20:37:32Z</time>
      </trkpt>
      <trkpt lat="59.511206" lon="16.005706">
        <ele>33</ele>
        <time>2023-07-19T20:37:33Z</time>
      </trkpt>
      <trkpt lat="59.511234" lon="16.005679">
        <ele>33</ele>
        <time>2023-07-19T20:37:34Z</time>
      </trkpt>
      <trkpt lat="59.511262" lon="16.005652">
        <ele>33</ele>
        <time>2023-07-19T20:37:35Z</time>
      </trkpt>
      <trkpt lat="59.511292" lon="16.005643">
        <ele>33</ele>
        <time>2023-07-19T20:37:36Z</time>
      </trkpt>
      <trkpt lat="59.511322" lon="16.005634">
        <ele>32</ele>
        <time>2023-07-19T20:37:37Z</time>
      </trkpt>
      <trkpt lat="59.51135" lon="16.005633">
        <ele>32</ele>
        <time>2023-07-19T20:37:38Z</time>
      </trkpt>
      <trkpt lat="59.511378" lon="16.005631">
        <ele>32</ele>
        <time>2023-07-19T20:37:39Z</time>
      </trkpt>
      <trkpt lat="59.511406" lon="16.005627">
        <ele>32</ele>
        <time>2023-07-19T20:37:40Z</time>
      </trkpt>
      <trkpt lat="59.511433" lon="16.005622">
        <ele>32</ele>
        <time>2023-07-19T20:37:41Z</time>
      </trkpt>
      <trkpt lat="59.511462" lon="16.00561">
        <ele>32</ele>
        <time>2023-07-19T20:37:42Z</time>
      </trkpt>
      <trkpt lat="59.51149" lon="16.005599">
        <ele>32</ele>
        <time>2023-07-19T20:37:43Z</time>
      </trkpt>
      <trkpt lat="59.511517" lon="16.005576">
        <ele>32</ele>
        <time>2023-07-19T20:37:44Z</time>
      </trkpt>
      <trkpt lat="59.511544" lon="16.005553">
        <ele>32</ele>
        <time>2023-07-19T20:37:45Z</time>
      </trkpt>
      <trkpt lat="59.511569" lon="16.005523">
        <ele>32</ele>
        <time>2023-07-19T20:37:46Z</time>
      </trkpt>
      <trkpt lat="59.511595" lon="16.005492">
        <ele>31</ele>
        <time>2023-07-19T20:37:47Z</time>
      </trkpt>
      <trkpt lat="59.511616" lon="16.005454">
        <ele>31</ele>
        <time>2023-07-19T20:37:48Z</time>
      </trkpt>
      <trkpt lat="59.511638" lon="16.005415">
        <ele>31</ele>
        <time>2023-07-19T20:37:49Z</time>
      </trkpt>
      <trkpt lat="59.511655" lon="16.00537">
        <ele>31</ele>
        <time>2023-07-19T20:37:50Z</time>
      </trkpt>
      <trkpt lat="59.511672" lon="16.005325">
        <ele>31</ele>
        <time>2023-07-19T20:37:51Z</time>
      </trkpt>
      <trkpt lat="59.511686" lon="16.005277">
        <ele>30</ele>
        <time>2023-07-19T20:37:52Z</time>
      </trkpt>
      <trkpt lat="59.511701" lon="16.005228">
        <ele>30</ele>
        <time>2023-07-19T20:37:53Z</time>
      </trkpt>
      <trkpt lat="59.511713" lon="16.005176">
        <ele>30</ele>
        <time>2023-07-19T20:37:54Z</time>
      </trkpt>
      <trkpt lat="59.511725" lon="16.005124">
        <ele>30</ele>
        <time>2023-07-19T20:37:55Z</time>
      </trkpt>
      <trkpt lat="59.511735" lon="16.005068">
        <ele>30</ele>
        <time>2023-07-19T20:37:56Z</time>
      </trkpt>
      <trkpt lat="59.511746" lon="16.005012">
        <ele>30</ele>
        <time>2023-07-19T20:37:57Z</time>
      </trkpt>
      <trkpt lat="59.511756" lon="16.004952">
        <ele>30</ele>
        <time>2023-07-19T20:37:58Z</time>
      </trkpt>
      <trkpt lat="59.511766" lon="16.004893">
        <ele>30</ele>
        <time>2023-07-19T20:37:59Z</time>
      </trkpt>
      <trkpt lat="59.511775" lon="16.004836">
        <ele>30</ele>
        <time>2023-07-19T20:38:00Z</time>
      </trkpt>
      <trkpt lat="59.511784" lon="16.004779">
        <ele>30</ele>
        <time>2023-07-19T20:38:01Z</time>
      </trkpt>
      <trkpt lat="59.511791" lon="16.004726">
        <ele>30</ele>
        <time>2023-07-19T20:38:02Z</time>
      </trkpt>
      <trkpt lat="59.511799" lon="16.004672">
        <ele>30</ele>
        <time>2023-07-19T20:38:03Z</time>
      </trkpt>
      <trkpt lat="59.511808" lon="16.004621">
        <ele>30</ele>
        <time>2023-07-19T20:38:04Z</time>
      </trkpt>
      <trkpt lat="59.511817" lon="16.004571">
        <ele>30</ele>
        <time>2023-07-19T20:38:05Z</time>
      </trkpt>
      <trkpt lat="59.511828" lon="16.004526">
        <ele>30</ele>
        <time>2023-07-19T20:38:06Z</time>
      </trkpt>
      <trkpt lat="59.51184" lon="16.004481">
        <ele>30</ele>
        <time>2023-07-19T20:38:07Z</time>
      </trkpt>
      <trkpt lat="59.511853" lon="16.004439">
        <ele>30</ele>
        <time>2023-07-19T20:38:08Z</time>
      </trkpt>
      <trkpt lat="59.511866" lon="16.004398">
        <ele>30</ele>
        <time>2023-07-19T20:38:09Z</time>
      </trkpt>
      <trkpt lat="59.511876" lon="16.004354">
        <ele>30</ele>
        <time>2023-07-19T20:38:10Z</time>
      </trkpt>
      <trkpt lat="59.511887" lon="16.00431">
        <ele>30</ele>
        <time>2023-07-19T20:38:11Z</time>
      </trkpt>
      <trkpt lat="59.51189" lon="16.00426">
        <ele>30</ele>
        <time>2023-07-19T20:38:12Z</time>
      </trkpt>
      <trkpt lat="59.511892" lon="16.004211">
        <ele>30</ele>
        <time>2023-07-19T20:38:13Z</time>
      </trkpt>
      <trkpt lat="59.51189" lon="16.004157">
        <ele>30</ele>
        <time>2023-07-19T20:38:14Z</time>
      </trkpt>
      <trkpt lat="59.511887" lon="16.004103">
        <ele>30</ele>
        <time>2023-07-19T20:38:15Z</time>
      </trkpt>
      <trkpt lat="59.511883" lon="16.004046">
        <ele>30</ele>
        <time>2023-07-19T20:38:16Z</time>
      </trkpt>
      <trkpt lat="59.511879" lon="16.00399">
        <ele>30</ele>
        <time>2023-07-19T20:38:17Z</time>
      </trkpt>
      <trkpt lat="59.511873" lon="16.00393">
        <ele>30</ele>
        <time>2023-07-19T20:38:18Z</time>
      </trkpt>
      <trkpt lat="59.511867" lon="16.00387">
        <ele>30</ele>
        <time>2023-07-19T20:38:19Z</time>
      </trkpt>
      <trkpt lat="59.511861" lon="16.00381">
        <ele>30</ele>
        <time>2023-07-19T20:38:20Z</time>
      </trkpt>
      <trkpt lat="59.511854" lon="16.003749">
        <ele>30</ele>
        <time>2023-07-19T20:38:21Z</time>
      </trkpt>
      <trkpt lat="59.511851" lon="16.003691">
        <ele>30</ele>
        <time>2023-07-19T20:38:22Z</time>
      </trkpt>
      <trkpt lat="59.511848" lon="16.003634">
        <ele>30</ele>
        <time>2023-07-19T20:38:23Z</time>
      </trkpt>
      <trkpt lat="59.511851" lon="16.003581">
        <ele>30</ele>
        <time>2023-07-19T20:38:24Z</time>
      </trkpt>
      <trkpt lat="59.511854" lon="16.003529">
        <ele>30</ele>
        <time>2023-07-19T20:38:25Z</time>
      </trkpt>
      <trkpt lat="59.511865" lon="16.003482">
        <ele>30</ele>
        <time>2023-07-19T20:38:26Z</time>
      </trkpt>
      <trkpt lat="59.511876" lon="16.003434">
        <ele>30</ele>
        <time>2023-07-19T20:38:27Z</time>
      </trkpt>
      <trkpt lat="59.511893" lon="16.003389">
        <ele>30</ele>
        <time>2023-07-19T20:38:28Z</time>
      </trkpt>
      <trkpt lat="59.51191" lon="16.003344">
        <ele>30</ele>
        <time>2023-07-19T20:38:29Z</time>
      </trkpt>
      <trkpt lat="59.511933" lon="16.003304">
        <ele>30</ele>
        <time>2023-07-19T20:38:30Z</time>
      </trkpt>
      <trkpt lat="59.511956" lon="16.003264">
        <ele>30</ele>
        <time>2023-07-19T20:38:31Z</time>
      </trkpt>
      <trkpt lat="59.511981" lon="16.003234">
        <ele>29</ele>
        <time>2023-07-19T20:38:32Z</time>
      </trkpt>
      <trkpt lat="59.512007" lon="16.003204">
        <ele>29</ele>
        <time>2023-07-19T20:38:33Z</time>
      </trkpt>
      <trkpt lat="59.512034" lon="16.00318">
        <ele>29</ele>
        <time>2023-07-19T20:38:34Z</time>
      </trkpt>
      <trkpt lat="59.51206" lon="16.003157">
        <ele>29</ele>
        <time>2023-07-19T20:38:35Z</time>
      </trkpt>
      <trkpt lat="59.512087" lon="16.003138">
        <ele>29</ele>
        <time>2023-07-19T20:38:36Z</time>
      </trkpt>
      <trkpt lat="59.512114" lon="16.00312">
        <ele>29</ele>
        <time>2023-07-19T20:38:37Z</time>
      </trkpt>
      <trkpt lat="59.512143" lon="16.003111">
        <ele>29</ele>
        <time>2023-07-19T20:38:38Z</time>
      </trkpt>
      <trkpt lat="59.512172" lon="16.003102">
        <ele>29</ele>
        <time>2023-07-19T20:38:39Z</time>
      </trkpt>
      <trkpt lat="59.512202" lon="16.003104">
        <ele>29</ele>
        <time>2023-07-19T20:38:40Z</time>
      </trkpt>
      <trkpt lat="59.512233" lon="16.003106">
        <ele>29</ele>
        <time>2023-07-19T20:38:41Z</time>
      </trkpt>
      <trkpt lat="59.512264" lon="16.003111">
        <ele>28</ele>
        <time>2023-07-19T20:38:42Z</time>
      </trkpt>
      <trkpt lat="59.512295" lon="16.003117">
        <ele>28</ele>
        <time>2023-07-19T20:38:43Z</time>
      </trkpt>
      <trkpt lat="59.512326" lon="16.003124">
        <ele>28</ele>
        <time>2023-07-19T20:38:44Z</time>
      </trkpt>
      <trkpt lat="59.512356" lon="16.003132">
        <ele>28</ele>
        <time>2023-07-19T20:38:45Z</time>
      </trkpt>
      <trkpt lat="59.512385" lon="16.003137">
        <ele>28</ele>
        <time>2023-07-19T20:38:46Z</time>
      </trkpt>
      <trkpt lat="59.512414" lon="16.003142">
        <ele>28</ele>
        <time>2023-07-19T20:38:47Z</time>
      </trkpt>
      <trkpt lat="59.512446" lon="16.003148">
        <ele>28</ele>
        <time>2023-07-19T20:38:48Z</time>
      </trkpt>
      <trkpt lat="59.512478" lon="16.003153">
        <ele>28</ele>
        <time>2023-07-19T20:38:49Z</time>
      </trkpt>
      <trkpt lat="59.51251" lon="16.003159">
        <ele>28</ele>
        <time>2023-07-19T20:38:50Z</time>
      </trkpt>
      <trkpt lat="59.512543" lon="16.003165">
        <ele>28</ele>
        <time>2023-07-19T20:38:51Z</time>
      </trkpt>
      <trkpt lat="59.512574" lon="16.003169">
        <ele>28</ele>
        <time>2023-07-19T20:38:52Z</time>
      </trkpt>
      <trkpt lat="59.512605" lon="16.003174">
        <ele>28</ele>
        <time>2023-07-19T20:38:53Z</time>
      </trkpt>
      <trkpt lat="59.512633" lon="16.003179">
        <ele>28</ele>
        <time>2023-07-19T20:38:54Z</time>
      </trkpt>
      <trkpt lat="59.512661" lon="16.003185">
        <ele>28</ele>
        <time>2023-07-19T20:38:55Z</time>
      </trkpt>
      <trkpt lat="59.512687" lon="16.003191">
        <ele>28</ele>
        <time>2023-07-19T20:38:56Z</time>
      </trkpt>
      <trkpt lat="59.512713" lon="16.003197">
        <ele>28</ele>
        <time>2023-07-19T20:38:57Z</time>
      </trkpt>
      <trkpt lat="59.512738" lon="16.003202">
        <ele>28</ele>
        <time>2023-07-19T20:38:58Z</time>
      </trkpt>
      <trkpt lat="59.512764" lon="16.003208">
        <ele>28</ele>
        <time>2023-07-19T20:38:59Z</time>
      </trkpt>
      <trkpt lat="59.51279" lon="16.003211">
        <ele>28</ele>
        <time>2023-07-19T20:39:00Z</time>
      </trkpt>
      <trkpt lat="59.512816" lon="16.003214">
        <ele>28</ele>
        <time>2023-07-19T20:39:01Z</time>
      </trkpt>
      <trkpt lat="59.512843" lon="16.003211">
        <ele>28</ele>
        <time>2023-07-19T20:39:02Z</time>
      </trkpt>
      <trkpt lat="59.512871" lon="16.003208">
        <ele>28</ele>
        <time>2023-07-19T20:39:03Z</time>
      </trkpt>
      <trkpt lat="59.512897" lon="16.003201">
        <ele>28</ele>
        <time>2023-07-19T20:39:04Z</time>
      </trkpt>
      <trkpt lat="59.512924" lon="16.003195">
        <ele>28</ele>
        <time>2023-07-19T20:39:05Z</time>
      </trkpt>
      <trkpt lat="59.51295" lon="16.003191">
        <ele>28</ele>
        <time>2023-07-19T20:39:06Z</time>
      </trkpt>
      <trkpt lat="59.512977" lon="16.003187">
        <ele>28</ele>
        <time>2023-07-19T20:39:07Z</time>
      </trkpt>
      <trkpt lat="59.513004" lon="16.003184">
        <ele>28</ele>
        <time>2023-07-19T20:39:08Z</time>
      </trkpt>
      <trkpt lat="59.513031" lon="16.003182">
        <ele>28</ele>
        <time>2023-07-19T20:39:09Z</time>
      </trkpt>
      <trkpt lat="59.513058" lon="16.003181">
        <ele>28</ele>
        <time>2023-07-19T20:39:10Z</time>
      </trkpt>
      <trkpt lat="59.513086" lon="16.00318">
        <ele>28</ele>
        <time>2023-07-19T20:39:11Z</time>
      </trkpt>
      <trkpt lat="59.513114" lon="16.003179">
        <ele>28</ele>
        <time>2023-07-19T20:39:12Z</time>
      </trkpt>
      <trkpt lat="59.513142" lon="16.003178">
        <ele>28</ele>
        <time>2023-07-19T20:39:13Z</time>
      </trkpt>
      <trkpt lat="59.513171" lon="16.003178">
        <ele>28</ele>
        <time>2023-07-19T20:39:14Z</time>
      </trkpt>
      <trkpt lat="59.513199" lon="16.003178">
        <ele>28</ele>
        <time>2023-07-19T20:39:15Z</time>
      </trkpt>
      <trkpt lat="59.513228" lon="16.003175">
        <ele>28</ele>
        <time>2023-07-19T20:39:16Z</time>
      </trkpt>
      <trkpt lat="59.513256" lon="16.003173">
        <ele>28</ele>
        <time>2023-07-19T20:39:17Z</time>
      </trkpt>
      <trkpt lat="59.513285" lon="16.00317">
        <ele>28</ele>
        <time>2023-07-19T20:39:18Z</time>
      </trkpt>
      <trkpt lat="59.513313" lon="16.003167">
        <ele>28</ele>
        <time>2023-07-19T20:39:19Z</time>
      </trkpt>
      <trkpt lat="59.51334" lon="16.003165">
        <ele>28</ele>
        <time>2023-07-19T20:39:20Z</time>
      </trkpt>
      <trkpt lat="59.513368" lon="16.003162">
        <ele>28</ele>
        <time>2023-07-19T20:39:21Z</time>
      </trkpt>
      <trkpt lat="59.513394" lon="16.003162">
        <ele>28</ele>
        <time>2023-07-19T20:39:22Z</time>
      </trkpt>
      <trkpt lat="59.51342" lon="16.003161">
        <ele>28</ele>
        <time>2023-07-19T20:39:23Z</time>
      </trkpt>
      <trkpt lat="59.513446" lon="16.003159">
        <ele>28</ele>
        <time>2023-07-19T20:39:24Z</time>
      </trkpt>
      <trkpt lat="59.513473" lon="16.003157">
        <ele>28</ele>
        <time>2023-07-19T20:39:25Z</time>
      </trkpt>
      <trkpt lat="59.513496" lon="16.003141">
        <ele>28</ele>
        <time>2023-07-19T20:39:26Z</time>
      </trkpt>
      <trkpt lat="59.513519" lon="16.003124">
        <ele>28</ele>
        <time>2023-07-19T20:39:27Z</time>
      </trkpt>
      <trkpt lat="59.513534" lon="16.003088">
        <ele>28</ele>
        <time>2023-07-19T20:39:28Z</time>
      </trkpt>
      <trkpt lat="59.513548" lon="16.003051">
        <ele>28</ele>
        <time>2023-07-19T20:39:29Z</time>
      </trkpt>
      <trkpt lat="59.513553" lon="16.002999">
        <ele>28</ele>
        <time>2023-07-19T20:39:30Z</time>
      </trkpt>
      <trkpt lat="59.513558" lon="16.002946">
        <ele>28</ele>
        <time>2023-07-19T20:39:31Z</time>
      </trkpt>
      <trkpt lat="59.513558" lon="16.002885">
        <ele>28</ele>
        <time>2023-07-19T20:39:32Z</time>
      </trkpt>
      <trkpt lat="59.513557" lon="16.002824">
        <ele>28</ele>
        <time>2023-07-19T20:39:33Z</time>
      </trkpt>
      <trkpt lat="59.513557" lon="16.002758">
        <ele>28</ele>
        <time>2023-07-19T20:39:34Z</time>
      </trkpt>
      <trkpt lat="59.513557" lon="16.002691">
        <ele>28</ele>
        <time>2023-07-19T20:39:35Z</time>
      </trkpt>
      <trkpt lat="59.513559" lon="16.002624">
        <ele>28</ele>
        <time>2023-07-19T20:39:36Z</time>
      </trkpt>
      <trkpt lat="59.513561" lon="16.002557">
        <ele>28</ele>
        <time>2023-07-19T20:39:37Z</time>
      </trkpt>
      <trkpt lat="59.513568" lon="16.002494">
        <ele>28</ele>
        <time>2023-07-19T20:39:38Z</time>
      </trkpt>
      <trkpt lat="59.513575" lon="16.002431">
        <ele>28</ele>
        <time>2023-07-19T20:39:39Z</time>
      </trkpt>
      <trkpt lat="59.513585" lon="16.002374">
        <ele>28</ele>
        <time>2023-07-19T20:39:40Z</time>
      </trkpt>
      <trkpt lat="59.513595" lon="16.002317">
        <ele>28</ele>
        <time>2023-07-19T20:39:41Z</time>
      </trkpt>
      <trkpt lat="59.513606" lon="16.002264">
        <ele>27</ele>
        <time>2023-07-19T20:39:42Z</time>
      </trkpt>
      <trkpt lat="59.513616" lon="16.002211">
        <ele>27</ele>
        <time>2023-07-19T20:39:43Z</time>
      </trkpt>
      <trkpt lat="59.513619" lon="16.002156">
        <ele>27</ele>
        <time>2023-07-19T20:39:44Z</time>
      </trkpt>
      <trkpt lat="59.513622" lon="16.002101">
        <ele>27</ele>
        <time>2023-07-19T20:39:45Z</time>
      </trkpt>
      <trkpt lat="59.513615" lon="16.002044">
        <ele>27</ele>
        <time>2023-07-19T20:39:46Z</time>
      </trkpt>
      <trkpt lat="59.513608" lon="16.001987">
        <ele>26</ele>
        <time>2023-07-19T20:39:47Z</time>
      </trkpt>
      <trkpt lat="59.513595" lon="16.001931">
        <ele>26</ele>
        <time>2023-07-19T20:39:48Z</time>
      </trkpt>
      <trkpt lat="59.513583" lon="16.001875">
        <ele>26</ele>
        <time>2023-07-19T20:39:49Z</time>
      </trkpt>
      <trkpt lat="59.513576" lon="16.001822">
        <ele>26</ele>
        <time>2023-07-19T20:39:50Z</time>
      </trkpt>
      <trkpt lat="59.513569" lon="16.001769">
        <ele>26</ele>
        <time>2023-07-19T20:39:51Z</time>
      </trkpt>
      <trkpt lat="59.513575" lon="16.001731">
        <ele>25</ele>
        <time>2023-07-19T20:39:52Z</time>
      </trkpt>
      <trkpt lat="59.513582" lon="16.001692">
        <ele>25</ele>
        <time>2023-07-19T20:39:53Z</time>
      </trkpt>
      <trkpt lat="59.513604" lon="16.001679">
        <ele>25</ele>
        <time>2023-07-19T20:39:54Z</time>
      </trkpt>
      <trkpt lat="59.513627" lon="16.001665">
        <ele>25</ele>
        <time>2023-07-19T20:39:55Z</time>
      </trkpt>
      <trkpt lat="59.513659" lon="16.001675">
        <ele>25</ele>
        <time>2023-07-19T20:39:56Z</time>
      </trkpt>
      <trkpt lat="59.513692" lon="16.001685">
        <ele>25</ele>
        <time>2023-07-19T20:39:57Z</time>
      </trkpt>
      <trkpt lat="59.513727" lon="16.001712">
        <ele>25</ele>
        <time>2023-07-19T20:39:58Z</time>
      </trkpt>
      <trkpt lat="59.513761" lon="16.001739">
        <ele>25</ele>
        <time>2023-07-19T20:39:59Z</time>
      </trkpt>
      <trkpt lat="59.513788" lon="16.001771">
        <ele>25</ele>
        <time>2023-07-19T20:40:00Z</time>
      </trkpt>
      <trkpt lat="59.513814" lon="16.001803">
        <ele>25</ele>
        <time>2023-07-19T20:40:01Z</time>
      </trkpt>
      <trkpt lat="59.513831" lon="16.001825">
        <ele>24</ele>
        <time>2023-07-19T20:40:02Z</time>
      </trkpt>
      <trkpt lat="59.513847" lon="16.001846">
        <ele>24</ele>
        <time>2023-07-19T20:40:03Z</time>
      </trkpt>
      <trkpt lat="59.513862" lon="16.001857">
        <ele>24</ele>
        <time>2023-07-19T20:40:04Z</time>
      </trkpt>
      <trkpt lat="59.513877" lon="16.001869">
        <ele>24</ele>
        <time>2023-07-19T20:40:05Z</time>
      </trkpt>
      <trkpt lat="59.513896" lon="16.001872">
        <ele>24</ele>
        <time>2023-07-19T20:40:06Z</time>
      </trkpt>
      <trkpt lat="59.513916" lon="16.001875">
        <ele>24</ele>
        <time>2023-07-19T20:40:07Z</time>
      </trkpt>
      <trkpt lat="59.513943" lon="16.001864">
        <ele>24</ele>
        <time>2023-07-19T20:40:08Z</time>
      </trkpt>
      <trkpt lat="59.513971" lon="16.001854">
        <ele>24</ele>
        <time>2023-07-19T20:40:09Z</time>
      </trkpt>
      <trkpt lat="59.514002" lon="16.001827">
        <ele>24</ele>
        <time>2023-07-19T20:40:10Z</time>
      </trkpt>
      <trkpt lat="59.514033" lon="16.001801">
        <ele>24</ele>
        <time>2023-07-19T20:40:11Z</time>
      </trkpt>
      <trkpt lat="59.514061" lon="16.001765">
        <ele>24</ele>
        <time>2023-07-19T20:40:12Z</time>
      </trkpt>
      <trkpt lat="59.51409" lon="16.001729">
        <ele>24</ele>
        <time>2023-07-19T20:40:13Z</time>
      </trkpt>
      <trkpt lat="59.51411" lon="16.00168">
        <ele>24</ele>
        <time>2023-07-19T20:40:14Z</time>
      </trkpt>
      <trkpt lat="59.51413" lon="16.001631">
        <ele>24</ele>
        <time>2023-07-19T20:40:15Z</time>
      </trkpt>
      <trkpt lat="59.51414" lon="16.00157">
        <ele>24</ele>
        <time>2023-07-19T20:40:16Z</time>
      </trkpt>
      <trkpt lat="59.514151" lon="16.001509">
        <ele>24</ele>
        <time>2023-07-19T20:40:17Z</time>
      </trkpt>
      <trkpt lat="59.514155" lon="16.001443">
        <ele>24</ele>
        <time>2023-07-19T20:40:18Z</time>
      </trkpt>
      <trkpt lat="59.51416" lon="16.001377">
        <ele>24</ele>
        <time>2023-07-19T20:40:19Z</time>
      </trkpt>
      <trkpt lat="59.514161" lon="16.001314">
        <ele>24</ele>
        <time>2023-07-19T20:40:20Z</time>
      </trkpt>
      <trkpt lat="59.514163" lon="16.001251">
        <ele>24</ele>
        <time>2023-07-19T20:40:21Z</time>
      </trkpt>
      <trkpt lat="59.514166" lon="16.001189">
        <ele>24</ele>
        <time>2023-07-19T20:40:22Z</time>
      </trkpt>
      <trkpt lat="59.51417" lon="16.001127">
        <ele>24</ele>
        <time>2023-07-19T20:40:23Z</time>
      </trkpt>
      <trkpt lat="59.514179" lon="16.001066">
        <ele>24</ele>
        <time>2023-07-19T20:40:24Z</time>
      </trkpt>
      <trkpt lat="59.514188" lon="16.001006">
        <ele>24</ele>
        <time>2023-07-19T20:40:25Z</time>
      </trkpt>
      <trkpt lat="59.514203" lon="16.00095">
        <ele>24</ele>
        <time>2023-07-19T20:40:26Z</time>
      </trkpt>
      <trkpt lat="59.514218" lon="16.000895">
        <ele>23</ele>
        <time>2023-07-19T20:40:27Z</time>
      </trkpt>
      <trkpt lat="59.514239" lon="16.000843">
        <ele>23</ele>
        <time>2023-07-19T20:40:28Z</time>
      </trkpt>
      <trkpt lat="59.51426" lon="16.000792">
        <ele>23</ele>
        <time>2023-07-19T20:40:29Z</time>
      </trkpt>
      <trkpt lat="59.514284" lon="16.000743">
        <ele>23</ele>
        <time>2023-07-19T20:40:30Z</time>
      </trkpt>
      <trkpt lat="59.514308" lon="16.000694">
        <ele>23</ele>
        <time>2023-07-19T20:40:31Z</time>
      </trkpt>
      <trkpt lat="59.514331" lon="16.000646">
        <ele>23</ele>
        <time>2023-07-19T20:40:32Z</time>
      </trkpt>
      <trkpt lat="59.514355" lon="16.000598">
        <ele>23</ele>
        <time>2023-07-19T20:40:33Z</time>
      </trkpt>
      <trkpt lat="59.514377" lon="16.000551">
        <ele>23</ele>
        <time>2023-07-19T20:40:34Z</time>
      </trkpt>
      <trkpt lat="59.5144" lon="16.000503">
        <ele>23</ele>
        <time>2023-07-19T20:40:35Z</time>
      </trkpt>
      <trkpt lat="59.514421" lon="16.000456">
        <ele>23</ele>
        <time>2023-07-19T20:40:36Z</time>
      </trkpt>
      <trkpt lat="59.514442" lon="16.000408">
        <ele>23</ele>
        <time>2023-07-19T20:40:37Z</time>
      </trkpt>
      <trkpt lat="59.514466" lon="16.000362">
        <ele>23</ele>
        <time>2023-07-19T20:40:38Z</time>
      </trkpt>
      <trkpt lat="59.514489" lon="16.000316">
        <ele>23</ele>
        <time>2023-07-19T20:40:39Z</time>
      </trkpt>
      <trkpt lat="59.514514" lon="16.000276">
        <ele>23</ele>
        <time>2023-07-19T20:40:40Z</time>
      </trkpt>
      <trkpt lat="59.514539" lon="16.000235">
        <ele>23</ele>
        <time>2023-07-19T20:40:41Z</time>
      </trkpt>
      <trkpt lat="59.514566" lon="16.000196">
        <ele>23</ele>
        <time>2023-07-19T20:40:42Z</time>
      </trkpt>
      <trkpt lat="59.514593" lon="16.000157">
        <ele>23</ele>
        <time>2023-07-19T20:40:43Z</time>
      </trkpt>
      <trkpt lat="59.514621" lon="16.000118">
        <ele>23</ele>
        <time>2023-07-19T20:40:44Z</time>
      </trkpt>
      <trkpt lat="59.514649" lon="16.000079">
        <ele>23</ele>
        <time>2023-07-19T20:40:45Z</time>
      </trkpt>
      <trkpt lat="59.514676" lon="16.00004">
        <ele>23</ele>
        <time>2023-07-19T20:40:46Z</time>
      </trkpt>
      <trkpt lat="59.514704" lon="16.000002">
        <ele>23</ele>
        <time>2023-07-19T20:40:47Z</time>
      </trkpt>
      <trkpt lat="59.514731" lon="15.999961">
        <ele>23</ele>
        <time>2023-07-19T20:40:48Z</time>
      </trkpt>
      <trkpt lat="59.514757" lon="15.999921">
        <ele>23</ele>
        <time>2023-07-19T20:40:49Z</time>
      </trkpt>
      <trkpt lat="59.514785" lon="15.999883">
        <ele>23</ele>
        <time>2023-07-19T20:40:50Z</time>
      </trkpt>
      <trkpt lat="59.514813" lon="15.999845">
        <ele>23</ele>
        <time>2023-07-19T20:40:51Z</time>
      </trkpt>
      <trkpt lat="59.51484" lon="15.999809">
        <ele>22</ele>
        <time>2023-07-19T20:40:52Z</time>
      </trkpt>
      <trkpt lat="59.514868" lon="15.999773">
        <ele>22</ele>
        <time>2023-07-19T20:40:53Z</time>
      </trkpt>
      <trkpt lat="59.514896" lon="15.999737">
        <ele>22</ele>
        <time>2023-07-19T20:40:54Z</time>
      </trkpt>
      <trkpt lat="59.514924" lon="15.999702">
        <ele>22</ele>
        <time>2023-07-19T20:40:55Z</time>
      </trkpt>
      <trkpt lat="59.514951" lon="15.999669">
        <ele>22</ele>
        <time>2023-07-19T20:40:56Z</time>
      </trkpt>
      <trkpt lat="59.514979" lon="15.999636">
        <ele>22</ele>
        <time>2023-07-19T20:40:57Z</time>
      </trkpt>
      <trkpt lat="59.515006" lon="15.999603">
        <ele>22</ele>
        <time>2023-07-19T20:40:58Z</time>
      </trkpt>
      <trkpt lat="59.515033" lon="15.99957">
        <ele>22</ele>
        <time>2023-07-19T20:40:59Z</time>
      </trkpt>
      <trkpt lat="59.51506" lon="15.999536">
        <ele>22</ele>
        <time>2023-07-19T20:41:00Z</time>
      </trkpt>
      <trkpt lat="59.515086" lon="15.999502">
        <ele>22</ele>
        <time>2023-07-19T20:41:01Z</time>
      </trkpt>
      <trkpt lat="59.515113" lon="15.999469">
        <ele>22</ele>
        <time>2023-07-19T20:41:02Z</time>
      </trkpt>
      <trkpt lat="59.51514" lon="15.999436">
        <ele>22</ele>
        <time>2023-07-19T20:41:03Z</time>
      </trkpt>
      <trkpt lat="59.515167" lon="15.999405">
        <ele>22</ele>
        <time>2023-07-19T20:41:04Z</time>
      </trkpt>
      <trkpt lat="59.515194" lon="15.999373">
        <ele>22</ele>
        <time>2023-07-19T20:41:05Z</time>
      </trkpt>
      <trkpt lat="59.51522" lon="15.999341">
        <ele>22</ele>
        <time>2023-07-19T20:41:06Z</time>
      </trkpt>
      <trkpt lat="59.515247" lon="15.999309">
        <ele>22</ele>
        <time>2023-07-19T20:41:07Z</time>
      </trkpt>
      <trkpt lat="59.515272" lon="15.999277">
        <ele>22</ele>
        <time>2023-07-19T20:41:08Z</time>
      </trkpt>
      <trkpt lat="59.515298" lon="15.999245">
        <ele>22</ele>
        <time>2023-07-19T20:41:09Z</time>
      </trkpt>
      <trkpt lat="59.515323" lon="15.999214">
        <ele>22</ele>
        <time>2023-07-19T20:41:10Z</time>
      </trkpt>
      <trkpt lat="59.515348" lon="15.999183">
        <ele>22</ele>
        <time>2023-07-19T20:41:11Z</time>
      </trkpt>
      <trkpt lat="59.515375" lon="15.999151">
        <ele>22</ele>
        <time>2023-07-19T20:41:12Z</time>
      </trkpt>
      <trkpt lat="59.515402" lon="15.999119">
        <ele>22</ele>
        <time>2023-07-19T20:41:13Z</time>
      </trkpt>
      <trkpt lat="59.515429" lon="15.999084">
        <ele>22</ele>
        <time>2023-07-19T20:41:14Z</time>
      </trkpt>
      <trkpt lat="59.515456" lon="15.99905">
        <ele>22</ele>
        <time>2023-07-19T20:41:15Z</time>
      </trkpt>
      <trkpt lat="59.515482" lon="15.999016">
        <ele>22</ele>
        <time>2023-07-19T20:41:16Z</time>
      </trkpt>
      <trkpt lat="59.515508" lon="15.998982">
        <ele>22</ele>
        <time>2023-07-19T20:41:17Z</time>
      </trkpt>
      <trkpt lat="59.515532" lon="15.998948">
        <ele>22</ele>
        <time>2023-07-19T20:41:18Z</time>
      </trkpt>
      <trkpt lat="59.515556" lon="15.998915">
        <ele>22</ele>
        <time>2023-07-19T20:41:19Z</time>
      </trkpt>
      <trkpt lat="59.515577" lon="15.998877">
        <ele>22</ele>
        <time>2023-07-19T20:41:20Z</time>
      </trkpt>
      <trkpt lat="59.515599" lon="15.99884">
        <ele>22</ele>
        <time>2023-07-19T20:41:21Z</time>
      </trkpt>
      <trkpt lat="59.51562" lon="15.998796">
        <ele>22</ele>
        <time>2023-07-19T20:41:22Z</time>
      </trkpt>
      <trkpt lat="59.51564" lon="15.998752">
        <ele>22</ele>
        <time>2023-07-19T20:41:23Z</time>
      </trkpt>
      <trkpt lat="59.515663" lon="15.998709">
        <ele>22</ele>
        <time>2023-07-19T20:41:24Z</time>
      </trkpt>
      <trkpt lat="59.515686" lon="15.998666">
        <ele>22</ele>
        <time>2023-07-19T20:41:25Z</time>
      </trkpt>
      <trkpt lat="59.515711" lon="15.99863">
        <ele>23</ele>
        <time>2023-07-19T20:41:26Z</time>
      </trkpt>
      <trkpt lat="59.515736" lon="15.998594">
        <ele>23</ele>
        <time>2023-07-19T20:41:27Z</time>
      </trkpt>
      <trkpt lat="59.515761" lon="15.998565">
        <ele>23</ele>
        <time>2023-07-19T20:41:28Z</time>
      </trkpt>
      <trkpt lat="59.515786" lon="15.998535">
        <ele>23</ele>
        <time>2023-07-19T20:41:29Z</time>
      </trkpt>
      <trkpt lat="59.515811" lon="15.998509">
        <ele>23</ele>
        <time>2023-07-19T20:41:30Z</time>
      </trkpt>
      <trkpt lat="59.515835" lon="15.998483">
        <ele>23</ele>
        <time>2023-07-19T20:41:31Z</time>
      </trkpt>
      <trkpt lat="59.51586" lon="15.998455">
        <ele>23</ele>
        <time>2023-07-19T20:41:32Z</time>
      </trkpt>
      <trkpt lat="59.515886" lon="15.998428">
        <ele>23</ele>
        <time>2023-07-19T20:41:33Z</time>
      </trkpt>
      <trkpt lat="59.515906" lon="15.998395">
        <ele>23</ele>
        <time>2023-07-19T20:41:34Z</time>
      </trkpt>
      <trkpt lat="59.515927" lon="15.998362">
        <ele>23</ele>
        <time>2023-07-19T20:41:35Z</time>
      </trkpt>
      <trkpt lat="59.515935" lon="15.998316">
        <ele>23</ele>
        <time>2023-07-19T20:41:36Z</time>
      </trkpt>
      <trkpt lat="59.515944" lon="15.998271">
        <ele>23</ele>
        <time>2023-07-19T20:41:37Z</time>
      </trkpt>
      <trkpt lat="59.515936" lon="15.998215">
        <ele>23</ele>
        <time>2023-07-19T20:41:38Z</time>
      </trkpt>
      <trkpt lat="59.515928" lon="15.998159">
        <ele>23</ele>
        <time>2023-07-19T20:41:39Z</time>
      </trkpt>
      <trkpt lat="59.515907" lon="15.998099">
        <ele>23</ele>
        <time>2023-07-19T20:41:40Z</time>
      </trkpt>
      <trkpt lat="59.515887" lon="15.998039">
        <ele>23</ele>
        <time>2023-07-19T20:41:41Z</time>
      </trkpt>
      <trkpt lat="59.51586" lon="15.997983">
        <ele>22</ele>
        <time>2023-07-19T20:41:42Z</time>
      </trkpt>
      <trkpt lat="59.515832" lon="15.997927">
        <ele>22</ele>
        <time>2023-07-19T20:41:43Z</time>
      </trkpt>
      <trkpt lat="59.515806" lon="15.997877">
        <ele>22</ele>
        <time>2023-07-19T20:41:44Z</time>
      </trkpt>
      <trkpt lat="59.51578" lon="15.997828">
        <ele>22</ele>
        <time>2023-07-19T20:41:45Z</time>
      </trkpt>
      <trkpt lat="59.515757" lon="15.997789">
        <ele>22</ele>
        <time>2023-07-19T20:41:46Z</time>
      </trkpt>
      <trkpt lat="59.515734" lon="15.997749">
        <ele>22</ele>
        <time>2023-07-19T20:41:47Z</time>
      </trkpt>
      <trkpt lat="59.51571" lon="15.997731">
        <ele>22</ele>
        <time>2023-07-19T20:41:48Z</time>
      </trkpt>
      <trkpt lat="59.515686" lon="15.997713">
        <ele>22</ele>
        <time>2023-07-19T20:41:49Z</time>
      </trkpt>
      <trkpt lat="59.515652" lon="15.997749">
        <ele>22</ele>
        <time>2023-07-19T20:41:50Z</time>
      </trkpt>
      <trkpt lat="59.515618" lon="15.997786">
        <ele>22</ele>
        <time>2023-07-19T20:41:51Z</time>
      </trkpt>
      <trkpt lat="59.515585" lon="15.997822">
        <ele>22</ele>
        <time>2023-07-19T20:41:52Z</time>
      </trkpt>
      <trkpt lat="59.515585" lon="15.997822">
        <ele>22</ele>
        <time>2023-07-19T20:41:53Z</time>
      </trkpt>
    </trkseg>
  </trk>
</gpx>